Wetterdaten: aktuell Mittwoch, 21.02.2018 19:58
Datum Zeit Temp. A. Temp. A. min Temp. A. max Feuchte A. Luftdruck Regen Wind Richtung Richtung Sonne ET UV Solar Taupunkt Windchill Windben
21.02.2018 19:58 3,7 C 3,7 C 3,7 C 61 % 1019,0 hPa 0,0 l/m 4,3 km/h (1 Bft) NO 56 0 min 0,000 mm 0,0 UV-I 12 W/m -3,1 C 3,7 C 8,0 km/h (2 Bft)
21.02.2018 19:56 3,7 C 3,7 C 3,7 C 61 % 1019,0 hPa 0,0 l/m 5,5 km/h (2 Bft) O-NO 63 0 min 0,000 mm 0,0 UV-I 12 W/m -3,1 C 3,7 C 11,3 km/h (2 Bft)
21.02.2018 19:54 3,7 C 3,7 C 3,7 C 61 % 1018,9 hPa 0,0 l/m 5,2 km/h (1 Bft) NO 51 0 min 0,000 mm 0,0 UV-I 12 W/m -3,1 C 3,7 C 9,7 km/h (2 Bft)
21.02.2018 19:52 3,7 C 3,7 C 3,7 C 61 % 1018,9 hPa 0,0 l/m 6,9 km/h (2 Bft) O 97 0 min 0,000 mm 0,0 UV-I 12 W/m -3,1 C 3,2 C 11,3 km/h (2 Bft)
21.02.2018 19:50 3,7 C 3,7 C 3,7 C 61 % 1019,0 hPa 0,0 l/m 4,6 km/h (1 Bft) O 84 0 min 0,000 mm 0,0 UV-I 12 W/m -3,1 C 3,7 C 12,9 km/h (3 Bft)
21.02.2018 19:48 3,7 C 3,7 C 3,7 C 61 % 1019,1 hPa 0,0 l/m 4,6 km/h (1 Bft) O-NO 61 0 min 0,000 mm 0,0 UV-I 12 W/m -3,1 C 3,7 C 8,0 km/h (2 Bft)
21.02.2018 19:46 3,7 C 3,7 C 3,7 C 61 % 1019,0 hPa 0,0 l/m 7,6 km/h (2 Bft) O 90 0 min 0,000 mm 0,0 UV-I 12 W/m -3,1 C 2,6 C 11,3 km/h (2 Bft)
21.02.2018 19:44 3,7 C 3,7 C 3,7 C 61 % 1019,0 hPa 0,0 l/m 5,5 km/h (2 Bft) O 88 0 min 0,000 mm 0,0 UV-I 12 W/m -3,1 C 3,7 C 11,3 km/h (2 Bft)
21.02.2018 19:42 3,7 C 3,7 C 3,7 C 61 % 1019,0 hPa 0,0 l/m 5,1 km/h (1 Bft) O-NO 61 0 min 0,000 mm 0,0 UV-I 12 W/m -3,1 C 3,7 C 9,7 km/h (2 Bft)
21.02.2018 19:40 3,7 C 3,7 C 3,7 C 61 % 1019,0 hPa 0,0 l/m 4,3 km/h (1 Bft) O 87 0 min 0,000 mm 0,0 UV-I 12 W/m -3,1 C 3,7 C 8,0 km/h (2 Bft)
21.02.2018 19:38 3,7 C 3,7 C 3,7 C 61 % 1019,0 hPa 0,0 l/m 6,4 km/h (2 Bft) O 94 0 min 0,000 mm 0,0 UV-I 12 W/m -3,1 C 3,7 C 9,7 km/h (2 Bft)
21.02.2018 19:36 3,7 C 3,7 C 3,7 C 61 % 1019,0 hPa 0,0 l/m 6,4 km/h (2 Bft) O 80 0 min 0,000 mm 0,0 UV-I 12 W/m -3,1 C 3,7 C 11,3 km/h (2 Bft)
21.02.2018 19:34 3,7 C 3,7 C 3,7 C 61 % 1019,0 hPa 0,0 l/m 5,0 km/h (1 Bft) O-NO 78 0 min 0,000 mm 0,0 UV-I 12 W/m -3,1 C 3,7 C 14,5 km/h (3 Bft)
21.02.2018 19:32 3,7 C 3,7 C 3,7 C 61 % 1019,0 hPa 0,0 l/m 6,9 km/h (2 Bft) O 83 0 min 0,000 mm 0,0 UV-I 12 W/m -3,1 C 3,2 C 14,5 km/h (3 Bft)
21.02.2018 19:30 3,7 C 3,7 C 3,7 C 61 % 1019,1 hPa 0,0 l/m 6,9 km/h (2 Bft) O 84 0 min 0,000 mm 0,0 UV-I 12 W/m -3,1 C 3,2 C 11,3 km/h (2 Bft)
21.02.2018 19:28 3,7 C 3,7 C 3,7 C 61 % 1019,1 hPa 0,0 l/m 2,7 km/h (1 Bft) O 92 0 min 0,000 mm 0,0 UV-I 12 W/m -3,1 C 3,7 C 6,4 km/h (2 Bft)
21.02.2018 19:26 3,7 C 3,7 C 3,7 C 61 % 1019,0 hPa 0,0 l/m 3,3 km/h (1 Bft) O 82 0 min 0,000 mm 0,0 UV-I 12 W/m -3,1 C 3,7 C 11,3 km/h (2 Bft)
21.02.2018 19:24 3,7 C 3,7 C 3,7 C 61 % 1019,0 hPa 0,0 l/m 4,3 km/h (1 Bft) O-SO 109 0 min 0,000 mm 0,0 UV-I 12 W/m -3,1 C 3,7 C 11,3 km/h (2 Bft)
21.02.2018 19:22 3,7 C 3,7 C 3,7 C 61 % 1019,1 hPa 0,0 l/m 1,3 km/h (1 Bft) NO 49 0 min 0,000 mm 0,0 UV-I 12 W/m -3,1 C 3,7 C 4,8 km/h (1 Bft)
21.02.2018 19:20 3,7 C 3,7 C 3,7 C 61 % 1019,0 hPa 0,0 l/m 1,8 km/h (1 Bft) NO 44 0 min 0,000 mm 0,0 UV-I 12 W/m -3,1 C 3,7 C 9,7 km/h (2 Bft)
21.02.2018 19:18 3,7 C 3,7 C 3,7 C 61 % 1018,9 hPa 0,0 l/m 2,8 km/h (1 Bft) O 92 0 min 0,000 mm 0,0 UV-I 12 W/m -3,1 C 3,7 C 9,7 km/h (2 Bft)
21.02.2018 19:16 3,7 C 3,7 C 3,7 C 61 % 1019,1 hPa 0,0 l/m 4,1 km/h (1 Bft) O 93 0 min 0,000 mm 0,0 UV-I 12 W/m -3,1 C 3,7 C 6,4 km/h (2 Bft)
21.02.2018 19:14 3,7 C 3,7 C 3,7 C 61 % 1019,1 hPa 0,0 l/m 1,7 km/h (1 Bft) O 92 0 min 0,000 mm 0,0 UV-I 12 W/m -3,1 C 3,7 C 6,4 km/h (2 Bft)
21.02.2018 19:12 3,7 C 3,7 C 3,7 C 61 % 1019,1 hPa 0,0 l/m 3,7 km/h (1 Bft) O-NO 70 0 min 0,000 mm 0,0 UV-I 12 W/m -3,1 C 3,7 C 8,0 km/h (2 Bft)
21.02.2018 19:10 3,7 C 3,7 C 3,7 C 61 % 1019,0 hPa 0,0 l/m 4,8 km/h (1 Bft) O-NO 62 0 min 0,000 mm 0,0 UV-I 12 W/m -3,1 C 3,7 C 9,7 km/h (2 Bft)
21.02.2018 19:08 3,7 C 3,7 C 3,7 C 61 % 1019,0 hPa 0,0 l/m 3,5 km/h (1 Bft) NO 51 0 min 0,000 mm 0,0 UV-I 12 W/m -3,1 C 3,7 C 8,0 km/h (2 Bft)
21.02.2018 19:06 3,7 C 3,7 C 3,7 C 61 % 1019,1 hPa 0,0 l/m 2,4 km/h (1 Bft) O-NO 78 0 min 0,000 mm 0,0 UV-I 12 W/m -3,1 C 3,7 C 8,0 km/h (2 Bft)
21.02.2018 19:04 3,7 C 3,7 C 3,7 C 61 % 1019,1 hPa 0,0 l/m 0,7 km/h (0 Bft) O 83 0 min 0,000 mm 0,0 UV-I 12 W/m -3,1 C 3,7 C 3,2 km/h (1 Bft)
21.02.2018 19:02 3,7 C 3,7 C 3,7 C 61 % 1019,0 hPa 0,0 l/m 3,3 km/h (1 Bft) O 83 0 min 0,000 mm 0,0 UV-I 12 W/m -3,1 C 3,7 C 6,4 km/h (2 Bft)
21.02.2018 19:00 3,7 C 3,7 C 3,7 C 61 % 1019,0 hPa 0,0 l/m 3,6 km/h (1 Bft) O-NO 74 0 min 0,000 mm 0,0 UV-I 12 W/m -3,1 C 3,7 C 6,4 km/h (2 Bft)
21.02.2018 18:58 3,7 C 3,7 C 3,7 C 61 % 1019,0 hPa 0,0 l/m 3,1 km/h (1 Bft) O 90 0 min 0,000 mm 0,0 UV-I 12 W/m -3,1 C 3,7 C 9,7 km/h (2 Bft)
21.02.2018 18:56 3,7 C 3,7 C 3,7 C 61 % 1019,0 hPa 0,0 l/m 1,4 km/h (1 Bft) O-NO 59 0 min 0,000 mm 0,0 UV-I 12 W/m -3,1 C 3,7 C 6,4 km/h (2 Bft)
21.02.2018 18:54 3,7 C 3,7 C 3,7 C 61 % 1019,0 hPa 0,0 l/m 3,3 km/h (1 Bft) O-NO 57 0 min 0,000 mm 0,0 UV-I 12 W/m -3,1 C 3,7 C 9,7 km/h (2 Bft)
21.02.2018 18:52 3,7 C 3,7 C 3,7 C 61 % 1019,0 hPa 0,0 l/m 5,6 km/h (2 Bft) O 96 0 min 0,000 mm 0,0 UV-I 12 W/m -3,1 C 3,7 C 9,7 km/h (2 Bft)
21.02.2018 18:50 3,7 C 3,7 C 3,7 C 61 % 1018,9 hPa 0,0 l/m 5,2 km/h (1 Bft) NO 34 0 min 0,000 mm 0,0 UV-I 12 W/m -3,1 C 3,7 C 11,3 km/h (2 Bft)
21.02.2018 18:48 3,7 C 3,7 C 3,7 C 61 % 1018,9 hPa 0,0 l/m 5,1 km/h (1 Bft) O 92 0 min 0,000 mm 0,0 UV-I 12 W/m -3,1 C 3,7 C 14,5 km/h (3 Bft)
21.02.2018 18:46 3,7 C 3,7 C 3,7 C 61 % 1018,9 hPa 0,0 l/m 2,7 km/h (1 Bft) O 87 0 min 0,000 mm 0,0 UV-I 12 W/m -3,1 C 3,7 C 6,4 km/h (2 Bft)
21.02.2018 18:44 3,7 C 3,7 C 3,7 C 61 % 1018,9 hPa 0,0 l/m 6,6 km/h (2 Bft) O 94 0 min 0,000 mm 0,0 UV-I 12 W/m -3,1 C 3,5 C 11,3 km/h (2 Bft)
21.02.2018 18:42 3,7 C 3,7 C 3,7 C 61 % 1018,9 hPa 0,0 l/m 5,9 km/h (2 Bft) O 80 0 min 0,000 mm 0,0 UV-I 12 W/m -3,1 C 3,7 C 9,7 km/h (2 Bft)
21.02.2018 18:40 3,7 C 3,7 C 3,7 C 61 % 1018,9 hPa 0,0 l/m 6,2 km/h (2 Bft) O 89 0 min 0,000 mm 0,0 UV-I 12 W/m -3,1 C 3,7 C 11,3 km/h (2 Bft)
21.02.2018 18:38 3,7 C 3,7 C 3,7 C 61 % 1018,9 hPa 0,0 l/m 4,3 km/h (1 Bft) O 84 0 min 0,000 mm 0,0 UV-I 12 W/m -3,1 C 3,7 C 8,0 km/h (2 Bft)
21.02.2018 18:36 3,7 C 3,7 C 3,7 C 61 % 1018,9 hPa 0,0 l/m 3,2 km/h (1 Bft) O-NO 78 0 min 0,000 mm 0,0 UV-I 12 W/m -3,1 C 3,7 C 6,4 km/h (2 Bft)
21.02.2018 18:34 3,7 C 3,7 C 3,7 C 61 % 1018,9 hPa 0,0 l/m 5,8 km/h (2 Bft) O 90 0 min 0,000 mm 0,0 UV-I 12 W/m -3,1 C 3,7 C 11,3 km/h (2 Bft)
21.02.2018 18:32 3,7 C 3,7 C 3,7 C 61 % 1018,9 hPa 0,0 l/m 4,8 km/h (1 Bft) O 82 0 min 0,000 mm 0,0 UV-I 12 W/m -3,1 C 3,7 C 11,3 km/h (2 Bft)
21.02.2018 18:30 3,7 C 3,7 C 3,7 C 61 % 1018,8 hPa 0,0 l/m 4,1 km/h (1 Bft) O-NO 72 0 min 0,000 mm 0,0 UV-I 12 W/m -3,1 C 3,7 C 8,0 km/h (2 Bft)
21.02.2018 18:28 3,7 C 3,7 C 3,7 C 61 % 1018,8 hPa 0,0 l/m 7,8 km/h (2 Bft) NO 50 0 min 0,000 mm 0,0 UV-I 12 W/m -3,1 C 2,4 C 17,7 km/h (3 Bft)
21.02.2018 18:26 3,7 C 3,7 C 3,7 C 61 % 1018,8 hPa 0,0 l/m 3,6 km/h (1 Bft) O 96 0 min 0,000 mm 0,0 UV-I 12 W/m -3,1 C 3,7 C 9,7 km/h (2 Bft)
21.02.2018 18:24 3,7 C 3,7 C 3,7 C 61 % 1018,8 hPa 0,0 l/m 3,7 km/h (1 Bft) O 84 0 min 0,000 mm 0,0 UV-I 12 W/m -3,1 C 3,7 C 14,5 km/h (3 Bft)
21.02.2018 18:22 3,7 C 3,7 C 3,7 C 61 % 1018,7 hPa 0,0 l/m 5,4 km/h (2 Bft) O-NO 60 0 min 0,000 mm 0,0 UV-I 12 W/m -3,1 C 3,7 C 11,3 km/h (2 Bft)
21.02.2018 18:20 3,7 C 3,7 C 3,7 C 61 % 1018,7 hPa 0,0 l/m 7,4 km/h (2 Bft) O 82 0 min 0,000 mm 0,0 UV-I 12 W/m -3,1 C 2,8 C 11,3 km/h (2 Bft)
21.02.2018 18:18 3,7 C 3,7 C 3,7 C 61 % 1018,7 hPa 0,0 l/m 5,2 km/h (1 Bft) O 82 0 min 0,000 mm 0,0 UV-I 12 W/m -3,1 C 3,7 C 11,3 km/h (2 Bft)
21.02.2018 18:16 3,7 C 3,7 C 3,7 C 61 % 1018,6 hPa 0,0 l/m 6,3 km/h (2 Bft) O-NO 59 0 min 0,000 mm 0,0 UV-I 12 W/m -3,1 C 3,7 C 11,3 km/h (2 Bft)
21.02.2018 18:14 3,7 C 3,7 C 3,7 C 61 % 1018,7 hPa 0,0 l/m 4,9 km/h (1 Bft) O 80 0 min 0,000 mm 0,0 UV-I 12 W/m -3,1 C 3,7 C 11,3 km/h (2 Bft)
21.02.2018 18:12 3,7 C 3,7 C 3,7 C 61 % 1018,6 hPa 0,0 l/m 5,3 km/h (1 Bft) O-SO 103 0 min 0,000 mm 0,0 UV-I 12 W/m -3,1 C 3,7 C 11,3 km/h (2 Bft)
21.02.2018 18:10 3,7 C 3,7 C 3,7 C 61 % 1018,6 hPa 0,0 l/m 6,6 km/h (2 Bft) NO 50 0 min 0,000 mm 0,0 UV-I 12 W/m -3,1 C 3,5 C 16,1 km/h (3 Bft)
21.02.2018 18:08 3,7 C 3,7 C 3,7 C 61 % 1018,6 hPa 0,0 l/m 5,2 km/h (1 Bft) O-NO 63 0 min 0,000 mm 0,0 UV-I 12 W/m -3,1 C 3,7 C 9,7 km/h (2 Bft)
21.02.2018 18:06 3,7 C 3,7 C 3,7 C 61 % 1018,6 hPa 0,0 l/m 3,3 km/h (1 Bft) O 87 0 min 0,000 mm 0,0 UV-I 12 W/m -3,1 C 3,7 C 6,4 km/h (2 Bft)
21.02.2018 18:04 3,7 C 3,7 C 3,7 C 61 % 1018,6 hPa 0,0 l/m 4,1 km/h (1 Bft) O 87 0 min 0,000 mm 0,0 UV-I 12 W/m -3,1 C 3,7 C 8,0 km/h (2 Bft)
21.02.2018 18:02 3,7 C 3,7 C 3,7 C 61 % 1018,5 hPa 0,0 l/m 3,0 km/h (1 Bft) O-NO 72 0 min 0,000 mm 0,0 UV-I 12 W/m -3,1 C 3,7 C 6,4 km/h (2 Bft)
21.02.2018 18:00 3,7 C 3,7 C 3,7 C 61 % 1018,5 hPa 0,0 l/m 5,6 km/h (2 Bft) O-NO 63 0 min 0,000 mm 0,0 UV-I 12 W/m -3,1 C 3,7 C 9,7 km/h (2 Bft)
21.02.2018 17:58 3,7 C 3,7 C 3,7 C 61 % 1018,5 hPa 0,0 l/m 6,4 km/h (2 Bft) O 93 0 min 0,000 mm 0,0 UV-I 12 W/m -3,1 C 3,7 C 9,7 km/h (2 Bft)
21.02.2018 17:56 3,7 C 3,7 C 3,7 C 61 % 1018,5 hPa 0,0 l/m 5,1 km/h (1 Bft) O 80 0 min 0,000 mm 0,0 UV-I 12 W/m -3,1 C 3,7 C 9,7 km/h (2 Bft)
21.02.2018 17:54 3,7 C 3,7 C 3,7 C 61 % 1018,5 hPa 0,0 l/m 1,7 km/h (1 Bft) O 95 0 min 0,000 mm 0,0 UV-I 12 W/m -3,1 C 3,7 C 4,8 km/h (1 Bft)
21.02.2018 17:52 3,7 C 3,7 C 3,7 C 61 % 1018,5 hPa 0,0 l/m 4,7 km/h (1 Bft) O 94 0 min 0,000 mm 0,0 UV-I 12 W/m -3,1 C 3,7 C 9,7 km/h (2 Bft)
21.02.2018 17:50 3,7 C 3,7 C 3,7 C 61 % 1018,5 hPa 0,0 l/m 7,1 km/h (2 Bft) O-NO 67 0 min 0,051 mm 0,0 UV-I 12 W/m -3,1 C 3,1 C 16,1 km/h (3 Bft)
21.02.2018 17:48 3,7 C 3,7 C 3,7 C 61 % 1018,4 hPa 0,0 l/m 5,9 km/h (2 Bft) O-NO 71 0 min 0,000 mm 0,0 UV-I 12 W/m -3,1 C 3,7 C 17,7 km/h (3 Bft)
21.02.2018 17:46 3,7 C 3,7 C 3,7 C 61 % 1018,5 hPa 0,0 l/m 3,7 km/h (1 Bft) O 90 2 min 0,000 mm 0,0 UV-I 12 W/m -3,1 C 3,7 C 8,0 km/h (2 Bft)
21.02.2018 17:44 3,7 C 3,7 C 3,7 C 61 % 1018,4 hPa 0,0 l/m 6,5 km/h (2 Bft) O-NO 71 2 min 0,000 mm 0,0 UV-I 12 W/m -3,1 C 3,6 C 9,7 km/h (2 Bft)
21.02.2018 17:42 3,7 C 3,7 C 3,8 C 61 % 1018,4 hPa 0,0 l/m 6,8 km/h (2 Bft) O 84 0 min 0,000 mm 0,0 UV-I 13 W/m -3,1 C 3,3 C 9,7 km/h (2 Bft)
21.02.2018 17:40 3,8 C 3,8 C 3,9 C 61 % 1018,3 hPa 0,0 l/m 5,6 km/h (2 Bft) O 88 0 min 0,000 mm 0,0 UV-I 15 W/m -3,0 C 3,8 C 11,3 km/h (2 Bft)
21.02.2018 17:38 3,9 C 3,9 C 4,0 C 61 % 1018,4 hPa 0,0 l/m 3,3 km/h (1 Bft) O-NO 74 0 min 0,000 mm 0,0 UV-I 16 W/m -2,9 C 3,9 C 4,8 km/h (1 Bft)
21.02.2018 17:36 4,0 C 4,0 C 4,1 C 61 % 1018,3 hPa 0,0 l/m 5,1 km/h (1 Bft) O 81 0 min 0,000 mm 0,0 UV-I 18 W/m -2,8 C 4,0 C 9,7 km/h (2 Bft)
21.02.2018 17:34 4,1 C 4,1 C 4,1 C 60 % 1018,4 hPa 0,0 l/m 4,6 km/h (1 Bft) O 81 0 min 0,000 mm 0,0 UV-I 19 W/m -3,0 C 4,1 C 9,7 km/h (2 Bft)
21.02.2018 17:32 4,1 C 4,1 C 4,2 C 60 % 1018,4 hPa 0,0 l/m 5,8 km/h (2 Bft) O 86 0 min 0,000 mm 0,0 UV-I 20 W/m -3,0 C 4,1 C 12,9 km/h (3 Bft)
21.02.2018 17:30 4,2 C 4,2 C 4,3 C 60 % 1018,3 hPa 0,0 l/m 4,3 km/h (1 Bft) O 82 0 min 0,000 mm 0,0 UV-I 21 W/m -2,9 C 4,2 C 9,7 km/h (2 Bft)
21.02.2018 17:28 4,3 C 4,3 C 4,3 C 59 % 1018,3 hPa 0,0 l/m 5,9 km/h (2 Bft) O 96 0 min 0,000 mm 0,0 UV-I 23 W/m -3,0 C 4,3 C 11,3 km/h (2 Bft)
21.02.2018 17:26 4,3 C 4,3 C 4,4 C 59 % 1018,4 hPa 0,0 l/m 5,9 km/h (2 Bft) O 86 0 min 0,000 mm 0,0 UV-I 25 W/m -3,0 C 4,3 C 9,7 km/h (2 Bft)
21.02.2018 17:24 4,4 C 4,4 C 4,4 C 59 % 1018,4 hPa 0,0 l/m 5,0 km/h (1 Bft) O-SO 105 0 min 0,000 mm 0,0 UV-I 27 W/m -2,9 C 4,4 C 9,7 km/h (2 Bft)
21.02.2018 17:22 4,4 C 4,4 C 4,5 C 59 % 1018,4 hPa 0,0 l/m 4,1 km/h (1 Bft) O 92 0 min 0,000 mm 0,0 UV-I 29 W/m -2,9 C 4,4 C 9,7 km/h (2 Bft)
21.02.2018 17:20 4,5 C 4,5 C 4,6 C 59 % 1018,4 hPa 0,0 l/m 6,2 km/h (2 Bft) O 98 0 min 0,000 mm 0,0 UV-I 31 W/m -2,8 C 4,5 C 11,3 km/h (2 Bft)
21.02.2018 17:18 4,6 C 4,6 C 4,7 C 59 % 1018,3 hPa 0,0 l/m 3,7 km/h (1 Bft) O 95 0 min 0,000 mm 0,0 UV-I 33 W/m -2,7 C 4,6 C 9,7 km/h (2 Bft)
21.02.2018 17:16 4,7 C 4,6 C 4,7 C 59 % 1018,3 hPa 0,0 l/m 2,9 km/h (1 Bft) O-NO 68 0 min 0,000 mm 0,0 UV-I 34 W/m -2,6 C 4,7 C 6,4 km/h (2 Bft)
21.02.2018 17:14 4,7 C 4,7 C 4,7 C 58 % 1018,3 hPa 0,0 l/m 4,9 km/h (1 Bft) O-NO 66 0 min 0,000 mm 0,0 UV-I 36 W/m -2,8 C 4,7 C 8,0 km/h (2 Bft)
21.02.2018 17:12 4,7 C 4,7 C 4,8 C 58 % 1018,3 hPa 0,0 l/m 7,8 km/h (2 Bft) O 85 0 min 0,000 mm 0,0 UV-I 52 W/m -2,8 C 3,5 C 14,5 km/h (3 Bft)
21.02.2018 17:10 4,8 C 4,8 C 4,8 C 59 % 1018,3 hPa 0,0 l/m 4,0 km/h (1 Bft) O-NO 78 2 min 0,000 mm 0,0 UV-I 66 W/m -2,5 C 4,8 C 6,4 km/h (2 Bft)
21.02.2018 17:08 4,8 C 4,8 C 4,8 C 59 % 1018,3 hPa 0,0 l/m 5,1 km/h (1 Bft) O 98 2 min 0,000 mm 0,0 UV-I 71 W/m -2,5 C 4,8 C 9,7 km/h (2 Bft)
21.02.2018 17:06 4,8 C 4,8 C 4,9 C 59 % 1018,3 hPa 0,0 l/m 5,8 km/h (2 Bft) O-NO 78 2 min 0,000 mm 0,0 UV-I 68 W/m -2,5 C 4,8 C 11,3 km/h (2 Bft)
21.02.2018 17:04 4,9 C 4,9 C 4,9 C 59 % 1018,3 hPa 0,0 l/m 7,8 km/h (2 Bft) O 80 2 min 0,000 mm 0,0 UV-I 70 W/m -2,4 C 3,7 C 16,1 km/h (3 Bft)
21.02.2018 17:02 4,9 C 4,9 C 4,9 C 59 % 1018,3 hPa 0,0 l/m 3,8 km/h (1 Bft) O 86 2 min 0,000 mm 0,0 UV-I 80 W/m -2,4 C 4,9 C 9,7 km/h (2 Bft)
21.02.2018 17:00 4,9 C 4,9 C 4,9 C 59 % 1018,3 hPa 0,0 l/m 7,5 km/h (2 Bft) O 94 2 min 0,000 mm 0,0 UV-I 78 W/m -2,4 C 3,9 C 11,3 km/h (2 Bft)
21.02.2018 16:58 4,9 C 4,9 C 5,0 C 59 % 1018,3 hPa 0,0 l/m 5,4 km/h (2 Bft) O 79 0 min 0,000 mm 0,0 UV-I 60 W/m -2,4 C 4,9 C 9,7 km/h (2 Bft)
21.02.2018 16:56 4,9 C 4,9 C 5,0 C 59 % 1018,3 hPa 0,0 l/m 4,6 km/h (1 Bft) O-NO 76 0 min 0,000 mm 0,0 UV-I 51 W/m -2,4 C 4,9 C 8,0 km/h (2 Bft)
21.02.2018 16:54 4,9 C 4,9 C 4,9 C 59 % 1018,4 hPa 0,0 l/m 4,4 km/h (1 Bft) O-SO 104 0 min 0,000 mm 0,0 UV-I 70 W/m -2,4 C 4,9 C 9,7 km/h (2 Bft)
21.02.2018 16:52 4,9 C 4,9 C 4,9 C 59 % 1018,3 hPa 0,0 l/m 4,2 km/h (1 Bft) O 80 0 min 0,000 mm 0,0 UV-I 69 W/m -2,4 C 4,9 C 8,0 km/h (2 Bft)
21.02.2018 16:50 4,9 C 4,9 C 4,9 C 59 % 1018,3 hPa 0,0 l/m 5,8 km/h (2 Bft) O 87 0 min 0,102 mm 0,0 UV-I 72 W/m -2,4 C 4,9 C 9,7 km/h (2 Bft)
21.02.2018 16:48 4,9 C 4,9 C 5,0 C 58 % 1018,3 hPa 0,0 l/m 6,4 km/h (2 Bft) NO 52 2 min 0,000 mm 0,0 UV-I 110 W/m -2,7 C 4,9 C 11,3 km/h (2 Bft)
21.02.2018 16:46 5,0 C 5,0 C 5,1 C 58 % 1018,3 hPa 0,0 l/m 7,4 km/h (2 Bft) O-NO 59 2 min 0,000 mm 0,0 UV-I 135 W/m -2,6 C 4,1 C 11,3 km/h (2 Bft)
21.02.2018 16:44 5,1 C 5,0 C 5,1 C 59 % 1018,3 hPa 0,0 l/m 6,8 km/h (2 Bft) O 88 2 min 0,000 mm 0,0 UV-I 142 W/m -2,2 C 4,8 C 11,3 km/h (2 Bft)
21.02.2018 16:42 5,1 C 5,1 C 5,1 C 58 % 1018,4 hPa 0,0 l/m 5,8 km/h (2 Bft) O-SO 104 2 min 0,000 mm 0,0 UV-I 147 W/m -2,5 C 5,1 C 9,7 km/h (2 Bft)
21.02.2018 16:40 5,1 C 5,1 C 5,1 C 58 % 1018,3 hPa 0,0 l/m 3,2 km/h (1 Bft) O 84 2 min 0,000 mm 0,0 UV-I 141 W/m -2,5 C 5,1 C 8,0 km/h (2 Bft)
21.02.2018 16:38 5,1 C 5,1 C 5,2 C 58 % 1018,3 hPa 0,0 l/m 8,6 km/h (2 Bft) O 82 2 min 0,000 mm 0,0 UV-I 151 W/m -2,5 C 3,2 C 14,5 km/h (3 Bft)
21.02.2018 16:36 5,2 C 5,2 C 5,2 C 58 % 1018,3 hPa 0,0 l/m 5,5 km/h (2 Bft) O-NO 70 2 min 0,000 mm 0,0 UV-I 167 W/m -2,4 C 5,2 C 9,7 km/h (2 Bft)
21.02.2018 16:34 5,2 C 5,2 C 5,2 C 59 % 1018,3 hPa 0,0 l/m 7,4 km/h (2 Bft) NO 35 2 min 0,000 mm 0,0 UV-I 174 W/m -2,1 C 4,3 C 17,7 km/h (3 Bft)
21.02.2018 16:32 5,2 C 5,2 C 5,2 C 60 % 1018,3 hPa 0,0 l/m 6,8 km/h (2 Bft) NO 54 2 min 0,000 mm 0,0 UV-I 180 W/m -1,9 C 4,9 C 16,1 km/h (3 Bft)
21.02.2018 16:30 5,2 C 5,2 C 5,2 C 60 % 1018,3 hPa 0,0 l/m 4,7 km/h (1 Bft) O 84 2 min 0,000 mm 0,2 UV-I 185 W/m -1,9 C 5,2 C 9,7 km/h (2 Bft)
21.02.2018 16:28 5,2 C 5,2 C 5,3 C 59 % 1018,3 hPa 0,0 l/m 4,3 km/h (1 Bft) O-NO 76 2 min 0,000 mm 0,5 UV-I 190 W/m -2,1 C 5,2 C 9,7 km/h (2 Bft)
21.02.2018 16:26 5,3 C 5,2 C 5,3 C 59 % 1018,4 hPa 0,0 l/m 6,4 km/h (2 Bft) O 83 2 min 0,000 mm 0,5 UV-I 198 W/m -2,0 C 5,3 C 11,3 km/h (2 Bft)
21.02.2018 16:24 5,3 C 5,3 C 5,3 C 58 % 1018,3 hPa 0,0 l/m 9,1 km/h (2 Bft) O-SO 104 2 min 0,000 mm 0,5 UV-I 205 W/m -2,3 C 3,1 C 17,7 km/h (3 Bft)
21.02.2018 16:22 5,3 C 5,3 C 5,4 C 58 % 1018,4 hPa 0,0 l/m 8,8 km/h (2 Bft) O 92 2 min 0,000 mm 0,5 UV-I 212 W/m -2,3 C 3,3 C 19,3 km/h (3 Bft)
21.02.2018 16:20 5,4 C 5,4 C 5,4 C 58 % 1018,4 hPa 0,0 l/m 8,5 km/h (2 Bft) NO 46 2 min 0,000 mm 0,5 UV-I 216 W/m -2,2 C 3,6 C 14,5 km/h (3 Bft)
21.02.2018 16:18 5,4 C 5,4 C 5,4 C 60 % 1018,4 hPa 0,0 l/m 4,9 km/h (1 Bft) O 101 2 min 0,000 mm 0,5 UV-I 208 W/m -1,7 C 5,4 C 9,7 km/h (2 Bft)
21.02.2018 16:16 5,4 C 5,4 C 5,4 C 60 % 1018,4 hPa 0,0 l/m 5,1 km/h (1 Bft) O 82 2 min 0,000 mm 0,5 UV-I 186 W/m -1,7 C 5,4 C 9,7 km/h (2 Bft)
21.02.2018 16:14 5,4 C 5,4 C 5,4 C 60 % 1018,4 hPa 0,0 l/m 6,1 km/h (2 Bft) O-SO 114 2 min 0,000 mm 0,5 UV-I 158 W/m -1,7 C 5,4 C 11,3 km/h (2 Bft)
21.02.2018 16:12 5,4 C 5,4 C 5,4 C 60 % 1018,4 hPa 0,0 l/m 1,6 km/h (1 Bft) O 93 2 min 0,000 mm 0,6 UV-I 227 W/m -1,7 C 5,4 C 4,8 km/h (1 Bft)
21.02.2018 16:10 5,4 C 5,4 C 5,4 C 59 % 1018,4 hPa 0,0 l/m 5,2 km/h (1 Bft) O 94 2 min 0,000 mm 0,6 UV-I 236 W/m -2,0 C 5,4 C 9,7 km/h (2 Bft)
21.02.2018 16:08 5,4 C 5,4 C 5,4 C 59 % 1018,4 hPa 0,0 l/m 6,9 km/h (2 Bft) O-SO 114 2 min 0,000 mm 0,6 UV-I 245 W/m -2,0 C 5,0 C 14,5 km/h (3 Bft)
21.02.2018 16:06 5,4 C 5,4 C 5,4 C 60 % 1018,4 hPa 0,0 l/m 3,2 km/h (1 Bft) NO 53 2 min 0,000 mm 0,6 UV-I 247 W/m -1,7 C 5,4 C 6,4 km/h (2 Bft)
21.02.2018 16:04 5,4 C 5,4 C 5,4 C 59 % 1018,3 hPa 0,0 l/m 5,3 km/h (1 Bft) O-NO 69 2 min 0,000 mm 0,6 UV-I 251 W/m -2,0 C 5,4 C 14,5 km/h (3 Bft)
21.02.2018 16:02 5,4 C 5,4 C 5,4 C 59 % 1018,4 hPa 0,0 l/m 9,9 km/h (2 Bft) NO 37 2 min 0,000 mm 0,6 UV-I 255 W/m -2,0 C 2,6 C 17,7 km/h (3 Bft)
21.02.2018 16:00 5,4 C 5,4 C 5,5 C 58 % 1018,3 hPa 0,0 l/m 9,1 km/h (2 Bft) NO 51 2 min 0,000 mm 0,6 UV-I 262 W/m -2,2 C 3,2 C 17,7 km/h (3 Bft)
21.02.2018 15:58 5,5 C 5,5 C 5,6 C 59 % 1018,4 hPa 0,0 l/m 6,6 km/h (2 Bft) O-SO 115 2 min 0,000 mm 0,6 UV-I 266 W/m -1,9 C 5,3 C 11,3 km/h (2 Bft)
21.02.2018 15:56 5,6 C 5,6 C 5,6 C 60 % 1018,3 hPa 0,0 l/m 10,4 km/h (2 Bft) NO 51 2 min 0,000 mm 0,6 UV-I 267 W/m -1,5 C 2,5 C 22,5 km/h (4 Bft)
21.02.2018 15:54 5,6 C 5,6 C 5,6 C 60 % 1018,4 hPa 0,0 l/m 6,9 km/h (2 Bft) NO 44 2 min 0,000 mm 0,6 UV-I 266 W/m -1,5 C 5,2 C 16,1 km/h (3 Bft)
21.02.2018 15:52 5,6 C 5,6 C 5,7 C 59 % 1018,4 hPa 0,0 l/m 6,5 km/h (2 Bft) NO 54 2 min 0,000 mm 0,7 UV-I 270 W/m -1,8 C 5,5 C 11,3 km/h (2 Bft)
21.02.2018 15:50 5,7 C 5,7 C 5,7 C 59 % 1018,3 hPa 0,0 l/m 9,1 km/h (2 Bft) O 88 2 min 0,178 mm 0,7 UV-I 275 W/m -1,7 C 3,5 C 17,7 km/h (3 Bft)
21.02.2018 15:48 5,7 C 5,6 C 5,7 C 60 % 1018,4 hPa 0,0 l/m 5,0 km/h (1 Bft) O 80 2 min 0,000 mm 0,7 UV-I 277 W/m -1,4 C 5,7 C 9,7 km/h (2 Bft)
21.02.2018 15:46 5,6 C 5,6 C 5,6 C 60 % 1018,4 hPa 0,0 l/m 6,9 km/h (2 Bft) O-NO 76 2 min 0,000 mm 0,7 UV-I 279 W/m -1,5 C 5,2 C 11,3 km/h (2 Bft)
21.02.2018 15:44 5,6 C 5,6 C 5,6 C 59 % 1018,4 hPa 0,0 l/m 7,8 km/h (2 Bft) O-NO 78 2 min 0,000 mm 0,7 UV-I 287 W/m -1,8 C 4,4 C 14,5 km/h (3 Bft)
21.02.2018 15:42 5,6 C 5,6 C 5,7 C 59 % 1018,4 hPa 0,0 l/m 11,9 km/h (2 Bft) O-NO 78 2 min 0,000 mm 0,7 UV-I 288 W/m -1,8 C 1,5 C 17,7 km/h (3 Bft)
21.02.2018 15:40 5,7 C 5,7 C 5,7 C 59 % 1018,5 hPa 0,0 l/m 10,7 km/h (2 Bft) O-NO 65 2 min 0,000 mm 0,7 UV-I 293 W/m -1,7 C 2,4 C 20,9 km/h (4 Bft)
21.02.2018 15:38 5,7 C 5,6 C 5,7 C 59 % 1018,4 hPa 0,0 l/m 7,1 km/h (2 Bft) O 86 2 min 0,000 mm 0,8 UV-I 297 W/m -1,7 C 5,1 C 17,7 km/h (3 Bft)
21.02.2018 15:36 5,7 C 5,7 C 5,7 C 58 % 1018,4 hPa 0,0 l/m 6,3 km/h (2 Bft) O-NO 75 2 min 0,000 mm 0,8 UV-I 296 W/m -1,9 C 5,7 C 11,3 km/h (2 Bft)
21.02.2018 15:34 5,7 C 5,7 C 5,7 C 58 % 1018,4 hPa 0,0 l/m 10,3 km/h (2 Bft) O-NO 78 2 min 0,000 mm 0,8 UV-I 308 W/m -1,9 C 2,6 C 20,9 km/h (4 Bft)
21.02.2018 15:32 5,7 C 5,7 C 5,7 C 59 % 1018,4 hPa 0,0 l/m 10,7 km/h (2 Bft) O-NO 61 2 min 0,000 mm 0,8 UV-I 318 W/m -1,7 C 2,4 C 17,7 km/h (3 Bft)
21.02.2018 15:30 5,7 C 5,7 C 5,8 C 57 % 1018,4 hPa 0,0 l/m 6,7 km/h (2 Bft) O 80 2 min 0,000 mm 0,8 UV-I 324 W/m -2,1 C 5,5 C 14,5 km/h (3 Bft)
21.02.2018 15:28 5,8 C 5,8 C 5,8 C 58 % 1018,4 hPa 0,0 l/m 9,9 km/h (2 Bft) O-NO 74 2 min 0,000 mm 0,8 UV-I 324 W/m -1,8 C 3,0 C 16,1 km/h (3 Bft)
21.02.2018 15:26 5,8 C 5,8 C 5,8 C 59 % 1018,4 hPa 0,0 l/m 11,4 km/h (2 Bft) O 79 2 min 0,000 mm 0,8 UV-I 331 W/m -1,6 C 2,0 C 19,3 km/h (3 Bft)
21.02.2018 15:24 5,8 C 5,8 C 5,8 C 58 % 1018,3 hPa 0,0 l/m 5,1 km/h (1 Bft) O 91 2 min 0,000 mm 0,9 UV-I 338 W/m -1,8 C 5,8 C 11,3 km/h (2 Bft)
21.02.2018 15:22 5,8 C 5,8 C 5,9 C 58 % 1018,4 hPa 0,0 l/m 7,9 km/h (2 Bft) O-NO 59 2 min 0,000 mm 0,9 UV-I 333 W/m -1,8 C 4,5 C 16,1 km/h (3 Bft)
21.02.2018 15:20 5,9 C 5,9 C 5,9 C 58 % 1018,4 hPa 0,0 l/m 9,3 km/h (2 Bft) O 79 2 min 0,000 mm 0,9 UV-I 329 W/m -1,7 C 3,6 C 19,3 km/h (3 Bft)
21.02.2018 15:18 5,9 C 5,9 C 6,0 C 57 % 1018,4 hPa 0,0 l/m 10,7 km/h (2 Bft) NO 34 2 min 0,000 mm 0,9 UV-I 331 W/m -2,0 C 2,6 C 17,7 km/h (3 Bft)
21.02.2018 15:16 5,9 C 5,9 C 6,0 C 58 % 1018,3 hPa 0,0 l/m 6,4 km/h (2 Bft) O 88 2 min 0,000 mm 0,9 UV-I 328 W/m -1,7 C 5,9 C 9,7 km/h (2 Bft)
21.02.2018 15:14 6,0 C 5,9 C 6,0 C 59 % 1018,4 hPa 0,0 l/m 11,3 km/h (2 Bft) O-SO 111 2 min 0,000 mm 0,9 UV-I 345 W/m -1,4 C 2,3 C 17,7 km/h (3 Bft)
21.02.2018 15:12 6,0 C 6,0 C 6,1 C 59 % 1018,4 hPa 0,0 l/m 9,1 km/h (2 Bft) O-NO 78 2 min 0,000 mm 0,9 UV-I 351 W/m -1,4 C 3,8 C 17,7 km/h (3 Bft)
21.02.2018 15:10 6,1 C 6,1 C 6,2 C 58 % 1018,4 hPa 0,0 l/m 9,6 km/h (2 Bft) NO 40 2 min 0,000 mm 1,0 UV-I 363 W/m -1,5 C 3,6 C 19,3 km/h (3 Bft)
21.02.2018 15:08 6,2 C 6,2 C 6,2 C 58 % 1018,3 hPa 0,0 l/m 9,9 km/h (2 Bft) O 94 2 min 0,000 mm 1,0 UV-I 358 W/m -1,4 C 3,5 C 20,9 km/h (4 Bft)
21.02.2018 15:06 6,2 C 6,2 C 6,3 C 57 % 1018,3 hPa 0,0 l/m 8,4 km/h (2 Bft) O 98 2 min 0,000 mm 1,0 UV-I 361 W/m -1,7 C 4,6 C 19,3 km/h (3 Bft)
21.02.2018 15:04 6,3 C 6,3 C 6,3 C 57 % 1018,5 hPa 0,0 l/m 7,8 km/h (2 Bft) O 80 2 min 0,000 mm 1,0 UV-I 374 W/m -1,6 C 5,1 C 14,5 km/h (3 Bft)
21.02.2018 15:02 6,3 C 6,3 C 6,4 C 57 % 1018,4 hPa 0,0 l/m 6,2 km/h (2 Bft) NO 51 2 min 0,000 mm 1,0 UV-I 380 W/m -1,6 C 6,3 C 9,7 km/h (2 Bft)
21.02.2018 15:00 6,3 C 6,3 C 6,3 C 57 % 1018,6 hPa 0,0 l/m 6,8 km/h (2 Bft) O 84 2 min 0,000 mm 1,0 UV-I 381 W/m -1,6 C 6,0 C 11,3 km/h (2 Bft)
21.02.2018 14:58 6,3 C 6,3 C 6,4 C 57 % 1018,6 hPa 0,0 l/m 6,6 km/h (2 Bft) O-NO 63 2 min 0,000 mm 1,1 UV-I 386 W/m -1,6 C 6,2 C 11,3 km/h (2 Bft)
21.02.2018 14:56 6,4 C 6,4 C 6,4 C 61 % 1018,5 hPa 0,0 l/m 6,8 km/h (2 Bft) O 94 2 min 0,000 mm 1,1 UV-I 381 W/m -0,6 C 6,1 C 14,5 km/h (3 Bft)
21.02.2018 14:54 6,4 C 6,4 C 6,5 C 57 % 1018,6 hPa 0,0 l/m 7,9 km/h (2 Bft) O 91 2 min 0,000 mm 1,1 UV-I 378 W/m -1,5 C 5,2 C 14,5 km/h (3 Bft)
21.02.2018 14:52 6,4 C 6,4 C 6,5 C 58 % 1018,5 hPa 0,0 l/m 6,2 km/h (2 Bft) O 87 2 min 0,000 mm 1,1 UV-I 378 W/m -1,2 C 6,4 C 12,9 km/h (3 Bft)
21.02.2018 14:50 6,4 C 6,3 C 6,4 C 58 % 1018,6 hPa 0,0 l/m 3,8 km/h (1 Bft) O 98 2 min 0,203 mm 1,1 UV-I 384 W/m -1,2 C 6,4 C 8,0 km/h (2 Bft)
21.02.2018 14:48 6,3 C 6,3 C 6,3 C 59 % 1018,6 hPa 0,0 l/m 4,0 km/h (1 Bft) O-NO 70 2 min 0,000 mm 1,1 UV-I 398 W/m -1,1 C 6,3 C 11,3 km/h (2 Bft)
21.02.2018 14:46 6,3 C 6,3 C 6,3 C 59 % 1018,6 hPa 0,0 l/m 6,5 km/h (2 Bft) O 97 2 min 0,000 mm 1,1 UV-I 401 W/m -1,1 C 6,2 C 11,3 km/h (2 Bft)
21.02.2018 14:44 6,3 C 6,3 C 6,4 C 57 % 1018,6 hPa 0,0 l/m 8,6 km/h (2 Bft) N-NO 33 2 min 0,000 mm 1,1 UV-I 404 W/m -1,6 C 4,5 C 14,5 km/h (3 Bft)
21.02.2018 14:42 6,4 C 6,4 C 6,4 C 57 % 1018,6 hPa 0,0 l/m 8,4 km/h (2 Bft) O-NO 61 2 min 0,000 mm 1,2 UV-I 406 W/m -1,5 C 4,8 C 14,5 km/h (3 Bft)
21.02.2018 14:40 6,4 C 6,3 C 6,4 C 56 % 1018,7 hPa 0,0 l/m 10,4 km/h (2 Bft) O-NO 62 2 min 0,000 mm 1,2 UV-I 415 W/m -1,7 C 3,4 C 16,1 km/h (3 Bft)
21.02.2018 14:38 6,3 C 6,2 C 6,4 C 58 % 1018,7 hPa 0,0 l/m 10,1 km/h (2 Bft) NO 45 2 min 0,000 mm 1,2 UV-I 422 W/m -1,3 C 3,4 C 19,3 km/h (3 Bft)
21.02.2018 14:36 6,2 C 6,1 C 6,2 C 59 % 1018,7 hPa 0,0 l/m 6,7 km/h (2 Bft) O 101 2 min 0,000 mm 1,2 UV-I 427 W/m -1,2 C 6,0 C 14,5 km/h (3 Bft)
21.02.2018 14:34 6,1 C 6,0 C 6,1 C 57 % 1018,7 hPa 0,0 l/m 7,6 km/h (2 Bft) O-NO 63 2 min 0,000 mm 1,2 UV-I 420 W/m -1,8 C 5,1 C 16,1 km/h (3 Bft)
21.02.2018 14:32 6,0 C 5,9 C 6,0 C 58 % 1018,7 hPa 0,0 l/m 9,4 km/h (2 Bft) O-SO 107 2 min 0,000 mm 1,2 UV-I 422 W/m -1,6 C 3,6 C 20,9 km/h (4 Bft)
21.02.2018 14:30 5,9 C 5,9 C 5,9 C 58 % 1018,7 hPa 0,0 l/m 6,6 km/h (2 Bft) O 89 2 min 0,000 mm 1,3 UV-I 425 W/m -1,7 C 5,8 C 11,3 km/h (2 Bft)
21.02.2018 14:28 5,9 C 5,8 C 5,9 C 59 % 1018,7 hPa 0,0 l/m 8,4 km/h (2 Bft) O-NO 65 2 min 0,000 mm 1,3 UV-I 432 W/m -1,5 C 4,2 C 14,5 km/h (3 Bft)
21.02.2018 14:26 5,8 C 5,8 C 5,8 C 58 % 1018,7 hPa 0,0 l/m 6,8 km/h (2 Bft) O-NO 76 2 min 0,000 mm 1,3 UV-I 433 W/m -1,8 C 5,5 C 14,5 km/h (3 Bft)
21.02.2018 14:24 5,8 C 5,8 C 5,9 C 59 % 1018,7 hPa 0,0 l/m 10,3 km/h (2 Bft) O-NO 73 2 min 0,000 mm 1,3 UV-I 435 W/m -1,6 C 2,8 C 22,5 km/h (4 Bft)
21.02.2018 14:22 5,9 C 5,9 C 6,1 C 59 % 1018,7 hPa 0,0 l/m 7,4 km/h (2 Bft) N-NO 28 2 min 0,000 mm 1,3 UV-I 428 W/m -1,5 C 5,0 C 14,5 km/h (3 Bft)
21.02.2018 14:20 6,1 C 6,1 C 6,2 C 59 % 1018,8 hPa 0,0 l/m 7,8 km/h (2 Bft) NO 53 2 min 0,000 mm 1,3 UV-I 443 W/m -1,3 C 4,9 C 16,1 km/h (3 Bft)
21.02.2018 14:18 6,2 C 6,2 C 6,3 C 58 % 1018,8 hPa 0,0 l/m 11,2 km/h (2 Bft) NO 53 2 min 0,000 mm 1,3 UV-I 446 W/m -1,4 C 2,6 C 17,7 km/h (3 Bft)
21.02.2018 14:16 6,2 C 6,2 C 6,2 C 59 % 1018,7 hPa 0,0 l/m 5,6 km/h (2 Bft) O-NO 66 2 min 0,000 mm 1,3 UV-I 448 W/m -1,2 C 6,2 C 12,9 km/h (3 Bft)
21.02.2018 14:14 6,2 C 6,1 C 6,2 C 60 % 1018,8 hPa 0,0 l/m 3,7 km/h (1 Bft) O-NO 59 2 min 0,000 mm 1,3 UV-I 448 W/m -1,0 C 6,2 C 11,3 km/h (2 Bft)
21.02.2018 14:12 6,1 C 6,1 C 6,1 C 59 % 1018,8 hPa 0,0 l/m 10,8 km/h (2 Bft) O 90 2 min 0,000 mm 1,4 UV-I 456 W/m -1,3 C 2,8 C 17,7 km/h (3 Bft)
21.02.2018 14:10 6,1 C 6,0 C 6,1 C 59 % 1018,8 hPa 0,0 l/m 10,9 km/h (2 Bft) O-SO 109 2 min 0,000 mm 1,4 UV-I 454 W/m -1,3 C 2,7 C 16,1 km/h (3 Bft)
21.02.2018 14:08 6,0 C 6,0 C 6,0 C 58 % 1018,8 hPa 0,0 l/m 6,9 km/h (2 Bft) O 101 2 min 0,000 mm 1,4 UV-I 456 W/m -1,6 C 5,6 C 16,1 km/h (3 Bft)
21.02.2018 14:06 6,0 C 6,0 C 6,1 C 59 % 1018,9 hPa 0,0 l/m 9,7 km/h (2 Bft) O 87 2 min 0,000 mm 1,4 UV-I 460 W/m -1,4 C 3,4 C 16,1 km/h (3 Bft)
21.02.2018 14:04 6,0 C 5,9 C 6,0 C 60 % 1018,9 hPa 0,0 l/m 9,4 km/h (2 Bft) O 94 2 min 0,000 mm 1,4 UV-I 464 W/m -1,2 C 3,6 C 17,7 km/h (3 Bft)
21.02.2018 14:02 5,9 C 5,8 C 5,9 C 59 % 1018,8 hPa 0,0 l/m 9,4 km/h (2 Bft) O 98 2 min 0,000 mm 1,4 UV-I 461 W/m -1,5 C 3,5 C 14,5 km/h (3 Bft)
21.02.2018 14:00 5,8 C 5,8 C 5,8 C 60 % 1018,9 hPa 0,0 l/m 5,7 km/h (2 Bft) W-NW 302 2 min 0,000 mm 1,4 UV-I 475 W/m -1,4 C 5,8 C 9,7 km/h (2 Bft)
21.02.2018 13:58 5,8 C 5,7 C 5,8 C 61 % 1018,8 hPa 0,0 l/m 4,1 km/h (1 Bft) NO 46 2 min 0,000 mm 1,5 UV-I 479 W/m -1,1 C 5,8 C 9,7 km/h (2 Bft)
21.02.2018 13:56 5,7 C 5,7 C 5,7 C 61 % 1018,8 hPa 0,0 l/m 7,5 km/h (2 Bft) O 90 2 min 0,000 mm 1,5 UV-I 483 W/m -1,2 C 4,8 C 14,5 km/h (3 Bft)
21.02.2018 13:54 5,7 C 5,6 C 5,7 C 59 % 1018,9 hPa 0,0 l/m 9,8 km/h (2 Bft) O-NO 63 2 min 0,000 mm 1,5 UV-I 480 W/m -1,7 C 3,0 C 17,7 km/h (3 Bft)
21.02.2018 13:52 5,6 C 5,6 C 5,7 C 59 % 1019,0 hPa 0,0 l/m 5,2 km/h (1 Bft) O 84 2 min 0,000 mm 1,5 UV-I 481 W/m -1,8 C 5,6 C 9,7 km/h (2 Bft)
21.02.2018 13:50 5,7 C 5,7 C 5,7 C 59 % 1019,1 hPa 0,0 l/m 10,4 km/h (2 Bft) O-NO 65 2 min 0,228 mm 1,5 UV-I 472 W/m -1,7 C 2,6 C 16,1 km/h (3 Bft)
21.02.2018 13:48 5,7 C 5,7 C 5,8 C 58 % 1019,2 hPa 0,0 l/m 7,8 km/h (2 Bft) NO 37 2 min 0,000 mm 1,5 UV-I 483 W/m -1,9 C 4,5 C 14,5 km/h (3 Bft)
21.02.2018 13:46 5,8 C 5,8 C 5,9 C 58 % 1019,2 hPa 0,0 l/m 9,1 km/h (2 Bft) O-SO 109 2 min 0,000 mm 1,4 UV-I 426 W/m -1,8 C 3,6 C 17,7 km/h (3 Bft)
21.02.2018 13:44 5,9 C 5,9 C 6,0 C 58 % 1019,2 hPa 0,0 l/m 10,0 km/h (2 Bft) O 85 2 min 0,000 mm 1,5 UV-I 466 W/m -1,7 C 3,1 C 16,1 km/h (3 Bft)
21.02.2018 13:42 6,0 C 5,9 C 6,0 C 58 % 1019,1 hPa 0,0 l/m 7,1 km/h (2 Bft) O-NO 59 2 min 0,000 mm 1,5 UV-I 485 W/m -1,6 C 5,4 C 16,1 km/h (3 Bft)
21.02.2018 13:40 5,9 C 5,9 C 6,0 C 59 % 1019,1 hPa 0,0 l/m 4,2 km/h (1 Bft) O-NO 74 2 min 0,000 mm 1,5 UV-I 485 W/m -1,5 C 5,9 C 9,7 km/h (2 Bft)
21.02.2018 13:38 6,0 C 6,0 C 6,1 C 58 % 1019,2 hPa 0,0 l/m 10,0 km/h (2 Bft) O-NO 73 2 min 0,000 mm 1,5 UV-I 484 W/m -1,6 C 3,2 C 16,1 km/h (3 Bft)
21.02.2018 13:36 6,1 C 6,1 C 6,2 C 58 % 1019,3 hPa 0,0 l/m 5,9 km/h (2 Bft) O-SO 104 2 min 0,000 mm 1,5 UV-I 488 W/m -1,5 C 6,1 C 11,3 km/h (2 Bft)
21.02.2018 13:34 6,2 C 6,2 C 6,3 C 59 % 1019,3 hPa 0,0 l/m 8,3 km/h (2 Bft) O-SO 107 2 min 0,000 mm 1,6 UV-I 493 W/m -1,2 C 4,6 C 16,1 km/h (3 Bft)
21.02.2018 13:32 6,3 C 6,2 C 6,3 C 59 % 1019,4 hPa 0,0 l/m 13,2 km/h (3 Bft) O 86 2 min 0,000 mm 1,6 UV-I 484 W/m -1,1 C 1,6 C 19,3 km/h (3 Bft)
21.02.2018 13:30 6,2 C 6,1 C 6,2 C 60 % 1019,4 hPa 0,0 l/m 11,4 km/h (2 Bft) O 80 2 min 0,000 mm 1,5 UV-I 484 W/m -1,0 C 2,5 C 22,5 km/h (4 Bft)
21.02.2018 13:28 6,1 C 5,9 C 6,1 C 62 % 1019,4 hPa 0,0 l/m 5,6 km/h (2 Bft) O 87 2 min 0,000 mm 1,6 UV-I 484 W/m -0,6 C 6,1 C 11,3 km/h (2 Bft)
21.02.2018 13:26 5,9 C 5,8 C 5,9 C 60 % 1019,4 hPa 0,0 l/m 5,5 km/h (2 Bft) O-SO 108 2 min 0,000 mm 1,6 UV-I 487 W/m -1,3 C 5,9 C 8,0 km/h (2 Bft)
21.02.2018 13:24 5,8 C 5,7 C 5,8 C 61 % 1019,4 hPa 0,0 l/m 8,0 km/h (2 Bft) O 86 2 min 0,000 mm 1,6 UV-I 480 W/m -1,1 C 4,4 C 14,5 km/h (3 Bft)
21.02.2018 13:22 5,7 C 5,6 C 5,7 C 61 % 1019,5 hPa 0,0 l/m 7,7 km/h (2 Bft) O-SO 117 2 min 0,000 mm 1,6 UV-I 478 W/m -1,2 C 4,6 C 16,1 km/h (3 Bft)
21.02.2018 13:20 5,6 C 5,6 C 5,6 C 60 % 1019,4 hPa 0,0 l/m 7,4 km/h (2 Bft) O 88 2 min 0,000 mm 1,6 UV-I 493 W/m -1,5 C 4,7 C 14,5 km/h (3 Bft)
21.02.2018 13:18 5,6 C 5,6 C 5,6 C 60 % 1019,4 hPa 0,0 l/m 9,5 km/h (2 Bft) O-NO 61 2 min 0,000 mm 1,6 UV-I 490 W/m -1,5 C 3,1 C 16,1 km/h (3 Bft)
21.02.2018 13:16 5,6 C 5,6 C 5,6 C 60 % 1019,4 hPa 0,0 l/m 6,1 km/h (2 Bft) O 101 2 min 0,000 mm 1,6 UV-I 490 W/m -1,5 C 5,6 C 16,1 km/h (3 Bft)
21.02.2018 13:14 5,6 C 5,4 C 5,6 C 61 % 1019,5 hPa 0,0 l/m 10,2 km/h (2 Bft) O 80 2 min 0,000 mm 1,6 UV-I 496 W/m -1,3 C 2,6 C 19,3 km/h (3 Bft)
21.02.2018 13:12 5,4 C 5,4 C 5,4 C 61 % 1019,5 hPa 0,0 l/m 13,7 km/h (3 Bft) O 101 2 min 0,000 mm 1,6 UV-I 482 W/m -1,5 C 0,2 C 24,1 km/h (4 Bft)
21.02.2018 13:10 5,4 C 5,3 C 5,4 C 60 % 1019,5 hPa 0,0 l/m 8,2 km/h (2 Bft) O-NO 65 2 min 0,000 mm 1,6 UV-I 480 W/m -1,7 C 3,9 C 17,7 km/h (3 Bft)
21.02.2018 13:08 5,3 C 5,3 C 5,3 C 60 % 1019,6 hPa 0,0 l/m 11,6 km/h (2 Bft) O-NO 67 2 min 0,000 mm 1,6 UV-I 477 W/m -1,8 C 1,3 C 20,9 km/h (4 Bft)
21.02.2018 13:06 5,3 C 5,3 C 5,3 C 61 % 1019,5 hPa 0,0 l/m 8,5 km/h (2 Bft) O 82 2 min 0,000 mm 1,6 UV-I 482 W/m -1,6 C 3,5 C 20,9 km/h (4 Bft)
21.02.2018 13:04 5,3 C 5,3 C 5,4 C 61 % 1019,6 hPa 0,0 l/m 7,0 km/h (2 Bft) O-NO 63 2 min 0,000 mm 1,6 UV-I 493 W/m -1,6 C 4,8 C 11,3 km/h (2 Bft)
21.02.2018 13:02 5,4 C 5,4 C 5,5 C 59 % 1019,6 hPa 0,0 l/m 12,5 km/h (2 Bft) NO 40 2 min 0,000 mm 1,6 UV-I 493 W/m -2,0 C 0,9 C 22,5 km/h (4 Bft)
21.02.2018 13:00 5,5 C 5,5 C 5,7 C 60 % 1019,7 hPa 0,0 l/m 10,8 km/h (2 Bft) O-NO 67 2 min 0,000 mm 1,7 UV-I 497 W/m -1,6 C 2,1 C 20,9 km/h (4 Bft)
21.02.2018 12:58 5,6 C 5,5 C 5,7 C 62 % 1019,7 hPa 0,0 l/m 12,5 km/h (2 Bft) O-NO 73 2 min 0,000 mm 1,7 UV-I 508 W/m -1,1 C 1,2 C 24,1 km/h (4 Bft)
21.02.2018 12:56 5,5 C 5,4 C 5,5 C 60 % 1019,6 hPa 0,0 l/m 10,8 km/h (2 Bft) O 98 2 min 0,000 mm 1,7 UV-I 508 W/m -1,6 C 2,1 C 17,7 km/h (3 Bft)
21.02.2018 12:54 5,4 C 5,3 C 5,4 C 61 % 1019,7 hPa 0,0 l/m 7,5 km/h (2 Bft) O 98 2 min 0,000 mm 1,7 UV-I 501 W/m -1,5 C 4,4 C 14,5 km/h (3 Bft)
21.02.2018 12:52 5,3 C 5,1 C 5,3 C 62 % 1019,7 hPa 0,0 l/m 7,7 km/h (2 Bft) O-NO 68 2 min 0,000 mm 1,7 UV-I 506 W/m -1,4 C 4,2 C 17,7 km/h (3 Bft)
21.02.2018 12:50 5,1 C 5,1 C 5,2 C 61 % 1019,8 hPa 0,0 l/m 9,6 km/h (2 Bft) O 93 2 min 0,229 mm 1,7 UV-I 504 W/m -1,8 C 2,5 C 16,1 km/h (3 Bft)
21.02.2018 12:48 5,2 C 5,2 C 5,3 C 60 % 1019,8 hPa 0,0 l/m 10,4 km/h (2 Bft) O 89 2 min 0,000 mm 1,7 UV-I 494 W/m -1,9 C 2,0 C 17,7 km/h (3 Bft)
21.02.2018 12:46 5,3 C 5,3 C 5,4 C 60 % 1019,8 hPa 0,0 l/m 11,7 km/h (2 Bft) O 80 2 min 0,000 mm 1,7 UV-I 498 W/m -1,8 C 1,3 C 20,9 km/h (4 Bft)
21.02.2018 12:44 5,4 C 5,3 C 5,4 C 62 % 1019,8 hPa 0,0 l/m 11,7 km/h (2 Bft) O-NO 68 2 min 0,000 mm 1,7 UV-I 491 W/m -1,3 C 1,4 C 16,1 km/h (3 Bft)
21.02.2018 12:42 5,3 C 5,2 C 5,3 C 64 % 1019,8 hPa 0,0 l/m 8,6 km/h (2 Bft) O 82 2 min 0,000 mm 1,6 UV-I 471 W/m -0,9 C 3,4 C 14,5 km/h (3 Bft)
21.02.2018 12:40 5,2 C 5,1 C 5,2 C 63 % 1019,8 hPa 0,0 l/m 11,0 km/h (2 Bft) SO 125 2 min 0,000 mm 1,7 UV-I 506 W/m -1,3 C 1,6 C 20,9 km/h (4 Bft)
21.02.2018 12:38 5,1 C 5,0 C 5,1 C 63 % 1019,9 hPa 0,0 l/m 11,3 km/h (2 Bft) O 90 2 min 0,000 mm 1,7 UV-I 505 W/m -1,4 C 1,3 C 17,7 km/h (3 Bft)
21.02.2018 12:36 5,0 C 4,9 C 5,0 C 63 % 1019,9 hPa 0,0 l/m 8,2 km/h (2 Bft) O-NO 63 2 min 0,000 mm 1,7 UV-I 500 W/m -1,4 C 3,4 C 17,7 km/h (3 Bft)
21.02.2018 12:34 4,9 C 4,7 C 4,9 C 64 % 1019,9 hPa 0,0 l/m 11,8 km/h (2 Bft) SO 139 2 min 0,000 mm 1,7 UV-I 469 W/m -1,3 C 0,8 C 16,1 km/h (3 Bft)
21.02.2018 12:32 4,7 C 4,6 C 4,7 C 64 % 1019,9 hPa 0,0 l/m 12,7 km/h (3 Bft) O-SO 107 2 min 0,000 mm 1,7 UV-I 491 W/m -1,5 C -0,0 C 19,3 km/h (3 Bft)
21.02.2018 12:30 4,6 C 4,6 C 4,6 C 63 % 1019,9 hPa 0,0 l/m 13,9 km/h (3 Bft) O-SO 103 2 min 0,000 mm 1,7 UV-I 499 W/m -1,8 C -0,8 C 20,9 km/h (4 Bft)
21.02.2018 12:28 4,6 C 4,6 C 4,7 C 63 % 1019,9 hPa 0,0 l/m 9,6 km/h (2 Bft) O-SO 107 2 min 0,000 mm 1,7 UV-I 493 W/m -1,8 C 1,9 C 20,9 km/h (4 Bft)
21.02.2018 12:26 4,7 C 4,6 C 4,7 C 63 % 1019,8 hPa 0,0 l/m 10,3 km/h (2 Bft) O-SO 104 2 min 0,000 mm 1,6 UV-I 456 W/m -1,7 C 1,5 C 19,3 km/h (3 Bft)
21.02.2018 12:24 4,7 C 4,6 C 4,7 C 64 % 1019,9 hPa 0,0 l/m 9,3 km/h (2 Bft) O-NO 58 2 min 0,000 mm 1,6 UV-I 431 W/m -1,5 C 2,3 C 16,1 km/h (3 Bft)
21.02.2018 12:22 4,7 C 4,7 C 4,8 C 62 % 1019,9 hPa 0,0 l/m 9,2 km/h (2 Bft) NO 38 2 min 0,000 mm 1,6 UV-I 460 W/m -1,9 C 2,3 C 17,7 km/h (3 Bft)
21.02.2018 12:20 4,8 C 4,7 C 4,8 C 64 % 1019,9 hPa 0,0 l/m 11,0 km/h (2 Bft) O-NO 76 2 min 0,000 mm 1,7 UV-I 484 W/m -1,4 C 1,2 C 20,9 km/h (4 Bft)
21.02.2018 12:18 4,8 C 4,6 C 4,8 C 65 % 1019,9 hPa 0,0 l/m 11,6 km/h (2 Bft) O 95 2 min 0,000 mm 1,7 UV-I 488 W/m -1,2 C 0,8 C 19,3 km/h (3 Bft)
21.02.2018 12:16 4,6 C 4,3 C 4,6 C 67 % 1019,9 hPa 0,0 l/m 8,5 km/h (2 Bft) O 96 2 min 0,000 mm 1,7 UV-I 488 W/m -1,0 C 2,8 C 16,1 km/h (3 Bft)
21.02.2018 12:14 4,3 C 4,3 C 4,3 C 66 % 1019,8 hPa 0,0 l/m 6,9 km/h (2 Bft) O-NO 71 2 min 0,000 mm 1,7 UV-I 499 W/m -1,5 C 3,9 C 16,1 km/h (3 Bft)
21.02.2018 12:12 4,3 C 4,2 C 4,3 C 65 % 1019,8 hPa 0,0 l/m 9,4 km/h (2 Bft) NO 53 2 min 0,000 mm 1,7 UV-I 494 W/m -1,7 C 1,7 C 14,5 km/h (3 Bft)
21.02.2018 12:10 4,2 C 4,2 C 4,2 C 65 % 1019,8 hPa 0,0 l/m 8,3 km/h (2 Bft) O-NO 66 2 min 0,000 mm 1,7 UV-I 490 W/m -1,8 C 2,5 C 16,1 km/h (3 Bft)
21.02.2018 12:08 4,2 C 4,1 C 4,2 C 65 % 1019,9 hPa 0,0 l/m 8,0 km/h (2 Bft) O-NO 63 2 min 0,000 mm 1,6 UV-I 458 W/m -1,8 C 2,8 C 16,1 km/h (3 Bft)
21.02.2018 12:06 4,1 C 4,1 C 4,1 C 66 % 1019,8 hPa 0,0 l/m 9,1 km/h (2 Bft) O-NO 66 2 min 0,000 mm 1,5 UV-I 406 W/m -1,7 C 1,8 C 16,1 km/h (3 Bft)
21.02.2018 12:04 4,1 C 4,1 C 4,1 C 65 % 1019,8 hPa 0,0 l/m 9,9 km/h (2 Bft) NO 38 2 min 0,000 mm 1,6 UV-I 446 W/m -1,9 C 1,2 C 16,1 km/h (3 Bft)
21.02.2018 12:02 4,1 C 4,1 C 4,2 C 65 % 1019,9 hPa 0,0 l/m 12,9 km/h (3 Bft) NO 49 -10 min 0,000 mm 1,6 UV-I 466 W/m -1,9 C -0,8 C 19,3 km/h (3 Bft)
21.02.2018 12:12 4,2 C 4,2 C 4,3 C 65 % 1019,8 hPa 0,0 l/m 10,9 km/h (2 Bft) O 86 2 min 0,000 mm 1,6 UV-I 459 W/m -1,8 C 0,6 C 19,3 km/h (3 Bft)
21.02.2018 12:10 4,3 C 4,3 C 4,3 C 65 % 1019,8 hPa 0,0 l/m 14,0 km/h (3 Bft) O-NO 71 2 min 0,000 mm 1,6 UV-I 460 W/m -1,7 C -1,2 C 22,5 km/h (4 Bft)
21.02.2018 12:08 4,3 C 4,3 C 4,3 C 65 % 1019,9 hPa 0,0 l/m 9,0 km/h (2 Bft) O 82 2 min 0,000 mm 1,6 UV-I 483 W/m -1,7 C 2,1 C 17,7 km/h (3 Bft)
21.02.2018 12:06 4,3 C 4,3 C 4,4 C 65 % 1019,9 hPa 0,0 l/m 9,2 km/h (2 Bft) O 97 2 min 0,000 mm 1,6 UV-I 450 W/m -1,7 C 1,9 C 17,7 km/h (3 Bft)
21.02.2018 12:04 4,4 C 4,4 C 4,4 C 65 % 1019,9 hPa 0,0 l/m 11,0 km/h (2 Bft) O-SO 110 2 min 0,000 mm 1,6 UV-I 468 W/m -1,6 C 0,7 C 16,1 km/h (3 Bft)
21.02.2018 12:02 4,4 C 4,4 C 4,6 C 65 % 1019,8 hPa 0,0 l/m 10,5 km/h (2 Bft) N-NO 26 2 min 0,000 mm 1,6 UV-I 462 W/m -1,6 C 1,1 C 17,7 km/h (3 Bft)
21.02.2018 12:00 4,6 C 4,6 C 4,7 C 64 % 1019,9 hPa 0,0 l/m 12,1 km/h (2 Bft) O 90 2 min 0,178 mm 1,6 UV-I 459 W/m -1,6 C 0,2 C 20,9 km/h (4 Bft)
21.02.2018 11:58 4,7 C 4,7 C 4,7 C 65 % 1019,9 hPa 0,0 l/m 11,9 km/h (2 Bft) NO 47 2 min 0,000 mm 1,5 UV-I 459 W/m -1,3 C 0,5 C 19,3 km/h (3 Bft)
21.02.2018 11:56 4,7 C 4,7 C 4,7 C 66 % 1019,9 hPa 0,0 l/m 7,6 km/h (2 Bft) O-NO 71 2 min 0,000 mm 1,5 UV-I 458 W/m -1,1 C 3,6 C 14,5 km/h (3 Bft)
21.02.2018 11:54 4,7 C 4,6 C 4,7 C 66 % 1019,9 hPa 0,0 l/m 9,4 km/h (2 Bft) O-NO 71 2 min 0,000 mm 1,5 UV-I 457 W/m -1,1 C 2,2 C 16,1 km/h (3 Bft)
21.02.2018 11:52 4,6 C 4,4 C 4,6 C 67 % 1019,9 hPa 0,0 l/m 9,5 km/h (2 Bft) O 89 2 min 0,000 mm 1,5 UV-I 454 W/m -1,0 C 2,0 C 14,5 km/h (3 Bft)
21.02.2018 11:50 4,4 C 4,1 C 4,4 C 68 % 1019,9 hPa 0,0 l/m 5,3 km/h (1 Bft) NO 53 2 min 0,000 mm 1,5 UV-I 443 W/m -1,0 C 4,4 C 12,9 km/h (3 Bft)
21.02.2018 11:48 4,1 C 3,9 C 4,1 C 68 % 1019,9 hPa 0,0 l/m 5,2 km/h (1 Bft) O 88 2 min 0,000 mm 1,5 UV-I 472 W/m -1,3 C 4,1 C 11,3 km/h (2 Bft)
21.02.2018 11:46 3,9 C 3,8 C 3,9 C 67 % 1019,9 hPa 0,0 l/m 7,7 km/h (2 Bft) O 96 2 min 0,000 mm 1,5 UV-I 461 W/m -1,7 C 2,7 C 11,3 km/h (2 Bft)
21.02.2018 11:44 3,9 C 3,9 C 3,9 C 67 % 1019,9 hPa 0,0 l/m 10,7 km/h (2 Bft) O-NO 60 2 min 0,000 mm 1,5 UV-I 445 W/m -1,7 C 0,4 C 19,3 km/h (3 Bft)
21.02.2018 11:42 3,9 C 3,9 C 3,9 C 67 % 1019,9 hPa 0,0 l/m 8,8 km/h (2 Bft) O-NO 77 2 min 0,000 mm 1,5 UV-I 423 W/m -1,7 C 1,8 C 24,1 km/h (4 Bft)
21.02.2018 11:40 3,9 C 3,8 C 3,9 C 68 % 1019,9 hPa 0,0 l/m 9,6 km/h (2 Bft) O 83 2 min 0,000 mm 1,5 UV-I 426 W/m -1,5 C 1,2 C 14,5 km/h (3 Bft)
21.02.2018 11:38 3,8 C 3,8 C 3,8 C 68 % 1019,9 hPa 0,0 l/m 9,0 km/h (2 Bft) O 91 2 min 0,000 mm 1,5 UV-I 439 W/m -1,6 C 1,5 C 17,7 km/h (3 Bft)
21.02.2018 11:36 3,8 C 3,8 C 3,8 C 68 % 1019,9 hPa 0,0 l/m 10,4 km/h (2 Bft) O 92 2 min 0,000 mm 1,5 UV-I 442 W/m -1,6 C 0,5 C 22,5 km/h (4 Bft)
21.02.2018 11:34 3,8 C 3,7 C 3,8 C 70 % 1019,9 hPa 0,0 l/m 10,6 km/h (2 Bft) NO 55 2 min 0,000 mm 1,5 UV-I 448 W/m -1,2 C 0,3 C 19,3 km/h (3 Bft)
21.02.2018 11:32 3,7 C 3,6 C 3,7 C 69 % 1019,9 hPa 0,0 l/m 6,8 km/h (2 Bft) O 88 2 min 0,000 mm 1,5 UV-I 444 W/m -1,4 C 3,3 C 9,7 km/h (2 Bft)
21.02.2018 11:30 3,6 C 3,4 C 3,6 C 71 % 1019,9 hPa 0,0 l/m 7,3 km/h (2 Bft) O-SO 102 2 min 0,000 mm 1,4 UV-I 420 W/m -1,2 C 2,8 C 11,3 km/h (2 Bft)
21.02.2018 11:28 3,4 C 3,3 C 3,4 C 70 % 1019,9 hPa 0,0 l/m 8,5 km/h (2 Bft) O-NO 57 2 min 0,000 mm 1,4 UV-I 426 W/m -1,5 C 1,5 C 16,1 km/h (3 Bft)
21.02.2018 11:26 3,3 C 3,3 C 3,3 C 70 % 1019,9 hPa 0,0 l/m 8,0 km/h (2 Bft) O 94 2 min 0,000 mm 1,4 UV-I 427 W/m -1,6 C 1,8 C 14,5 km/h (3 Bft)
21.02.2018 11:24 3,3 C 3,2 C 3,3 C 70 % 1019,9 hPa 0,0 l/m 7,4 km/h (2 Bft) NO 42 2 min 0,000 mm 1,4 UV-I 437 W/m -1,6 C 2,4 C 17,7 km/h (3 Bft)
21.02.2018 11:22 3,2 C 3,2 C 3,2 C 70 % 1019,9 hPa 0,0 l/m 10,3 km/h (2 Bft) O 91 2 min 0,000 mm 1,4 UV-I 437 W/m -1,7 C -0,1 C 16,1 km/h (3 Bft)
21.02.2018 11:20 3,2 C 3,1 C 3,2 C 71 % 1019,9 hPa 0,0 l/m 7,3 km/h (2 Bft) O-SO 107 2 min 0,000 mm 1,4 UV-I 428 W/m -1,5 C 2,4 C 16,1 km/h (3 Bft)
21.02.2018 11:18 3,1 C 3,1 C 3,1 C 70 % 1019,8 hPa 0,0 l/m 11,0 km/h (2 Bft) SO 130 2 min 0,000 mm 1,4 UV-I 418 W/m -1,8 C -0,8 C 17,7 km/h (3 Bft)
21.02.2018 11:16 3,1 C 3,1 C 3,1 C 70 % 1019,9 hPa 0,0 l/m 13,0 km/h (3 Bft) O 84 2 min 0,000 mm 1,4 UV-I 421 W/m -1,8 C -2,1 C 17,7 km/h (3 Bft)
21.02.2018 11:14 3,1 C 3,0 C 3,1 C 71 % 1020,0 hPa 0,0 l/m 9,8 km/h (2 Bft) O 101 2 min 0,000 mm 1,4 UV-I 415 W/m -1,6 C 0,1 C 16,1 km/h (3 Bft)
21.02.2018 11:12 3,0 C 2,9 C 3,0 C 71 % 1020,0 hPa 0,0 l/m 8,3 km/h (2 Bft) NO 50 2 min 0,000 mm 1,3 UV-I 414 W/m -1,7 C 1,2 C 16,1 km/h (3 Bft)
21.02.2018 11:10 2,9 C 2,9 C 2,9 C 72 % 1020,0 hPa 0,0 l/m 7,3 km/h (2 Bft) O-NO 68 2 min 0,000 mm 1,3 UV-I 391 W/m -1,6 C 2,0 C 16,1 km/h (3 Bft)
21.02.2018 11:08 2,9 C 2,9 C 2,9 C 72 % 1020,0 hPa 0,0 l/m 9,4 km/h (2 Bft) NO 56 2 min 0,000 mm 1,3 UV-I 361 W/m -1,6 C 0,2 C 16,1 km/h (3 Bft)
21.02.2018 11:06 2,9 C 2,9 C 2,9 C 71 % 1020,0 hPa 0,0 l/m 10,2 km/h (2 Bft) NO 44 2 min 0,000 mm 1,3 UV-I 348 W/m -1,8 C -0,4 C 14,5 km/h (3 Bft)
21.02.2018 11:04 2,9 C 2,8 C 2,9 C 72 % 1020,2 hPa 0,0 l/m 12,7 km/h (3 Bft) O-NO 67 2 min 0,000 mm 1,3 UV-I 378 W/m -1,6 C -2,1 C 17,7 km/h (3 Bft)
21.02.2018 11:02 2,8 C 2,8 C 2,8 C 73 % 1020,3 hPa 0,0 l/m 12,4 km/h (2 Bft) O 90 2 min 0,000 mm 1,2 UV-I 362 W/m -1,5 C -2,0 C 19,3 km/h (3 Bft)
21.02.2018 11:00 2,8 C 2,7 C 2,8 C 74 % 1020,2 hPa 0,0 l/m 8,4 km/h (2 Bft) O-NO 73 2 min 0,127 mm 1,2 UV-I 367 W/m -1,4 C 0,9 C 17,7 km/h (3 Bft)
21.02.2018 10:58 2,7 C 2,6 C 2,7 C 74 % 1020,3 hPa 0,0 l/m 4,5 km/h (1 Bft) O-SO 105 2 min 0,000 mm 1,2 UV-I 379 W/m -1,5 C 2,7 C 8,0 km/h (2 Bft)
21.02.2018 10:56 2,6 C 2,6 C 2,6 C 73 % 1020,3 hPa 0,0 l/m 10,8 km/h (2 Bft) O 93 2 min 0,000 mm 1,2 UV-I 376 W/m -1,7 C -1,2 C 20,9 km/h (4 Bft)
21.02.2018 10:54 2,6 C 2,5 C 2,6 C 74 % 1020,4 hPa 0,0 l/m 11,2 km/h (2 Bft) O-NO 63 2 min 0,000 mm 1,2 UV-I 369 W/m -1,6 C -1,5 C 19,3 km/h (3 Bft)
21.02.2018 10:52 2,5 C 2,4 C 2,5 C 74 % 1020,4 hPa 0,0 l/m 6,2 km/h (2 Bft) O 98 2 min 0,000 mm 1,2 UV-I 367 W/m -1,7 C 2,5 C 9,7 km/h (2 Bft)
21.02.2018 10:50 2,4 C 2,3 C 2,4 C 75 % 1020,4 hPa 0,0 l/m 5,6 km/h (2 Bft) N-NO 17 2 min 0,000 mm 1,2 UV-I 360 W/m -1,6 C 2,4 C 14,5 km/h (3 Bft)
21.02.2018 10:48 2,3 C 2,2 C 2,3 C 75 % 1020,4 hPa 0,0 l/m 4,6 km/h (1 Bft) O-NO 57 2 min 0,000 mm 1,1 UV-I 356 W/m -1,7 C 2,3 C 8,0 km/h (2 Bft)
21.02.2018 10:46 2,2 C 2,2 C 2,3 C 74 % 1020,4 hPa 0,0 l/m 6,8 km/h (2 Bft) O-NO 68 2 min 0,000 mm 1,1 UV-I 348 W/m -1,9 C 1,8 C 16,1 km/h (3 Bft)
21.02.2018 10:44 2,3 C 2,3 C 2,4 C 73 % 1020,4 hPa 0,0 l/m 9,9 km/h (2 Bft) O 84 2 min 0,000 mm 1,1 UV-I 340 W/m -2,0 C -0,8 C 17,7 km/h (3 Bft)
21.02.2018 10:42 2,4 C 2,4 C 2,4 C 73 % 1020,4 hPa 0,0 l/m 10,5 km/h (2 Bft) O-NO 61 2 min 0,000 mm 1,1 UV-I 341 W/m -1,9 C -1,2 C 20,9 km/h (4 Bft)
21.02.2018 10:40 2,4 C 2,3 C 2,4 C 73 % 1020,4 hPa 0,0 l/m 9,8 km/h (2 Bft) O 88 2 min 0,000 mm 1,1 UV-I 340 W/m -1,9 C -0,6 C 16,1 km/h (3 Bft)
21.02.2018 10:38 2,3 C 2,3 C 2,3 C 74 % 1020,4 hPa 0,0 l/m 8,4 km/h (2 Bft) O 92 2 min 0,000 mm 1,1 UV-I 330 W/m -1,8 C 0,4 C 17,7 km/h (3 Bft)
21.02.2018 10:36 2,3 C 2,3 C 2,3 C 74 % 1020,4 hPa 0,0 l/m 10,3 km/h (2 Bft) O 87 2 min 0,000 mm 1,0 UV-I 322 W/m -1,8 C -1,1 C 20,9 km/h (4 Bft)
21.02.2018 10:34 2,3 C 2,2 C 2,3 C 75 % 1020,4 hPa 0,0 l/m 11,5 km/h (2 Bft) O-NO 66 2 min 0,000 mm 1,0 UV-I 321 W/m -1,7 C -2,0 C 22,5 km/h (4 Bft)
21.02.2018 10:32 2,2 C 2,1 C 2,2 C 76 % 1020,3 hPa 0,0 l/m 7,2 km/h (2 Bft) O 96 2 min 0,000 mm 1,0 UV-I 319 W/m -1,6 C 1,4 C 11,3 km/h (2 Bft)
21.02.2018 10:30 2,1 C 2,1 C 2,1 C 75 % 1020,2 hPa 0,0 l/m 5,2 km/h (1 Bft) O 100 2 min 0,000 mm 1,0 UV-I 319 W/m -1,9 C 2,1 C 11,3 km/h (2 Bft)
21.02.2018 10:28 2,1 C 2,1 C 2,1 C 75 % 1020,2 hPa 0,0 l/m 8,2 km/h (2 Bft) NO 44 2 min 0,000 mm 1,0 UV-I 312 W/m -1,9 C 0,4 C 19,3 km/h (3 Bft)
21.02.2018 10:26 2,1 C 2,1 C 2,1 C 75 % 1020,3 hPa 0,0 l/m 8,3 km/h (2 Bft) O-SO 117 2 min 0,000 mm 1,0 UV-I 313 W/m -1,9 C 0,3 C 19,3 km/h (3 Bft)
21.02.2018 10:24 2,1 C 2,1 C 2,1 C 75 % 1020,3 hPa 0,0 l/m 8,6 km/h (2 Bft) O-SO 104 2 min 0,000 mm 1,0 UV-I 308 W/m -1,9 C 0,0 C 16,1 km/h (3 Bft)
21.02.2018 10:22 2,1 C 2,0 C 2,1 C 75 % 1020,2 hPa 0,0 l/m 6,3 km/h (2 Bft) O-NO 70 2 min 0,000 mm 0,9 UV-I 304 W/m -1,9 C 2,1 C 11,3 km/h (2 Bft)
21.02.2018 10:20 2,0 C 2,0 C 2,0 C 75 % 1020,2 hPa 0,0 l/m 9,9 km/h (2 Bft) O-NO 65 2 min 0,000 mm 0,9 UV-I 282 W/m -2,0 C -1,2 C 20,9 km/h (4 Bft)
21.02.2018 10:18 2,0 C 2,0 C 2,0 C 75 % 1020,2 hPa 0,0 l/m 6,9 km/h (2 Bft) O-NO 63 2 min 0,000 mm 0,9 UV-I 295 W/m -2,0 C 1,5 C 11,3 km/h (2 Bft)
21.02.2018 10:16 2,0 C 1,9 C 2,0 C 75 % 1020,1 hPa 0,0 l/m 9,5 km/h (2 Bft) O-SO 103 2 min 0,000 mm 0,9 UV-I 289 W/m -2,0 C -0,8 C 17,7 km/h (3 Bft)
21.02.2018 10:14 2,0 C 1,9 C 2,0 C 76 % 1020,1 hPa 0,0 l/m 7,9 km/h (2 Bft) O 86 2 min 0,000 mm 0,9 UV-I 283 W/m -1,8 C 0,5 C 14,5 km/h (3 Bft)
21.02.2018 10:12 1,9 C 1,9 C 1,9 C 76 % 1020,0 hPa 0,0 l/m 8,6 km/h (2 Bft) O-SO 107 2 min 0,000 mm 0,9 UV-I 276 W/m -1,9 C -0,2 C 16,1 km/h (3 Bft)
21.02.2018 10:10 1,9 C 1,9 C 1,9 C 76 % 1020,2 hPa 0,1 l/m 11,2 km/h (2 Bft) NO 46 2 min 0,000 mm 0,8 UV-I 273 W/m -1,9 C -2,3 C 17,7 km/h (3 Bft)
21.02.2018 10:08 1,9 C 1,8 C 1,9 C 77 % 1020,0 hPa 0,0 l/m 6,2 km/h (2 Bft) O 101 2 min 0,000 mm 0,8 UV-I 269 W/m -1,7 C 1,9 C 12,9 km/h (3 Bft)
21.02.2018 10:06 1,9 C 1,8 C 1,9 C 77 % 1020,0 hPa 0,0 l/m 6,8 km/h (2 Bft) O 96 2 min 0,000 mm 0,8 UV-I 272 W/m -1,7 C 1,5 C 14,5 km/h (3 Bft)
21.02.2018 10:04 1,8 C 1,7 C 1,8 C 77 % 1020,0 hPa 0,0 l/m 7,7 km/h (2 Bft) O 96 2 min 0,000 mm 0,8 UV-I 269 W/m -1,8 C 0,5 C 19,3 km/h (3 Bft)
21.02.2018 10:02 1,7 C 1,7 C 1,7 C 78 % 1020,0 hPa 0,0 l/m 8,5 km/h (2 Bft) O-NO 74 2 min 0,000 mm 0,8 UV-I 265 W/m -1,7 C -0,3 C 17,7 km/h (3 Bft)
21.02.2018 10:00 1,7 C 1,6 C 1,7 C 78 % 1020,1 hPa 0,0 l/m 6,5 km/h (2 Bft) O-NO 75 2 min 0,076 mm 0,8 UV-I 259 W/m -1,7 C 1,6 C 16,1 km/h (3 Bft)
21.02.2018 09:58 1,7 C 1,6 C 1,7 C 78 % 1020,0 hPa 0,0 l/m 7,4 km/h (2 Bft) NO 49 2 min 0,000 mm 0,8 UV-I 256 W/m -1,7 C 0,7 C 14,5 km/h (3 Bft)
21.02.2018 09:56 1,6 C 1,5 C 1,6 C 79 % 1020,0 hPa 0,0 l/m 7,9 km/h (2 Bft) O 81 2 min 0,000 mm 0,7 UV-I 248 W/m -1,6 C 0,1 C 14,5 km/h (3 Bft)
21.02.2018 09:54 1,5 C 1,4 C 1,5 C 79 % 1019,9 hPa 0,0 l/m 11,5 km/h (2 Bft) O 88 2 min 0,000 mm 0,7 UV-I 242 W/m -1,7 C -2,9 C 17,7 km/h (3 Bft)
21.02.2018 09:52 1,4 C 1,4 C 1,4 C 80 % 1019,9 hPa 0,1 l/m 6,1 km/h (2 Bft) O-SO 105 2 min 0,000 mm 0,7 UV-I 235 W/m -1,7 C 1,4 C 19,3 km/h (3 Bft)
21.02.2018 09:50 1,4 C 1,3 C 1,4 C 80 % 1019,9 hPa 0,0 l/m 7,9 km/h (2 Bft) O-NO 76 2 min 0,000 mm 0,7 UV-I 228 W/m -1,7 C -0,1 C 17,7 km/h (3 Bft)
21.02.2018 09:48 1,3 C 1,3 C 1,3 C 81 % 1019,9 hPa 0,0 l/m 7,8 km/h (2 Bft) O-NO 61 2 min 0,000 mm 0,7 UV-I 223 W/m -1,6 C -0,1 C 17,7 km/h (3 Bft)
21.02.2018 09:46 1,3 C 1,2 C 1,3 C 81 % 1019,9 hPa 0,0 l/m 7,0 km/h (2 Bft) O-SO 111 2 min 0,000 mm 0,7 UV-I 215 W/m -1,6 C 0,7 C 16,1 km/h (3 Bft)
21.02.2018 09:44 1,3 C 1,2 C 1,3 C 81 % 1019,9 hPa 0,0 l/m 4,2 km/h (1 Bft) O 92 2 min 0,000 mm 0,7 UV-I 213 W/m -1,6 C 1,3 C 8,0 km/h (2 Bft)
21.02.2018 09:42 1,2 C 1,2 C 1,2 C 82 % 1020,0 hPa 0,0 l/m 5,9 km/h (2 Bft) O-NO 69 2 min 0,000 mm 0,6 UV-I 217 W/m -1,5 C 1,2 C 12,9 km/h (3 Bft)
21.02.2018 09:40 1,2 C 1,1 C 1,2 C 82 % 1020,0 hPa 0,0 l/m 6,7 km/h (2 Bft) NO 49 2 min 0,000 mm 0,6 UV-I 212 W/m -1,5 C 0,9 C 11,3 km/h (2 Bft)
21.02.2018 09:38 1,1 C 1,0 C 1,1 C 83 % 1020,0 hPa 0,0 l/m 5,1 km/h (1 Bft) O 98 2 min 0,000 mm 0,6 UV-I 209 W/m -1,5 C 1,1 C 17,7 km/h (3 Bft)
21.02.2018 09:36 1,0 C 0,9 C 1,0 C 83 % 1020,0 hPa 0,0 l/m 5,3 km/h (1 Bft) NO 49 2 min 0,000 mm 0,6 UV-I 202 W/m -1,6 C 1,0 C 8,0 km/h (2 Bft)
21.02.2018 09:34 0,9 C 0,8 C 0,9 C 84 % 1020,1 hPa 0,0 l/m 6,0 km/h (2 Bft) O 96 2 min 0,000 mm 0,6 UV-I 189 W/m -1,5 C 0,9 C 11,3 km/h (2 Bft)
21.02.2018 09:32 0,8 C 0,7 C 0,8 C 84 % 1019,9 hPa 0,0 l/m 6,3 km/h (2 Bft) O-SO 103 2 min 0,000 mm 0,6 UV-I 187 W/m -1,6 C 0,8 C 11,3 km/h (2 Bft)
21.02.2018 09:30 0,7 C 0,7 C 0,7 C 85 % 1019,9 hPa 0,0 l/m 5,0 km/h (1 Bft) O-SO 108 2 min 0,000 mm 0,6 UV-I 188 W/m -1,5 C 0,7 C 9,7 km/h (2 Bft)
21.02.2018 09:28 0,7 C 0,6 C 0,7 C 85 % 1020,0 hPa 0,0 l/m 5,9 km/h (2 Bft) O-NO 76 2 min 0,000 mm 0,6 UV-I 186 W/m -1,5 C 0,7 C 11,3 km/h (2 Bft)
21.02.2018 09:26 0,6 C 0,5 C 0,6 C 86 % 1019,9 hPa 0,0 l/m 6,2 km/h (2 Bft) O 88 2 min 0,000 mm 0,6 UV-I 181 W/m -1,5 C 0,6 C 11,3 km/h (2 Bft)
21.02.2018 09:24 0,5 C 0,4 C 0,5 C 86 % 1019,8 hPa 0,0 l/m 3,4 km/h (1 Bft) O 94 2 min 0,000 mm 0,5 UV-I 172 W/m -1,6 C 0,5 C 8,0 km/h (2 Bft)
21.02.2018 09:22 0,4 C 0,3 C 0,4 C 86 % 1019,8 hPa 0,0 l/m 5,8 km/h (2 Bft) O 86 2 min 0,000 mm 0,5 UV-I 156 W/m -1,7 C 0,4 C 9,7 km/h (2 Bft)
21.02.2018 09:20 0,3 C 0,3 C 3,7 C 86 % 1019,7 hPa 0,0 l/m 4,7 km/h (1 Bft) O-NO 70 0 min 0,000 mm 0,5 UV-I 94 W/m -1,8 C 0,3 C 9,7 km/h (2 Bft)
21.02.2018 09:18 3,7 C 3,7 C 3,7 C 72 % 1019,7 hPa 0,0 l/m 4,9 km/h (1 Bft) O-NO 74 0 min 0,000 mm 0,0 UV-I 18 W/m -0,9 C 3,7 C 8,0 km/h (2 Bft)
21.02.2018 09:16 3,7 C 3,7 C 3,7 C 72 % 1019,7 hPa 0,0 l/m 6,0 km/h (2 Bft) O-NO 61 0 min 0,000 mm 0,0 UV-I 18 W/m -0,9 C 3,7 C 9,7 km/h (2 Bft)
21.02.2018 09:14 3,7 C 3,7 C 3,7 C 72 % 1019,7 hPa 0,0 l/m 9,2 km/h (2 Bft) O 92 0 min 0,000 mm 0,0 UV-I 18 W/m -0,9 C 1,2 C 17,7 km/h (3 Bft)
21.02.2018 09:12 3,7 C 3,7 C 3,7 C 72 % 1019,7 hPa 0,0 l/m 6,7 km/h (2 Bft) O-NO 65 0 min 0,000 mm 0,0 UV-I 18 W/m -0,9 C 3,4 C 11,3 km/h (2 Bft)
21.02.2018 09:10 3,7 C 3,7 C 3,7 C 72 % 1019,7 hPa 0,0 l/m 3,3 km/h (1 Bft) O-NO 74 0 min 0,000 mm 0,0 UV-I 18 W/m -0,9 C 3,7 C 6,4 km/h (2 Bft)
21.02.2018 09:08 3,7 C 3,7 C 3,7 C 72 % 1019,7 hPa 0,0 l/m 4,6 km/h (1 Bft) O-NO 78 0 min 0,000 mm 0,0 UV-I 18 W/m -0,9 C 3,7 C 8,0 km/h (2 Bft)
21.02.2018 09:06 3,7 C 3,7 C 3,7 C 72 % 1019,7 hPa 0,0 l/m 4,2 km/h (1 Bft) O 88 0 min 0,000 mm 0,0 UV-I 18 W/m -0,9 C 3,7 C 6,4 km/h (2 Bft)
21.02.2018 09:04 3,7 C 3,7 C 3,7 C 72 % 1019,6 hPa 0,0 l/m 3,5 km/h (1 Bft) O 82 0 min 0,000 mm 0,0 UV-I 18 W/m -0,9 C 3,7 C 6,4 km/h (2 Bft)
21.02.2018 09:02 3,7 C 3,7 C 3,7 C 72 % 1019,6 hPa 0,0 l/m 2,8 km/h (1 Bft) O 80 0 min 0,000 mm 0,0 UV-I 18 W/m -0,9 C 3,7 C 6,4 km/h (2 Bft)
21.02.2018 09:00 3,7 C 3,7 C 3,7 C 72 % 1019,7 hPa 0,0 l/m 3,8 km/h (1 Bft) O 83 0 min 0,000 mm 0,0 UV-I 18 W/m -0,9 C 3,7 C 6,4 km/h (2 Bft)
21.02.2018 08:58 3,7 C 3,7 C 3,7 C 72 % 1019,6 hPa 0,0 l/m 4,2 km/h (1 Bft) NO 55 0 min 0,000 mm 0,0 UV-I 18 W/m -0,9 C 3,7 C 8,0 km/h (2 Bft)
21.02.2018 08:56 3,7 C 3,7 C 3,7 C 72 % 1019,6 hPa 0,0 l/m 7,4 km/h (2 Bft) O 79 0 min 0,000 mm 0,0 UV-I 18 W/m -0,9 C 2,8 C 16,1 km/h (3 Bft)
21.02.2018 08:54 3,7 C 3,7 C 3,7 C 72 % 1019,6 hPa 0,0 l/m 2,0 km/h (1 Bft) O-NO 71 0 min 0,000 mm 0,0 UV-I 18 W/m -0,9 C 3,7 C 4,8 km/h (1 Bft)
21.02.2018 08:52 3,7 C 3,7 C 3,7 C 72 % 1019,6 hPa 0,0 l/m 2,5 km/h (1 Bft) O-NO 62 0 min 0,000 mm 0,0 UV-I 18 W/m -0,9 C 3,7 C 6,4 km/h (2 Bft)
21.02.2018 08:50 3,7 C 3,7 C 3,7 C 72 % 1019,5 hPa 0,0 l/m 4,3 km/h (1 Bft) O-NO 63 0 min 0,000 mm 0,0 UV-I 18 W/m -0,9 C 3,7 C 6,4 km/h (2 Bft)
21.02.2018 08:48 3,7 C 3,7 C 3,7 C 72 % 1019,4 hPa 0,0 l/m 4,0 km/h (1 Bft) O-NO 75 0 min 0,000 mm 0,0 UV-I 18 W/m -0,9 C 3,7 C 9,7 km/h (2 Bft)
21.02.2018 08:46 3,7 C 3,7 C 3,7 C 72 % 1019,4 hPa 0,0 l/m 4,0 km/h (1 Bft) O-NO 67 0 min 0,000 mm 0,0 UV-I 18 W/m -0,9 C 3,7 C 6,4 km/h (2 Bft)
21.02.2018 08:44 3,7 C 3,7 C 3,7 C 72 % 1019,5 hPa 0,0 l/m 6,7 km/h (2 Bft) NO 39 0 min 0,000 mm 0,0 UV-I 18 W/m -0,9 C 3,4 C 11,3 km/h (2 Bft)
21.02.2018 08:42 3,7 C 3,7 C 3,7 C 72 % 1019,4 hPa 0,0 l/m 6,4 km/h (2 Bft) NO 51 0 min 0,000 mm 0,0 UV-I 18 W/m -0,9 C 3,7 C 11,3 km/h (2 Bft)
21.02.2018 08:40 3,7 C 3,7 C 3,7 C 72 % 1019,4 hPa 0,0 l/m 8,5 km/h (2 Bft) O-NO 63 0 min 0,000 mm 0,0 UV-I 18 W/m -0,9 C 1,8 C 14,5 km/h (3 Bft)
21.02.2018 08:38 3,7 C 3,7 C 3,7 C 72 % 1019,3 hPa 0,0 l/m 3,8 km/h (1 Bft) O-NO 69 0 min 0,000 mm 0,0 UV-I 18 W/m -0,9 C 3,7 C 6,4 km/h (2 Bft)
21.02.2018 08:36 3,7 C 3,7 C 3,7 C 72 % 1019,2 hPa 0,0 l/m 5,8 km/h (2 Bft) O-NO 71 0 min 0,000 mm 0,0 UV-I 18 W/m -0,9 C 3,7 C 9,7 km/h (2 Bft)
21.02.2018 08:34 3,7 C 3,7 C 3,7 C 72 % 1019,2 hPa 0,0 l/m 3,8 km/h (1 Bft) O-NO 74 0 min 0,000 mm 0,0 UV-I 18 W/m -0,9 C 3,7 C 8,0 km/h (2 Bft)
21.02.2018 08:32 3,7 C 3,7 C 3,7 C 72 % 1019,2 hPa 0,0 l/m 5,0 km/h (1 Bft) O-NO 76 0 min 0,000 mm 0,0 UV-I 18 W/m -0,9 C 3,7 C 8,0 km/h (2 Bft)
21.02.2018 08:30 3,7 C 3,7 C 3,7 C 72 % 1019,3 hPa 0,0 l/m 5,3 km/h (1 Bft) O-NO 69 0 min 0,000 mm 0,0 UV-I 18 W/m -0,9 C 3,7 C 8,0 km/h (2 Bft)
21.02.2018 08:28 3,7 C 3,7 C 3,7 C 72 % 1019,2 hPa 0,0 l/m 3,5 km/h (1 Bft) O-NO 66 0 min 0,000 mm 0,0 UV-I 18 W/m -0,9 C 3,7 C 6,4 km/h (2 Bft)
21.02.2018 08:26 3,7 C 3,7 C 3,7 C 72 % 1019,2 hPa 0,0 l/m 5,4 km/h (2 Bft) O-NO 61 0 min 0,000 mm 0,0 UV-I 18 W/m -0,9 C 3,7 C 8,0 km/h (2 Bft)
21.02.2018 08:24 3,7 C 3,7 C 3,7 C 72 % 1019,2 hPa 0,0 l/m 5,2 km/h (1 Bft) O-NO 59 0 min 0,000 mm 0,0 UV-I 18 W/m -0,9 C 3,7 C 9,7 km/h (2 Bft)
21.02.2018 08:22 3,7 C 3,7 C 3,7 C 72 % 1019,2 hPa 0,0 l/m 4,0 km/h (1 Bft) NO 51 0 min 0,000 mm 0,0 UV-I 18 W/m -0,9 C 3,7 C 9,7 km/h (2 Bft)
21.02.2018 08:20 3,7 C 3,7 C 3,7 C 72 % 1019,2 hPa 0,0 l/m 7,4 km/h (2 Bft) NO 49 0 min 0,000 mm 0,0 UV-I 18 W/m -0,9 C 2,8 C 9,7 km/h (2 Bft)
21.02.2018 08:18 3,7 C 3,7 C 3,7 C 72 % 1019,2 hPa 0,0 l/m 4,5 km/h (1 Bft) O-NO 60 0 min 0,000 mm 0,0 UV-I 18 W/m -0,9 C 3,7 C 11,3 km/h (2 Bft)
21.02.2018 08:16 3,7 C 3,7 C 3,7 C 72 % 1019,2 hPa 0,0 l/m 4,7 km/h (1 Bft) N-NO 22 0 min 0,000 mm 0,0 UV-I 18 W/m -0,9 C 3,7 C 9,7 km/h (2 Bft)
21.02.2018 08:14 3,7 C 3,7 C 3,7 C 72 % 1019,3 hPa 0,0 l/m 3,9 km/h (1 Bft) O 80 0 min 0,000 mm 0,0 UV-I 18 W/m -0,9 C 3,7 C 8,0 km/h (2 Bft)
21.02.2018 08:12 3,7 C 3,7 C 3,7 C 72 % 1019,2 hPa 0,0 l/m 3,7 km/h (1 Bft) NO 52 0 min 0,000 mm 0,0 UV-I 18 W/m -0,9 C 3,7 C 9,7 km/h (2 Bft)
21.02.2018 08:10 3,7 C 3,7 C 3,7 C 72 % 1019,2 hPa 0,0 l/m 4,0 km/h (1 Bft) NO 53 0 min 0,000 mm 0,0 UV-I 18 W/m -0,9 C 3,7 C 8,0 km/h (2 Bft)
21.02.2018 08:08 3,7 C 3,7 C 3,7 C 72 % 1019,2 hPa 0,0 l/m 3,5 km/h (1 Bft) NO 46 0 min 0,000 mm 0,0 UV-I 18 W/m -0,9 C 3,7 C 6,4 km/h (2 Bft)
21.02.2018 08:06 3,7 C 3,7 C 3,7 C 72 % 1019,2 hPa 0,0 l/m 4,6 km/h (1 Bft) NO 53 0 min 0,000 mm 0,0 UV-I 18 W/m -0,9 C 3,7 C 8,0 km/h (2 Bft)
21.02.2018 08:04 3,7 C 3,7 C 3,7 C 72 % 1019,2 hPa 0,0 l/m 4,9 km/h (1 Bft) NO 40 0 min 0,000 mm 0,0 UV-I 18 W/m -0,9 C 3,7 C 8,0 km/h (2 Bft)
21.02.2018 08:02 3,7 C 3,7 C 3,7 C 72 % 1019,2 hPa 0,0 l/m 4,9 km/h (1 Bft) NO 37 0 min 0,000 mm 0,0 UV-I 18 W/m -0,9 C 3,7 C 12,9 km/h (3 Bft)
21.02.2018 08:00 3,7 C 3,7 C 3,7 C 72 % 1019,2 hPa 0,0 l/m 3,6 km/h (1 Bft) NO 55 0 min 0,000 mm 0,0 UV-I 18 W/m -0,9 C 3,7 C 6,4 km/h (2 Bft)
21.02.2018 07:58 3,7 C 3,7 C 3,7 C 72 % 1019,2 hPa 0,0 l/m 4,8 km/h (1 Bft) NO 55 0 min 0,000 mm 0,0 UV-I 18 W/m -0,9 C 3,7 C 8,0 km/h (2 Bft)
21.02.2018 07:56 3,7 C 3,7 C 3,7 C 72 % 1019,4 hPa 0,0 l/m 5,0 km/h (1 Bft) O-NO 57 0 min 0,000 mm 0,0 UV-I 18 W/m -0,9 C 3,7 C 8,0 km/h (2 Bft)
21.02.2018 07:54 3,7 C 3,7 C 3,7 C 72 % 1019,2 hPa 0,0 l/m 4,5 km/h (1 Bft) O-NO 65 0 min 0,000 mm 0,0 UV-I 18 W/m -0,9 C 3,7 C 6,4 km/h (2 Bft)
21.02.2018 07:52 3,7 C 3,7 C 3,7 C 72 % 1019,4 hPa 0,0 l/m 5,8 km/h (2 Bft) O-NO 72 0 min 0,000 mm 0,0 UV-I 18 W/m -0,9 C 3,7 C 9,7 km/h (2 Bft)
21.02.2018 07:50 3,7 C 3,7 C 3,7 C 72 % 1019,3 hPa 0,0 l/m 5,5 km/h (2 Bft) O-NO 58 0 min 0,000 mm 0,0 UV-I 18 W/m -0,9 C 3,7 C 8,0 km/h (2 Bft)
21.02.2018 07:48 3,7 C 3,7 C 3,7 C 72 % 1019,3 hPa 0,0 l/m 4,2 km/h (1 Bft) NO 53 0 min 0,000 mm 0,0 UV-I 18 W/m -0,9 C 3,7 C 6,4 km/h (2 Bft)
21.02.2018 07:46 3,7 C 3,7 C 3,7 C 72 % 1019,3 hPa 0,0 l/m 4,7 km/h (1 Bft) NO 53 0 min 0,000 mm 0,0 UV-I 18 W/m -0,9 C 3,7 C 8,0 km/h (2 Bft)
21.02.2018 07:44 3,7 C 3,7 C 3,7 C 72 % 1019,3 hPa 0,0 l/m 3,8 km/h (1 Bft) NO 51 0 min 0,000 mm 0,0 UV-I 18 W/m -0,9 C 3,7 C 6,4 km/h (2 Bft)
21.02.2018 07:42 3,7 C 3,7 C 3,7 C 72 % 1019,3 hPa 0,0 l/m 3,0 km/h (1 Bft) NO 53 2 min 0,000 mm 0,0 UV-I 18 W/m -0,9 C 3,7 C 8,0 km/h (2 Bft)
21.02.2018 07:40 3,7 C 3,7 C 3,7 C 72 % 1019,4 hPa 0,0 l/m 4,9 km/h (1 Bft) O-NO 57 2 min 0,000 mm 0,0 UV-I 18 W/m -0,9 C 3,7 C 8,0 km/h (2 Bft)
21.02.2018 07:38 3,7 C 3,7 C 3,7 C 72 % 1019,3 hPa 0,0 l/m 5,0 km/h (1 Bft) O-NO 61 2 min 0,000 mm 0,0 UV-I 18 W/m -0,9 C 3,7 C 8,0 km/h (2 Bft)
21.02.2018 07:36 3,7 C 3,7 C 3,7 C 72 % 1019,3 hPa 0,0 l/m 5,6 km/h (2 Bft) O-NO 58 0 min 0,000 mm 0,0 UV-I 18 W/m -0,9 C 3,7 C 8,0 km/h (2 Bft)
21.02.2018 07:34 3,7 C 3,7 C 3,7 C 72 % 1019,3 hPa 0,0 l/m 3,0 km/h (1 Bft) O-NO 67 0 min 0,000 mm 0,0 UV-I 18 W/m -0,9 C 3,7 C 6,4 km/h (2 Bft)
21.02.2018 07:32 3,7 C 3,7 C 3,7 C 72 % 1019,3 hPa 0,0 l/m 3,7 km/h (1 Bft) O 84 0 min 0,000 mm 0,0 UV-I 18 W/m -0,9 C 3,7 C 6,4 km/h (2 Bft)
21.02.2018 07:30 3,7 C 3,7 C 3,7 C 72 % 1019,3 hPa 0,0 l/m 1,6 km/h (1 Bft) O-NO 66 0 min 0,000 mm 0,0 UV-I 18 W/m -0,9 C 3,7 C 4,8 km/h (1 Bft)
21.02.2018 07:28 3,7 C 3,7 C 3,7 C 72 % 1019,4 hPa 0,0 l/m 2,6 km/h (1 Bft) O-NO 66 0 min 0,000 mm 0,0 UV-I 18 W/m -0,9 C 3,7 C 6,4 km/h (2 Bft)
21.02.2018 07:26 3,7 C 3,7 C 3,7 C 72 % 1019,3 hPa 0,0 l/m 5,5 km/h (2 Bft) O-NO 65 0 min 0,000 mm 0,0 UV-I 18 W/m -0,9 C 3,7 C 8,0 km/h (2 Bft)
21.02.2018 07:24 3,7 C 3,7 C 3,7 C 72 % 1019,4 hPa 0,0 l/m 1,8 km/h (1 Bft) NO 51 0 min 0,000 mm 0,0 UV-I 18 W/m -0,9 C 3,7 C 4,8 km/h (1 Bft)
21.02.2018 07:22 3,7 C 3,7 C 3,7 C 72 % 1019,5 hPa 0,0 l/m 4,6 km/h (1 Bft) NO 49 0 min 0,000 mm 0,0 UV-I 18 W/m -0,9 C 3,7 C 9,7 km/h (2 Bft)
21.02.2018 07:20 3,7 C 3,7 C 3,7 C 72 % 1019,3 hPa 0,0 l/m 3,2 km/h (1 Bft) NO 46 0 min 0,000 mm 0,0 UV-I 18 W/m -0,9 C 3,7 C 9,7 km/h (2 Bft)
21.02.2018 07:18 3,7 C 3,7 C 3,7 C 72 % 1019,4 hPa 0,0 l/m 4,9 km/h (1 Bft) NO 55 0 min 0,000 mm 0,0 UV-I 18 W/m -0,9 C 3,7 C 8,0 km/h (2 Bft)
21.02.2018 07:16 3,7 C 3,7 C 3,7 C 72 % 1019,3 hPa 0,0 l/m 5,2 km/h (1 Bft) NO 39 0 min 0,000 mm 0,0 UV-I 18 W/m -0,9 C 3,7 C 8,0 km/h (2 Bft)
21.02.2018 07:14 3,7 C 3,7 C 3,7 C 72 % 1019,3 hPa 0,0 l/m 6,1 km/h (2 Bft) N-NO 31 0 min 0,000 mm 0,0 UV-I 18 W/m -0,9 C 3,7 C 9,7 km/h (2 Bft)
21.02.2018 07:12 3,7 C 3,7 C 3,7 C 72 % 1019,3 hPa 0,0 l/m 6,6 km/h (2 Bft) O 86 0 min 0,000 mm 0,0 UV-I 18 W/m -0,9 C 3,5 C 11,3 km/h (2 Bft)
21.02.2018 07:10 3,7 C 3,7 C 3,7 C 72 % 1019,3 hPa 0,0 l/m 5,1 km/h (1 Bft) NO 49 0 min 0,000 mm 0,0 UV-I 18 W/m -0,9 C 3,7 C 8,0 km/h (2 Bft)
21.02.2018 07:08 3,7 C 3,7 C 3,7 C 72 % 1019,3 hPa 0,0 l/m 5,6 km/h (2 Bft) O-NO 66 0 min 0,000 mm 0,0 UV-I 18 W/m -0,9 C 3,7 C 9,7 km/h (2 Bft)
21.02.2018 07:06 3,7 C 3,7 C 3,7 C 72 % 1019,2 hPa 0,0 l/m 5,7 km/h (2 Bft) O-NO 61 0 min 0,000 mm 0,0 UV-I 18 W/m -0,9 C 3,7 C 9,7 km/h (2 Bft)
21.02.2018 07:04 3,7 C 3,7 C 3,7 C 72 % 1019,2 hPa 0,0 l/m 6,9 km/h (2 Bft) O-NO 71 0 min 0,000 mm 0,0 UV-I 18 W/m -0,9 C 3,2 C 12,9 km/h (3 Bft)
21.02.2018 07:02 3,7 C 3,7 C 3,7 C 72 % 1019,2 hPa 0,0 l/m 4,6 km/h (1 Bft) O-NO 62 0 min 0,000 mm 0,0 UV-I 18 W/m -0,9 C 3,7 C 8,0 km/h (2 Bft)
21.02.2018 07:00 3,7 C 3,7 C 3,7 C 72 % 1019,2 hPa 0,0 l/m 5,0 km/h (1 Bft) O-NO 61 0 min 0,000 mm 0,0 UV-I 18 W/m -0,9 C 3,7 C 8,0 km/h (2 Bft)
21.02.2018 06:58 3,7 C 3,7 C 3,7 C 72 % 1019,1 hPa 0,0 l/m 7,0 km/h (2 Bft) O-NO 61 0 min 0,000 mm 0,0 UV-I 18 W/m -0,9 C 3,1 C 11,3 km/h (2 Bft)
21.02.2018 06:56 3,7 C 3,7 C 3,7 C 72 % 1019,2 hPa 0,0 l/m 6,1 km/h (2 Bft) O 89 0 min 0,000 mm 0,0 UV-I 18 W/m -0,9 C 3,7 C 11,3 km/h (2 Bft)
21.02.2018 06:54 3,7 C 3,7 C 3,7 C 72 % 1019,2 hPa 0,0 l/m 6,2 km/h (2 Bft) O 84 0 min 0,000 mm 0,0 UV-I 18 W/m -0,9 C 3,7 C 11,3 km/h (2 Bft)
21.02.2018 06:52 3,7 C 3,7 C 3,7 C 72 % 1019,1 hPa 0,0 l/m 4,3 km/h (1 Bft) O 91 0 min 0,000 mm 0,0 UV-I 18 W/m -0,9 C 3,7 C 8,0 km/h (2 Bft)
21.02.2018 06:50 3,7 C 3,7 C 3,7 C 72 % 1019,1 hPa 0,0 l/m 6,1 km/h (2 Bft) O 89 0 min 0,000 mm 0,0 UV-I 18 W/m -0,9 C 3,7 C 9,7 km/h (2 Bft)
21.02.2018 06:48 3,7 C 3,7 C 3,7 C 72 % 1019,1 hPa 0,0 l/m 4,7 km/h (1 Bft) O 84 0 min 0,000 mm 0,0 UV-I 18 W/m -0,9 C 3,7 C 8,0 km/h (2 Bft)
21.02.2018 06:46 3,7 C 3,7 C 3,7 C 72 % 1019,2 hPa 0,0 l/m 4,5 km/h (1 Bft) O 90 0 min 0,000 mm 0,0 UV-I 18 W/m -0,9 C 3,7 C 8,0 km/h (2 Bft)
21.02.2018 06:44 3,7 C 3,7 C 3,7 C 72 % 1019,2 hPa 0,0 l/m 3,6 km/h (1 Bft) NO 51 0 min 0,000 mm 0,0 UV-I 18 W/m -0,9 C 3,7 C 6,4 km/h (2 Bft)
21.02.2018 06:42 3,7 C 3,7 C 3,7 C 72 % 1019,1 hPa 0,0 l/m 2,5 km/h (1 Bft) NO 42 0 min 0,000 mm 0,0 UV-I 18 W/m -0,9 C 3,7 C 6,4 km/h (2 Bft)
21.02.2018 06:40 3,7 C 3,7 C 3,7 C 72 % 1019,1 hPa 0,0 l/m 4,5 km/h (1 Bft) O-NO 65 0 min 0,000 mm 0,0 UV-I 18 W/m -0,9 C 3,7 C 8,0 km/h (2 Bft)
21.02.2018 06:38 3,7 C 3,7 C 3,7 C 72 % 1019,0 hPa 0,0 l/m 2,7 km/h (1 Bft) O-NO 65 0 min 0,000 mm 0,0 UV-I 18 W/m -0,9 C 3,7 C 8,0 km/h (2 Bft)
21.02.2018 06:36 3,7 C 3,7 C 3,7 C 72 % 1019,0 hPa 0,0 l/m 3,5 km/h (1 Bft) O-NO 61 0 min 0,000 mm 0,0 UV-I 18 W/m -0,9 C 3,7 C 6,4 km/h (2 Bft)
21.02.2018 06:34 3,7 C 3,7 C 3,7 C 72 % 1019,0 hPa 0,0 l/m 3,0 km/h (1 Bft) O-NO 60 0 min 0,000 mm 0,0 UV-I 18 W/m -0,9 C 3,7 C 6,4 km/h (2 Bft)
21.02.2018 06:32 3,7 C 3,7 C 3,7 C 72 % 1019,0 hPa 0,0 l/m 3,2 km/h (1 Bft) O-NO 62 0 min 0,000 mm 0,0 UV-I 18 W/m -0,9 C 3,7 C 6,4 km/h (2 Bft)
21.02.2018 06:30 3,7 C 3,7 C 3,7 C 72 % 1019,0 hPa 0,0 l/m 2,8 km/h (1 Bft) O-NO 67 0 min 0,000 mm 0,0 UV-I 18 W/m -0,9 C 3,7 C 4,8 km/h (1 Bft)
21.02.2018 06:28 3,7 C 3,7 C 3,7 C 72 % 1019,1 hPa 0,0 l/m 3,5 km/h (1 Bft) O-NO 66 0 min 0,000 mm 0,0 UV-I 18 W/m -0,9 C 3,7 C 6,4 km/h (2 Bft)
21.02.2018 06:26 3,7 C 3,7 C 3,7 C 72 % 1019,1 hPa 0,0 l/m 2,4 km/h (1 Bft) O-NO 69 0 min 0,000 mm 0,0 UV-I 18 W/m -0,9 C 3,7 C 6,4 km/h (2 Bft)
21.02.2018 06:24 3,7 C 3,7 C 3,7 C 72 % 1019,1 hPa 0,0 l/m 0,9 km/h (0 Bft) O-NO 69 0 min 0,000 mm 0,0 UV-I 18 W/m -0,9 C 3,7 C 4,8 km/h (1 Bft)
21.02.2018 06:22 3,7 C 3,7 C 3,7 C 72 % 1019,1 hPa 0,0 l/m 0,4 km/h (0 Bft) O-NO 69 0 min 0,000 mm 0,0 UV-I 18 W/m -0,9 C 3,7 C 3,2 km/h (1 Bft)
21.02.2018 06:20 3,7 C 3,7 C 3,7 C 72 % 1019,1 hPa 0,0 l/m 0,5 km/h (0 Bft) O-NO 69 0 min 0,000 mm 0,0 UV-I 18 W/m -0,9 C 3,7 C 3,2 km/h (1 Bft)
21.02.2018 06:18 3,7 C 3,7 C 3,7 C 72 % 1019,2 hPa 0,0 l/m 0,4 km/h (0 Bft) O-NO 69 0 min 0,000 mm 0,0 UV-I 18 W/m -0,9 C 3,7 C 3,2 km/h (1 Bft)
21.02.2018 06:16 3,7 C 3,7 C 3,7 C 72 % 1019,1 hPa 0,0 l/m 0,0 km/h (0 Bft) O-NO 69 0 min 0,000 mm 0,0 UV-I 18 W/m -0,9 C 3,7 C 0,0 km/h (0 Bft)
21.02.2018 06:14 3,7 C 3,7 C 3,7 C 72 % 1019,1 hPa 0,0 l/m 0,0 km/h (0 Bft) O-NO 69 0 min 0,000 mm 0,0 UV-I 18 W/m -0,9 C 3,7 C 0,0 km/h (0 Bft)
21.02.2018 06:12 3,7 C 3,7 C 3,7 C 72 % 1019,3 hPa 0,0 l/m 0,6 km/h (0 Bft) O-NO 69 0 min 0,000 mm 0,0 UV-I 18 W/m -0,9 C 3,7 C 4,8 km/h (1 Bft)
21.02.2018 06:10 3,7 C 3,7 C 3,7 C 72 % 1019,3 hPa 0,0 l/m 0,7 km/h (0 Bft) O-NO 69 0 min 0,000 mm 0,0 UV-I 18 W/m -0,9 C 3,7 C 6,4 km/h (2 Bft)
21.02.2018 06:08 3,7 C 3,7 C 3,7 C 72 % 1019,3 hPa 0,0 l/m 1,3 km/h (1 Bft) O-NO 72 0 min 0,000 mm 0,0 UV-I 18 W/m -0,9 C 3,7 C 4,8 km/h (1 Bft)
21.02.2018 06:06 3,7 C 3,7 C 3,7 C 72 % 1019,3 hPa 0,0 l/m 2,6 km/h (1 Bft) O-NO 72 0 min 0,000 mm 0,0 UV-I 18 W/m -0,9 C 3,7 C 6,4 km/h (2 Bft)
21.02.2018 06:04 3,7 C 3,7 C 3,7 C 72 % 1019,4 hPa 0,0 l/m 2,2 km/h (1 Bft) O-NO 61 0 min 0,000 mm 0,0 UV-I 18 W/m -0,9 C 3,7 C 4,8 km/h (1 Bft)
21.02.2018 06:02 3,7 C 3,7 C 3,7 C 72 % 1019,4 hPa 0,0 l/m 2,4 km/h (1 Bft) O-NO 61 0 min 0,000 mm 0,0 UV-I 18 W/m -0,9 C 3,7 C 6,4 km/h (2 Bft)
21.02.2018 06:00 3,7 C 3,7 C 3,7 C 72 % 1019,3 hPa 0,0 l/m 0,8 km/h (0 Bft) NO 49 0 min 0,000 mm 0,0 UV-I 18 W/m -0,9 C 3,7 C 4,8 km/h (1 Bft)
21.02.2018 05:58 3,7 C 3,7 C 3,7 C 72 % 1019,4 hPa 0,0 l/m 1,2 km/h (1 Bft) NO 49 0 min 0,000 mm 0,0 UV-I 18 W/m -0,9 C 3,7 C 4,8 km/h (1 Bft)
21.02.2018 05:56 3,7 C 3,7 C 3,7 C 72 % 1019,3 hPa 0,0 l/m 1,9 km/h (1 Bft) NO 48 0 min 0,000 mm 0,0 UV-I 18 W/m -0,9 C 3,7 C 6,4 km/h (2 Bft)
21.02.2018 05:54 3,7 C 3,7 C 3,7 C 72 % 1019,3 hPa 0,0 l/m 1,6 km/h (1 Bft) O 82 0 min 0,000 mm 0,0 UV-I 18 W/m -0,9 C 3,7 C 6,4 km/h (2 Bft)
21.02.2018 05:52 3,7 C 3,7 C 3,7 C 72 % 1019,3 hPa 0,0 l/m 1,8 km/h (1 Bft) O 82 0 min 0,000 mm 0,0 UV-I 18 W/m -0,9 C 3,7 C 4,8 km/h (1 Bft)
21.02.2018 05:50 3,7 C 3,7 C 3,7 C 72 % 1019,4 hPa 0,0 l/m 3,0 km/h (1 Bft) O 82 0 min 0,000 mm 0,0 UV-I 18 W/m -0,9 C 3,7 C 6,4 km/h (2 Bft)
21.02.2018 05:48 3,7 C 3,7 C 3,7 C 72 % 1019,4 hPa 0,0 l/m 3,0 km/h (1 Bft) O 82 0 min 0,000 mm 0,0 UV-I 18 W/m -0,9 C 3,7 C 6,4 km/h (2 Bft)
21.02.2018 05:46 3,7 C 3,7 C 3,7 C 72 % 1019,4 hPa 0,0 l/m 3,0 km/h (1 Bft) O 80 0 min 0,000 mm 0,0 UV-I 18 W/m -0,9 C 3,7 C 6,4 km/h (2 Bft)
21.02.2018 05:44 3,7 C 3,7 C 3,7 C 72 % 1019,4 hPa 0,0 l/m 1,1 km/h (1 Bft) O 80 0 min 0,000 mm 0,0 UV-I 18 W/m -0,9 C 3,7 C 4,8 km/h (1 Bft)
21.02.2018 05:42 3,7 C 3,7 C 3,7 C 72 % 1019,5 hPa 0,0 l/m 4,6 km/h (1 Bft) O 81 0 min 0,000 mm 0,0 UV-I 18 W/m -0,9 C 3,7 C 8,0 km/h (2 Bft)
21.02.2018 05:40 3,7 C 3,7 C 3,7 C 72 % 1019,6 hPa 0,0 l/m 3,7 km/h (1 Bft) O-NO 57 0 min 0,000 mm 0,0 UV-I 18 W/m -0,9 C 3,7 C 9,7 km/h (2 Bft)
21.02.2018 05:38 3,7 C 3,7 C 3,7 C 72 % 1019,5 hPa 0,0 l/m 3,0 km/h (1 Bft) NO 40 0 min 0,000 mm 0,0 UV-I 18 W/m -0,9 C 3,7 C 6,4 km/h (2 Bft)
21.02.2018 05:36 3,7 C 3,7 C 3,7 C 72 % 1019,5 hPa 0,0 l/m 4,5 km/h (1 Bft) NO 40 0 min 0,000 mm 0,0 UV-I 18 W/m -0,9 C 3,7 C 9,7 km/h (2 Bft)
21.02.2018 05:34 3,7 C 3,7 C 3,7 C 72 % 1019,5 hPa 0,0 l/m 3,7 km/h (1 Bft) NO 50 0 min 0,000 mm 0,0 UV-I 18 W/m -0,9 C 3,7 C 6,4 km/h (2 Bft)
21.02.2018 05:32 3,7 C 3,7 C 3,7 C 72 % 1019,5 hPa 0,0 l/m 6,2 km/h (2 Bft) NO 51 0 min 0,000 mm 0,0 UV-I 18 W/m -0,9 C 3,7 C 8,0 km/h (2 Bft)
21.02.2018 05:30 3,7 C 3,7 C 3,7 C 72 % 1019,5 hPa 0,0 l/m 1,8 km/h (1 Bft) NO 51 0 min 0,000 mm 0,0 UV-I 18 W/m -0,9 C 3,7 C 9,7 km/h (2 Bft)
21.02.2018 05:28 3,7 C 3,7 C 3,7 C 72 % 1019,5 hPa 0,0 l/m 3,8 km/h (1 Bft) NO 47 0 min 0,000 mm 0,0 UV-I 18 W/m -0,9 C 3,7 C 8,0 km/h (2 Bft)
21.02.2018 05:26 3,7 C 3,7 C 3,7 C 72 % 1019,5 hPa 0,0 l/m 4,4 km/h (1 Bft) NO 44 0 min 0,000 mm 0,0 UV-I 18 W/m -0,9 C 3,7 C 8,0 km/h (2 Bft)
21.02.2018 05:24 3,7 C 3,7 C 3,7 C 72 % 1019,5 hPa 0,0 l/m 4,0 km/h (1 Bft) NO 44 0 min 0,000 mm 0,0 UV-I 18 W/m -0,9 C 3,7 C 6,4 km/h (2 Bft)
21.02.2018 05:22 3,7 C 3,7 C 3,7 C 72 % 1019,5 hPa 0,0 l/m 3,3 km/h (1 Bft) N-NO 24 0 min 0,000 mm 0,0 UV-I 18 W/m -0,9 C 3,7 C 8,0 km/h (2 Bft)
21.02.2018 05:20 3,7 C 3,7 C 3,7 C 72 % 1019,4 hPa 0,0 l/m 2,1 km/h (1 Bft) NO 38 0 min 0,000 mm 0,0 UV-I 18 W/m -0,9 C 3,7 C 6,4 km/h (2 Bft)
21.02.2018 05:18 3,7 C 3,7 C 3,7 C 72 % 1019,4 hPa 0,0 l/m 1,5 km/h (1 Bft) NO 38 0 min 0,000 mm 0,0 UV-I 18 W/m -0,9 C 3,7 C 6,4 km/h (2 Bft)
21.02.2018 05:16 3,7 C 3,7 C 3,7 C 72 % 1019,4 hPa 0,0 l/m 1,7 km/h (1 Bft) NO 38 0 min 0,000 mm 0,0 UV-I 18 W/m -0,9 C 3,7 C 6,4 km/h (2 Bft)
21.02.2018 05:14 3,7 C 3,7 C 3,7 C 72 % 1019,3 hPa 0,0 l/m 2,2 km/h (1 Bft) NO 37 0 min 0,000 mm 0,0 UV-I 18 W/m -0,9 C 3,7 C 6,4 km/h (2 Bft)
21.02.2018 05:12 3,7 C 3,7 C 3,7 C 72 % 1019,1 hPa 0,0 l/m 5,2 km/h (1 Bft) NO 39 0 min 0,000 mm 0,0 UV-I 18 W/m -0,9 C 3,7 C 8,0 km/h (2 Bft)
21.02.2018 05:10 3,7 C 3,7 C 3,7 C 72 % 1019,1 hPa 0,0 l/m 4,5 km/h (1 Bft) NO 46 0 min 0,000 mm 0,0 UV-I 18 W/m -0,9 C 3,7 C 8,0 km/h (2 Bft)
21.02.2018 05:08 3,7 C 3,7 C 3,7 C 72 % 1019,0 hPa 0,0 l/m 2,0 km/h (1 Bft) O-NO 59 0 min 0,000 mm 0,0 UV-I 18 W/m -0,9 C 3,7 C 4,8 km/h (1 Bft)
21.02.2018 05:06 3,7 C 3,7 C 3,7 C 72 % 1018,9 hPa 0,0 l/m 0,3 km/h (0 Bft) O-NO 66 0 min 0,000 mm 0,0 UV-I 18 W/m -0,9 C 3,7 C 3,2 km/h (1 Bft)
21.02.2018 05:04 3,7 C 3,7 C 3,7 C 72 % 1019,0 hPa 0,0 l/m 1,5 km/h (1 Bft) O-NO 66 0 min 0,000 mm 0,0 UV-I 18 W/m -0,9 C 3,7 C 4,8 km/h (1 Bft)
21.02.2018 05:02 3,7 C 3,7 C 3,7 C 72 % 1019,0 hPa 0,0 l/m 0,7 km/h (0 Bft) O-NO 67 0 min 0,000 mm 0,0 UV-I 18 W/m -0,9 C 3,7 C 4,8 km/h (1 Bft)
21.02.2018 05:00 3,7 C 3,7 C 3,7 C 72 % 1019,0 hPa 0,0 l/m 1,3 km/h (1 Bft) O-NO 67 0 min 0,000 mm 0,0 UV-I 18 W/m -0,9 C 3,7 C 4,8 km/h (1 Bft)
21.02.2018 04:58 3,7 C 3,7 C 3,7 C 72 % 1019,0 hPa 0,0 l/m 2,0 km/h (1 Bft) O-NO 67 0 min 0,000 mm 0,0 UV-I 18 W/m -0,9 C 3,7 C 4,8 km/h (1 Bft)
21.02.2018 04:56 3,7 C 3,7 C 3,7 C 72 % 1019,1 hPa 0,0 l/m 2,8 km/h (1 Bft) O-NO 67 0 min 0,000 mm 0,0 UV-I 18 W/m -0,9 C 3,7 C 6,4 km/h (2 Bft)
21.02.2018 04:54 3,7 C 3,7 C 3,7 C 72 % 1019,0 hPa 0,0 l/m 3,1 km/h (1 Bft) O-NO 69 0 min 0,000 mm 0,0 UV-I 18 W/m -0,9 C 3,7 C 6,4 km/h (2 Bft)
21.02.2018 04:52 3,7 C 3,7 C 3,7 C 72 % 1019,0 hPa 0,0 l/m 4,8 km/h (1 Bft) O-NO 65 0 min 0,000 mm 0,0 UV-I 18 W/m -0,9 C 3,7 C 8,0 km/h (2 Bft)
21.02.2018 04:50 3,7 C 3,7 C 3,7 C 72 % 1019,0 hPa 0,0 l/m 2,2 km/h (1 Bft) O-NO 63 0 min 0,000 mm 0,0 UV-I 18 W/m -0,9 C 3,7 C 6,4 km/h (2 Bft)
21.02.2018 04:48 3,7 C 3,7 C 3,7 C 72 % 1019,1 hPa 0,0 l/m 2,8 km/h (1 Bft) O-NO 64 0 min 0,000 mm 0,0 UV-I 18 W/m -0,9 C 3,7 C 6,4 km/h (2 Bft)
21.02.2018 04:46 3,7 C 3,7 C 3,7 C 72 % 1019,2 hPa 0,0 l/m 5,5 km/h (2 Bft) O-NO 63 0 min 0,000 mm 0,0 UV-I 18 W/m -0,9 C 3,7 C 9,7 km/h (2 Bft)
21.02.2018 04:44 3,7 C 3,7 C 3,7 C 72 % 1019,2 hPa 0,0 l/m 3,3 km/h (1 Bft) NO 54 0 min 0,000 mm 0,0 UV-I 18 W/m -0,9 C 3,7 C 6,4 km/h (2 Bft)
21.02.2018 04:42 3,7 C 3,7 C 3,7 C 72 % 1019,1 hPa 0,0 l/m 3,8 km/h (1 Bft) O-NO 57 0 min 0,000 mm 0,0 UV-I 18 W/m -0,9 C 3,7 C 6,4 km/h (2 Bft)
21.02.2018 04:40 3,7 C 3,7 C 3,7 C 72 % 1019,1 hPa 0,0 l/m 3,8 km/h (1 Bft) O-NO 57 0 min 0,000 mm 0,0 UV-I 18 W/m -0,9 C 3,7 C 6,4 km/h (2 Bft)
21.02.2018 04:38 3,7 C 3,7 C 3,7 C 72 % 1019,1 hPa 0,0 l/m 5,5 km/h (2 Bft) NO 56 0 min 0,000 mm 0,0 UV-I 18 W/m -0,9 C 3,7 C 8,0 km/h (2 Bft)
21.02.2018 04:36 3,7 C 3,7 C 3,7 C 72 % 1019,1 hPa 0,0 l/m 4,1 km/h (1 Bft) O-NO 57 0 min 0,000 mm 0,0 UV-I 18 W/m -0,9 C 3,7 C 8,0 km/h (2 Bft)
21.02.2018 04:34 3,7 C 3,7 C 3,7 C 72 % 1019,0 hPa 0,0 l/m 3,6 km/h (1 Bft) O-NO 63 0 min 0,000 mm 0,0 UV-I 18 W/m -0,9 C 3,7 C 6,4 km/h (2 Bft)
21.02.2018 04:32 3,7 C 3,7 C 3,7 C 72 % 1019,0 hPa 0,0 l/m 4,5 km/h (1 Bft) O-NO 59 0 min 0,000 mm 0,0 UV-I 18 W/m -0,9 C 3,7 C 8,0 km/h (2 Bft)
21.02.2018 04:30 3,7 C 3,7 C 3,7 C 72 % 1019,1 hPa 0,0 l/m 5,5 km/h (2 Bft) O-NO 58 0 min 0,000 mm 0,0 UV-I 18 W/m -0,9 C 3,7 C 8,0 km/h (2 Bft)
21.02.2018 04:28 3,7 C 3,7 C 3,7 C 72 % 1019,0 hPa 0,0 l/m 5,4 km/h (2 Bft) NO 53 0 min 0,000 mm 0,0 UV-I 18 W/m -0,9 C 3,7 C 8,0 km/h (2 Bft)
21.02.2018 04:26 3,7 C 3,7 C 3,7 C 72 % 1019,1 hPa 0,0 l/m 5,1 km/h (1 Bft) O-NO 59 0 min 0,000 mm 0,0 UV-I 18 W/m -0,9 C 3,7 C 9,7 km/h (2 Bft)
21.02.2018 04:24 3,7 C 3,7 C 3,7 C 72 % 1019,1 hPa 0,0 l/m 5,5 km/h (2 Bft) NO 55 0 min 0,000 mm 0,0 UV-I 18 W/m -0,9 C 3,7 C 9,7 km/h (2 Bft)
21.02.2018 04:22 3,7 C 3,7 C 3,7 C 72 % 1019,0 hPa 0,0 l/m 3,9 km/h (1 Bft) NO 51 0 min 0,000 mm 0,0 UV-I 18 W/m -0,9 C 3,7 C 9,7 km/h (2 Bft)
21.02.2018 04:20 3,7 C 3,7 C 3,7 C 72 % 1019,0 hPa 0,0 l/m 1,4 km/h (1 Bft) NO 46 0 min 0,000 mm 0,0 UV-I 18 W/m -0,9 C 3,7 C 4,8 km/h (1 Bft)
21.02.2018 04:18 3,7 C 3,7 C 3,7 C 72 % 1019,1 hPa 0,0 l/m 2,4 km/h (1 Bft) NO 46 0 min 0,000 mm 0,0 UV-I 18 W/m -0,9 C 3,7 C 4,8 km/h (1 Bft)
21.02.2018 04:16 3,7 C 3,7 C 3,7 C 72 % 1019,1 hPa 0,0 l/m 3,6 km/h (1 Bft) NO 45 0 min 0,000 mm 0,0 UV-I 18 W/m -0,9 C 3,7 C 8,0 km/h (2 Bft)
21.02.2018 04:14 3,7 C 3,7 C 3,7 C 72 % 1019,1 hPa 0,0 l/m 4,2 km/h (1 Bft) NO 46 0 min 0,000 mm 0,0 UV-I 18 W/m -0,9 C 3,7 C 11,3 km/h (2 Bft)
21.02.2018 04:12 3,7 C 3,7 C 3,7 C 72 % 1019,1 hPa 0,0 l/m 4,6 km/h (1 Bft) NO 42 0 min 0,000 mm 0,0 UV-I 18 W/m -0,9 C 3,7 C 8,0 km/h (2 Bft)
21.02.2018 04:10 3,7 C 3,7 C 3,7 C 72 % 1019,2 hPa 0,0 l/m 2,4 km/h (1 Bft) NO 41 0 min 0,000 mm 0,0 UV-I 18 W/m -0,9 C 3,7 C 6,4 km/h (2 Bft)
21.02.2018 04:08 3,7 C 3,7 C 3,7 C 72 % 1019,1 hPa 0,0 l/m 4,0 km/h (1 Bft) NO 44 0 min 0,000 mm 0,0 UV-I 18 W/m -0,9 C 3,7 C 8,0 km/h (2 Bft)
21.02.2018 04:06 3,7 C 3,7 C 3,7 C 72 % 1019,1 hPa 0,0 l/m 5,0 km/h (1 Bft) NO 46 0 min 0,000 mm 0,0 UV-I 18 W/m -0,9 C 3,7 C 9,7 km/h (2 Bft)
21.02.2018 04:04 3,7 C 3,7 C 3,7 C 72 % 1019,0 hPa 0,0 l/m 4,4 km/h (1 Bft) NO 50 0 min 0,000 mm 0,0 UV-I 18 W/m -0,9 C 3,7 C 9,7 km/h (2 Bft)
21.02.2018 04:02 3,7 C 3,7 C 3,7 C 72 % 1018,9 hPa 0,0 l/m 2,2 km/h (1 Bft) O 82 0 min 0,000 mm 0,0 UV-I 18 W/m -0,9 C 3,7 C 6,4 km/h (2 Bft)
21.02.2018 04:00 3,7 C 3,7 C 3,7 C 72 % 1018,9 hPa 0,0 l/m 5,5 km/h (2 Bft) O 79 0 min 0,000 mm 0,0 UV-I 18 W/m -0,9 C 3,7 C 9,7 km/h (2 Bft)
21.02.2018 03:58 3,7 C 3,7 C 3,7 C 72 % 1019,0 hPa 0,0 l/m 4,7 km/h (1 Bft) O-NO 65 0 min 0,000 mm 0,0 UV-I 18 W/m -0,9 C 3,7 C 12,9 km/h (3 Bft)
21.02.2018 03:56 3,7 C 3,7 C 3,7 C 72 % 1018,9 hPa 0,0 l/m 3,1 km/h (1 Bft) NO 48 0 min 0,000 mm 0,0 UV-I 18 W/m -0,9 C 3,7 C 9,7 km/h (2 Bft)
21.02.2018 03:54 3,7 C 3,7 C 3,7 C 72 % 1018,9 hPa 0,0 l/m 4,6 km/h (1 Bft) O-NO 78 0 min 0,000 mm 0,0 UV-I 18 W/m -0,9 C 3,7 C 8,0 km/h (2 Bft)
21.02.2018 03:52 3,7 C 3,7 C 3,7 C 72 % 1018,9 hPa 0,0 l/m 5,4 km/h (2 Bft) NO 56 0 min 0,000 mm 0,0 UV-I 18 W/m -0,9 C 3,7 C 17,7 km/h (3 Bft)
21.02.2018 03:50 3,7 C 3,7 C 3,7 C 72 % 1018,9 hPa 0,0 l/m 0,6 km/h (0 Bft) O 85 0 min 0,000 mm 0,0 UV-I 18 W/m -0,9 C 3,7 C 3,2 km/h (1 Bft)
21.02.2018 03:48 3,7 C 3,7 C 3,7 C 72 % 1018,9 hPa 0,0 l/m 2,9 km/h (1 Bft) O 93 0 min 0,000 mm 0,0 UV-I 18 W/m -0,9 C 3,7 C 4,8 km/h (1 Bft)
21.02.2018 03:46 3,7 C 3,7 C 3,7 C 72 % 1018,9 hPa 0,0 l/m 3,2 km/h (1 Bft) O 92 0 min 0,000 mm 0,0 UV-I 18 W/m -0,9 C 3,7 C 6,4 km/h (2 Bft)
21.02.2018 03:44 3,7 C 3,7 C 3,7 C 72 % 1018,8 hPa 0,0 l/m 1,2 km/h (1 Bft) O 93 0 min 0,000 mm 0,0 UV-I 18 W/m -0,9 C 3,7 C 4,8 km/h (1 Bft)
21.02.2018 03:42 3,7 C 3,7 C 3,7 C 72 % 1018,9 hPa 0,0 l/m 3,4 km/h (1 Bft) O 93 0 min 0,000 mm 0,0 UV-I 18 W/m -0,9 C 3,7 C 8,0 km/h (2 Bft)
21.02.2018 03:40 3,7 C 3,7 C 3,7 C 72 % 1018,9 hPa 0,0 l/m 0,8 km/h (0 Bft) O 84 0 min 0,000 mm 0,0 UV-I 18 W/m -0,9 C 3,7 C 3,2 km/h (1 Bft)
21.02.2018 03:38 3,7 C 3,7 C 3,7 C 72 % 1018,9 hPa 0,0 l/m 1,8 km/h (1 Bft) O 86 0 min 0,000 mm 0,0 UV-I 18 W/m -0,9 C 3,7 C 8,0 km/h (2 Bft)
21.02.2018 03:36 3,7 C 3,7 C 3,7 C 72 % 1019,0 hPa 0,0 l/m 2,2 km/h (1 Bft) O 86 0 min 0,000 mm 0,0 UV-I 18 W/m -0,9 C 3,7 C 8,0 km/h (2 Bft)
21.02.2018 03:34 3,7 C 3,7 C 3,7 C 72 % 1018,9 hPa 0,0 l/m 2,8 km/h (1 Bft) O 89 0 min 0,000 mm 0,0 UV-I 18 W/m -0,9 C 3,7 C 6,4 km/h (2 Bft)
21.02.2018 03:32 3,7 C 3,7 C 3,7 C 72 % 1019,0 hPa 0,0 l/m 0,7 km/h (0 Bft) O-NO 72 0 min 0,000 mm 0,0 UV-I 18 W/m -0,9 C 3,7 C 4,8 km/h (1 Bft)
21.02.2018 03:30 3,7 C 3,7 C 3,7 C 72 % 1019,0 hPa 0,0 l/m 2,0 km/h (1 Bft) O-NO 67 0 min 0,000 mm 0,0 UV-I 18 W/m -0,9 C 3,7 C 6,4 km/h (2 Bft)
21.02.2018 03:28 3,7 C 3,7 C 3,7 C 72 % 1019,0 hPa 0,0 l/m 2,7 km/h (1 Bft) O-NO 65 0 min 0,000 mm 0,0 UV-I 18 W/m -0,9 C 3,7 C 6,4 km/h (2 Bft)
21.02.2018 03:26 3,7 C 3,7 C 3,7 C 72 % 1018,9 hPa 0,0 l/m 5,0 km/h (1 Bft) O-NO 65 0 min 0,000 mm 0,0 UV-I 18 W/m -0,9 C 3,7 C 8,0 km/h (2 Bft)
21.02.2018 03:24 3,7 C 3,7 C 3,7 C 72 % 1019,0 hPa 0,0 l/m 4,2 km/h (1 Bft) O-NO 67 0 min 0,000 mm 0,0 UV-I 18 W/m -0,9 C 3,7 C 8,0 km/h (2 Bft)
21.02.2018 03:22 3,7 C 3,7 C 3,7 C 72 % 1019,0 hPa 0,0 l/m 3,3 km/h (1 Bft) O-NO 71 0 min 0,000 mm 0,0 UV-I 18 W/m -0,9 C 3,7 C 6,4 km/h (2 Bft)
21.02.2018 03:20 3,7 C 3,7 C 3,7 C 72 % 1019,0 hPa 0,0 l/m 3,4 km/h (1 Bft) O 89 0 min 0,000 mm 0,0 UV-I 18 W/m -0,9 C 3,7 C 6,4 km/h (2 Bft)
21.02.2018 03:18 3,7 C 3,7 C 3,7 C 72 % 1019,0 hPa 0,0 l/m 4,4 km/h (1 Bft) O 94 0 min 0,000 mm 0,0 UV-I 18 W/m -0,9 C 3,7 C 8,0 km/h (2 Bft)
21.02.2018 03:16 3,7 C 3,7 C 3,7 C 72 % 1018,9 hPa 0,0 l/m 2,1 km/h (1 Bft) O-NO 65 0 min 0,000 mm 0,0 UV-I 18 W/m -0,9 C 3,7 C 6,4 km/h (2 Bft)
21.02.2018 03:14 3,7 C 3,7 C 3,7 C 72 % 1018,9 hPa 0,0 l/m 2,5 km/h (1 Bft) O-NO 57 0 min 0,000 mm 0,0 UV-I 18 W/m -0,9 C 3,7 C 8,0 km/h (2 Bft)
21.02.2018 03:12 3,7 C 3,7 C 3,7 C 72 % 1018,9 hPa 0,0 l/m 2,1 km/h (1 Bft) NO 55 0 min 0,000 mm 0,0 UV-I 18 W/m -0,9 C 3,7 C 6,4 km/h (2 Bft)
21.02.2018 03:10 3,7 C 3,7 C 3,7 C 72 % 1018,9 hPa 0,0 l/m 2,2 km/h (1 Bft) NO 50 0 min 0,000 mm 0,0 UV-I 18 W/m -0,9 C 3,7 C 9,7 km/h (2 Bft)
21.02.2018 03:08 3,7 C 3,7 C 3,7 C 72 % 1019,0 hPa 0,0 l/m 5,3 km/h (1 Bft) O-NO 59 0 min 0,000 mm 0,0 UV-I 18 W/m -0,9 C 3,7 C 14,5 km/h (3 Bft)
21.02.2018 03:06 3,7 C 3,7 C 3,7 C 72 % 1019,0 hPa 0,0 l/m 3,7 km/h (1 Bft) O-NO 59 0 min 0,000 mm 0,0 UV-I 18 W/m -0,9 C 3,7 C 9,7 km/h (2 Bft)
21.02.2018 03:04 3,7 C 3,7 C 3,7 C 72 % 1018,9 hPa 0,0 l/m 1,8 km/h (1 Bft) O 90 0 min 0,000 mm 0,0 UV-I 18 W/m -0,9 C 3,7 C 6,4 km/h (2 Bft)
21.02.2018 03:02 3,7 C 3,7 C 3,7 C 72 % 1018,8 hPa 0,0 l/m 4,0 km/h (1 Bft) O-NO 78 0 min 0,000 mm 0,0 UV-I 18 W/m -0,9 C 3,7 C 8,0 km/h (2 Bft)
21.02.2018 03:00 3,7 C 3,7 C 3,7 C 72 % 1018,9 hPa 0,0 l/m 3,4 km/h (1 Bft) O-NO 67 0 min 0,000 mm 0,0 UV-I 18 W/m -0,9 C 3,7 C 6,4 km/h (2 Bft)
21.02.2018 02:58 3,7 C 3,7 C 3,7 C 72 % 1018,8 hPa 0,0 l/m 4,7 km/h (1 Bft) O-NO 67 0 min 0,000 mm 0,0 UV-I 18 W/m -0,9 C 3,7 C 8,0 km/h (2 Bft)
21.02.2018 02:56 3,7 C 3,7 C 3,7 C 72 % 1018,8 hPa 0,0 l/m 0,6 km/h (0 Bft) O-NO 62 0 min 0,000 mm 0,0 UV-I 18 W/m -0,9 C 3,7 C 3,2 km/h (1 Bft)
21.02.2018 02:54 3,7 C 3,7 C 3,7 C 72 % 1018,8 hPa 0,0 l/m 3,8 km/h (1 Bft) O-NO 62 0 min 0,000 mm 0,0 UV-I 18 W/m -0,9 C 3,7 C 6,4 km/h (2 Bft)
21.02.2018 02:52 3,7 C 3,7 C 3,7 C 72 % 1018,8 hPa 0,0 l/m 2,3 km/h (1 Bft) O 86 0 min 0,000 mm 0,0 UV-I 18 W/m -0,9 C 3,7 C 4,8 km/h (1 Bft)
21.02.2018 02:50 3,7 C 3,7 C 3,7 C 72 % 1018,7 hPa 0,0 l/m 3,0 km/h (1 Bft) O 86 0 min 0,000 mm 0,0 UV-I 18 W/m -0,9 C 3,7 C 4,8 km/h (1 Bft)
21.02.2018 02:48 3,7 C 3,7 C 3,7 C 72 % 1018,8 hPa 0,0 l/m 4,3 km/h (1 Bft) O 86 0 min 0,000 mm 0,0 UV-I 18 W/m -0,9 C 3,7 C 8,0 km/h (2 Bft)
21.02.2018 02:46 3,7 C 3,7 C 3,7 C 72 % 1018,7 hPa 0,0 l/m 4,6 km/h (1 Bft) O-NO 70 0 min 0,000 mm 0,0 UV-I 18 W/m -0,9 C 3,7 C 6,4 km/h (2 Bft)
21.02.2018 02:44 3,7 C 3,7 C 3,7 C 72 % 1018,7 hPa 0,0 l/m 4,2 km/h (1 Bft) O 87 0 min 0,000 mm 0,0 UV-I 18 W/m -0,9 C 3,7 C 9,7 km/h (2 Bft)
21.02.2018 02:42 3,7 C 3,7 C 3,7 C 72 % 1018,7 hPa 0,0 l/m 5,0 km/h (1 Bft) O-NO 68 0 min 0,000 mm 0,0 UV-I 18 W/m -0,9 C 3,7 C 8,0 km/h (2 Bft)
21.02.2018 02:40 3,7 C 3,7 C 3,7 C 72 % 1018,7 hPa 0,0 l/m 5,9 km/h (2 Bft) O-NO 70 0 min 0,000 mm 0,0 UV-I 18 W/m -0,9 C 3,7 C 9,7 km/h (2 Bft)
21.02.2018 02:38 3,7 C 3,7 C 3,7 C 72 % 1018,6 hPa 0,0 l/m 3,7 km/h (1 Bft) O 99 0 min 0,000 mm 0,0 UV-I 18 W/m -0,9 C 3,7 C 8,0 km/h (2 Bft)
21.02.2018 02:36 3,7 C 3,7 C 3,7 C 72 % 1018,6 hPa 0,0 l/m 4,9 km/h (1 Bft) O 82 0 min 0,000 mm 0,0 UV-I 18 W/m -0,9 C 3,7 C 9,7 km/h (2 Bft)
21.02.2018 02:34 3,7 C 3,7 C 3,7 C 72 % 1018,6 hPa 0,0 l/m 2,4 km/h (1 Bft) NO 51 0 min 0,000 mm 0,0 UV-I 18 W/m -0,9 C 3,7 C 9,7 km/h (2 Bft)
21.02.2018 02:32 3,7 C 3,7 C 3,7 C 72 % 1018,6 hPa 0,0 l/m 4,4 km/h (1 Bft) O-NO 64 0 min 0,000 mm 0,0 UV-I 18 W/m -0,9 C 3,7 C 6,4 km/h (2 Bft)
21.02.2018 02:30 3,7 C 3,7 C 3,7 C 72 % 1018,6 hPa 0,0 l/m 4,6 km/h (1 Bft) O-NO 59 0 min 0,000 mm 0,0 UV-I 18 W/m -0,9 C 3,7 C 8,0 km/h (2 Bft)
21.02.2018 02:28 3,7 C 3,7 C 3,7 C 72 % 1018,5 hPa 0,0 l/m 4,2 km/h (1 Bft) O-NO 65 0 min 0,000 mm 0,0 UV-I 18 W/m -0,9 C 3,7 C 8,0 km/h (2 Bft)
21.02.2018 02:26 3,7 C 3,7 C 3,7 C 72 % 1018,6 hPa 0,0 l/m 4,7 km/h (1 Bft) O 79 0 min 0,000 mm 0,0 UV-I 18 W/m -0,9 C 3,7 C 11,3 km/h (2 Bft)
21.02.2018 02:24 3,7 C 3,7 C 3,7 C 72 % 1018,5 hPa 0,0 l/m 4,7 km/h (1 Bft) O 92 0 min 0,000 mm 0,0 UV-I 18 W/m -0,9 C 3,7 C 11,3 km/h (2 Bft)
21.02.2018 02:22 3,7 C 3,7 C 3,7 C 72 % 1018,4 hPa 0,0 l/m 2,2 km/h (1 Bft) O-NO 62 0 min 0,000 mm 0,0 UV-I 18 W/m -0,9 C 3,7 C 8,0 km/h (2 Bft)
21.02.2018 02:20 3,7 C 3,7 C 3,7 C 72 % 1018,4 hPa 0,0 l/m 4,1 km/h (1 Bft) O 80 0 min 0,000 mm 0,0 UV-I 18 W/m -0,9 C 3,7 C 8,0 km/h (2 Bft)
21.02.2018 02:18 3,7 C 3,7 C 3,7 C 72 % 1018,5 hPa 0,0 l/m 0,7 km/h (0 Bft) O-NO 69 0 min 0,000 mm 0,0 UV-I 18 W/m -0,9 C 3,7 C 4,8 km/h (1 Bft)
21.02.2018 02:16 3,7 C 3,7 C 3,7 C 72 % 1018,4 hPa 0,0 l/m 1,1 km/h (1 Bft) O-NO 67 0 min 0,000 mm 0,0 UV-I 18 W/m -0,9 C 3,7 C 4,8 km/h (1 Bft)
21.02.2018 02:14 3,7 C 3,7 C 3,7 C 72 % 1018,6 hPa 0,0 l/m 5,1 km/h (1 Bft) O-NO 67 0 min 0,000 mm 0,0 UV-I 18 W/m -0,9 C 3,7 C 8,0 km/h (2 Bft)
21.02.2018 02:12 3,7 C 3,7 C 3,7 C 72 % 1018,5 hPa 0,0 l/m 2,4 km/h (1 Bft) O-NO 57 0 min 0,000 mm 0,0 UV-I 18 W/m -0,9 C 3,7 C 6,4 km/h (2 Bft)
21.02.2018 02:10 3,7 C 3,7 C 3,7 C 72 % 1018,5 hPa 0,0 l/m 3,9 km/h (1 Bft) O-NO 63 0 min 0,000 mm 0,0 UV-I 18 W/m -0,9 C 3,7 C 8,0 km/h (2 Bft)
21.02.2018 02:08 3,7 C 3,7 C 3,7 C 72 % 1018,5 hPa 0,0 l/m 2,9 km/h (1 Bft) O-NO 63 0 min 0,000 mm 0,0 UV-I 18 W/m -0,9 C 3,7 C 4,8 km/h (1 Bft)
21.02.2018 02:06 3,7 C 3,7 C 3,7 C 72 % 1018,5 hPa 0,0 l/m 4,5 km/h (1 Bft) O-NO 58 0 min 0,000 mm 0,0 UV-I 18 W/m -0,9 C 3,7 C 8,0 km/h (2 Bft)
21.02.2018 02:04 3,7 C 3,7 C 3,7 C 72 % 1018,4 hPa 0,0 l/m 7,5 km/h (2 Bft) O-NO 70 0 min 0,000 mm 0,0 UV-I 18 W/m -0,9 C 2,7 C 11,3 km/h (2 Bft)
21.02.2018 02:02 3,7 C 3,7 C 3,7 C 72 % 1018,3 hPa 0,0 l/m 3,1 km/h (1 Bft) O-NO 63 0 min 0,000 mm 0,0 UV-I 18 W/m -0,9 C 3,7 C 8,0 km/h (2 Bft)
21.02.2018 02:00 3,7 C 3,7 C 3,7 C 72 % 1018,3 hPa 0,0 l/m 3,1 km/h (1 Bft) NO 52 0 min 0,000 mm 0,0 UV-I 18 W/m -0,9 C 3,7 C 4,8 km/h (1 Bft)
21.02.2018 01:58 3,7 C 3,7 C 3,7 C 72 % 1018,4 hPa 0,0 l/m 3,4 km/h (1 Bft) NO 52 0 min 0,000 mm 0,0 UV-I 18 W/m -0,9 C 3,7 C 6,4 km/h (2 Bft)
21.02.2018 01:56 3,7 C 3,7 C 3,7 C 72 % 1018,3 hPa 0,0 l/m 2,9 km/h (1 Bft) NO 52 0 min 0,000 mm 0,0 UV-I 18 W/m -0,9 C 3,7 C 6,4 km/h (2 Bft)
21.02.2018 01:54 3,7 C 3,7 C 3,7 C 72 % 1018,3 hPa 0,0 l/m 4,9 km/h (1 Bft) NO 55 0 min 0,000 mm 0,0 UV-I 18 W/m -0,9 C 3,7 C 8,0 km/h (2 Bft)
21.02.2018 01:52 3,7 C 3,7 C 3,7 C 72 % 1018,3 hPa 0,0 l/m 4,6 km/h (1 Bft) NO 56 0 min 0,000 mm 0,0 UV-I 18 W/m -0,9 C 3,7 C 8,0 km/h (2 Bft)
21.02.2018 01:50 3,7 C 3,7 C 3,7 C 72 % 1018,3 hPa 0,0 l/m 3,9 km/h (1 Bft) O-NO 72 0 min 0,000 mm 0,0 UV-I 18 W/m -0,9 C 3,7 C 6,4 km/h (2 Bft)
21.02.2018 01:48 3,7 C 3,7 C 3,7 C 72 % 1018,3 hPa 0,0 l/m 4,1 km/h (1 Bft) O 99 0 min 0,000 mm 0,0 UV-I 18 W/m -0,9 C 3,7 C 8,0 km/h (2 Bft)
21.02.2018 01:46 3,7 C 3,7 C 3,7 C 72 % 1018,4 hPa 0,0 l/m 4,2 km/h (1 Bft) O-NO 57 0 min 0,000 mm 0,0 UV-I 18 W/m -0,9 C 3,7 C 8,0 km/h (2 Bft)
21.02.2018 01:44 3,7 C 3,7 C 3,7 C 72 % 1018,3 hPa 0,0 l/m 4,1 km/h (1 Bft) NO 55 0 min 0,000 mm 0,0 UV-I 18 W/m -0,9 C 3,7 C 6,4 km/h (2 Bft)
21.02.2018 01:42 3,7 C 3,7 C 3,7 C 72 % 1018,3 hPa 0,0 l/m 3,3 km/h (1 Bft) NO 54 0 min 0,000 mm 0,0 UV-I 18 W/m -0,9 C 3,7 C 6,4 km/h (2 Bft)
21.02.2018 01:40 3,7 C 3,7 C 3,7 C 72 % 1018,3 hPa 0,0 l/m 4,3 km/h (1 Bft) NO 53 0 min 0,000 mm 0,0 UV-I 18 W/m -0,9 C 3,7 C 6,4 km/h (2 Bft)
21.02.2018 01:38 3,7 C 3,7 C 3,7 C 72 % 1018,3 hPa 0,0 l/m 4,6 km/h (1 Bft) NO 48 0 min 0,000 mm 0,0 UV-I 18 W/m -0,9 C 3,7 C 6,4 km/h (2 Bft)
21.02.2018 01:36 3,7 C 3,7 C 3,7 C 72 % 1018,2 hPa 0,0 l/m 4,7 km/h (1 Bft) NO 47 0 min 0,000 mm 0,0 UV-I 18 W/m -0,9 C 3,7 C 8,0 km/h (2 Bft)
21.02.2018 01:34 3,7 C 3,7 C 3,7 C 72 % 1018,2 hPa 0,0 l/m 4,7 km/h (1 Bft) NO 51 0 min 0,000 mm 0,0 UV-I 18 W/m -0,9 C 3,7 C 6,4 km/h (2 Bft)
21.02.2018 01:32 3,7 C 3,7 C 3,7 C 72 % 1018,3 hPa 0,0 l/m 2,0 km/h (1 Bft) NO 51 0 min 0,000 mm 0,0 UV-I 18 W/m -0,9 C 3,7 C 6,4 km/h (2 Bft)
21.02.2018 01:30 3,7 C 3,7 C 3,7 C 72 % 1018,2 hPa 0,0 l/m 0,9 km/h (0 Bft) NO 55 0 min 0,000 mm 0,0 UV-I 18 W/m -0,9 C 3,7 C 4,8 km/h (1 Bft)
21.02.2018 01:28 3,7 C 3,7 C 3,7 C 72 % 1018,1 hPa 0,0 l/m 3,4 km/h (1 Bft) NO 55 0 min 0,000 mm 0,0 UV-I 18 W/m -0,9 C 3,7 C 6,4 km/h (2 Bft)
21.02.2018 01:26 3,7 C 3,7 C 3,7 C 72 % 1018,2 hPa 0,0 l/m 2,2 km/h (1 Bft) NO 51 0 min 0,000 mm 0,0 UV-I 18 W/m -0,9 C 3,7 C 6,4 km/h (2 Bft)
21.02.2018 01:24 3,7 C 3,7 C 3,7 C 72 % 1018,2 hPa 0,0 l/m 2,8 km/h (1 Bft) NO 52 0 min 0,000 mm 0,0 UV-I 18 W/m -0,9 C 3,7 C 6,4 km/h (2 Bft)
21.02.2018 01:22 3,7 C 3,7 C 3,7 C 72 % 1018,1 hPa 0,0 l/m 0,3 km/h (0 Bft) NO 51 0 min 0,000 mm 0,0 UV-I 18 W/m -0,9 C 3,7 C 3,2 km/h (1 Bft)
21.02.2018 01:20 3,7 C 3,7 C 3,7 C 72 % 1018,0 hPa 0,0 l/m 2,7 km/h (1 Bft) NO 51 0 min 0,000 mm 0,0 UV-I 18 W/m -0,9 C 3,7 C 6,4 km/h (2 Bft)
21.02.2018 01:18 3,7 C 3,7 C 3,7 C 72 % 1018,0 hPa 0,0 l/m 2,6 km/h (1 Bft) NO 50 0 min 0,000 mm 0,0 UV-I 18 W/m -0,9 C 3,7 C 6,4 km/h (2 Bft)
21.02.2018 01:16 3,7 C 3,7 C 3,7 C 72 % 1018,0 hPa 0,0 l/m 2,7 km/h (1 Bft) O-NO 66 0 min 0,000 mm 0,0 UV-I 18 W/m -0,9 C 3,7 C 4,8 km/h (1 Bft)
21.02.2018 01:14 3,7 C 3,7 C 3,7 C 72 % 1018,0 hPa 0,0 l/m 5,0 km/h (1 Bft) O-NO 65 0 min 0,000 mm 0,0 UV-I 18 W/m -0,9 C 3,7 C 8,0 km/h (2 Bft)
21.02.2018 01:12 3,7 C 3,7 C 3,7 C 72 % 1017,9 hPa 0,0 l/m 3,5 km/h (1 Bft) O-NO 63 0 min 0,000 mm 0,0 UV-I 18 W/m -0,9 C 3,7 C 4,8 km/h (1 Bft)
21.02.2018 01:10 3,7 C 3,7 C 3,7 C 72 % 1017,9 hPa 0,0 l/m 4,4 km/h (1 Bft) O-NO 62 0 min 0,000 mm 0,0 UV-I 18 W/m -0,9 C 3,7 C 8,0 km/h (2 Bft)
21.02.2018 01:08 3,7 C 3,7 C 3,7 C 72 % 1017,9 hPa 0,0 l/m 3,7 km/h (1 Bft) O-NO 70 0 min 0,000 mm 0,0 UV-I 18 W/m -0,9 C 3,7 C 6,4 km/h (2 Bft)
21.02.2018 01:06 3,7 C 3,7 C 3,7 C 72 % 1017,9 hPa 0,0 l/m 5,1 km/h (1 Bft) O 82 0 min 0,000 mm 0,0 UV-I 18 W/m -0,9 C 3,7 C 8,0 km/h (2 Bft)
21.02.2018 01:04 3,7 C 3,7 C 3,7 C 72 % 1017,9 hPa 0,0 l/m 2,9 km/h (1 Bft) O 88 0 min 0,000 mm 0,0 UV-I 18 W/m -0,9 C 3,7 C 4,8 km/h (1 Bft)
21.02.2018 01:02 3,7 C 3,7 C 3,7 C 72 % 1017,8 hPa 0,0 l/m 1,5 km/h (1 Bft) O 89 0 min 0,000 mm 0,0 UV-I 18 W/m -0,9 C 3,7 C 4,8 km/h (1 Bft)
21.02.2018 01:00 3,7 C 3,7 C 3,7 C 72 % 1017,7 hPa 0,0 l/m 4,3 km/h (1 Bft) O 89 0 min 0,000 mm 0,0 UV-I 18 W/m -0,9 C 3,7 C 6,4 km/h (2 Bft)
21.02.2018 00:58 3,7 C 3,7 C 3,7 C 72 % 1017,7 hPa 0,0 l/m 5,0 km/h (1 Bft) O 101 0 min 0,000 mm 0,0 UV-I 18 W/m -0,9 C 3,7 C 9,7 km/h (2 Bft)
21.02.2018 00:56 3,7 C 3,7 C 3,7 C 72 % 1017,8 hPa 0,0 l/m 1,0 km/h (0 Bft) O-NO 57 0 min 0,000 mm 0,0 UV-I 18 W/m -0,9 C 3,7 C 4,8 km/h (1 Bft)
21.02.2018 00:54 3,7 C 3,7 C 3,7 C 72 % 1017,7 hPa 0,0 l/m 4,8 km/h (1 Bft) O-NO 57 0 min 0,000 mm 0,0 UV-I 18 W/m -0,9 C 3,7 C 8,0 km/h (2 Bft)
21.02.2018 00:52 3,7 C 3,7 C 3,7 C 72 % 1017,8 hPa 0,0 l/m 4,7 km/h (1 Bft) O-NO 73 0 min 0,000 mm 0,0 UV-I 18 W/m -0,9 C 3,7 C 8,0 km/h (2 Bft)
21.02.2018 00:50 3,7 C 3,7 C 3,7 C 72 % 1017,7 hPa 0,0 l/m 4,3 km/h (1 Bft) NO 55 0 min 0,000 mm 0,0 UV-I 18 W/m -0,9 C 3,7 C 8,0 km/h (2 Bft)
21.02.2018 00:48 3,7 C 3,7 C 3,7 C 72 % 1017,7 hPa 0,0 l/m 5,6 km/h (2 Bft) O 86 0 min 0,000 mm 0,0 UV-I 18 W/m -0,9 C 3,7 C 11,3 km/h (2 Bft)
21.02.2018 00:46 3,7 C 3,7 C 3,7 C 72 % 1017,7 hPa 0,0 l/m 3,4 km/h (1 Bft) NO 46 0 min 0,000 mm 0,0 UV-I 18 W/m -0,9 C 3,7 C 9,7 km/h (2 Bft)
21.02.2018 00:44 3,7 C 3,7 C 3,7 C 72 % 1017,7 hPa 0,0 l/m 1,3 km/h (1 Bft) O 84 0 min 0,000 mm 0,0 UV-I 18 W/m -0,9 C 3,7 C 6,4 km/h (2 Bft)
21.02.2018 00:42 3,7 C 3,7 C 3,7 C 72 % 1017,7 hPa 0,0 l/m 4,1 km/h (1 Bft) O 84 0 min 0,000 mm 0,0 UV-I 18 W/m -0,9 C 3,7 C 8,0 km/h (2 Bft)
21.02.2018 00:40 3,7 C 3,7 C 3,7 C 72 % 1017,6 hPa 0,0 l/m 2,0 km/h (1 Bft) O-NO 59 0 min 0,000 mm 0,0 UV-I 18 W/m -0,9 C 3,7 C 6,4 km/h (2 Bft)
21.02.2018 00:38 3,7 C 3,7 C 3,7 C 72 % 1017,7 hPa 0,0 l/m 4,9 km/h (1 Bft) O-NO 62 0 min 0,000 mm 0,0 UV-I 18 W/m -0,9 C 3,7 C 8,0 km/h (2 Bft)
21.02.2018 00:36 3,7 C 3,7 C 3,7 C 72 % 1017,7 hPa 0,0 l/m 5,1 km/h (1 Bft) O-NO 71 0 min 0,000 mm 0,0 UV-I 18 W/m -0,9 C 3,7 C 11,3 km/h (2 Bft)
21.02.2018 00:34 3,7 C 3,7 C 3,7 C 72 % 1017,7 hPa 0,0 l/m 4,8 km/h (1 Bft) O-NO 69 0 min 0,000 mm 0,0 UV-I 18 W/m -0,9 C 3,7 C 8,0 km/h (2 Bft)
21.02.2018 00:32 3,7 C 3,7 C 3,7 C 72 % 1017,7 hPa 0,0 l/m 4,2 km/h (1 Bft) O-NO 63 0 min 0,000 mm 0,0 UV-I 18 W/m -0,9 C 3,7 C 6,4 km/h (2 Bft)
21.02.2018 00:30 3,7 C 3,7 C 3,7 C 72 % 1017,6 hPa 0,0 l/m 5,1 km/h (1 Bft) O 80 0 min 0,000 mm 0,0 UV-I 18 W/m -0,9 C 3,7 C 8,0 km/h (2 Bft)
21.02.2018 00:28 3,7 C 3,7 C 3,7 C 72 % 1017,6 hPa 0,0 l/m 5,7 km/h (2 Bft) NO 56 0 min 0,000 mm 0,0 UV-I 18 W/m -0,9 C 3,7 C 11,3 km/h (2 Bft)
21.02.2018 00:26 3,7 C 3,7 C 3,7 C 72 % 1017,5 hPa 0,0 l/m 6,0 km/h (2 Bft) O 85 0 min 0,000 mm 0,0 UV-I 18 W/m -0,9 C 3,7 C 9,7 km/h (2 Bft)
21.02.2018 00:24 3,7 C 3,7 C 3,7 C 72 % 1017,6 hPa 0,0 l/m 6,0 km/h (2 Bft) O 101 0 min 0,000 mm 0,0 UV-I 18 W/m -0,9 C 3,7 C 9,7 km/h (2 Bft)
21.02.2018 00:22 3,7 C 3,7 C 3,7 C 72 % 1017,6 hPa 0,0 l/m 5,6 km/h (2 Bft) O 90 0 min 0,000 mm 0,0 UV-I 18 W/m -0,9 C 3,7 C 9,7 km/h (2 Bft)
21.02.2018 00:20 3,7 C 3,7 C 3,7 C 72 % 1017,6 hPa 0,0 l/m 2,9 km/h (1 Bft) O-NO 58 0 min 0,000 mm 0,0 UV-I 18 W/m -0,9 C 3,7 C 6,4 km/h (2 Bft)
21.02.2018 00:18 3,7 C 3,7 C 3,7 C 72 % 1017,6 hPa 0,0 l/m 4,4 km/h (1 Bft) O-NO 58 0 min 0,000 mm 0,0 UV-I 18 W/m -0,9 C 3,7 C 9,7 km/h (2 Bft)
21.02.2018 00:00 3,7 C 3,7 C 3,7 C 72 % 1017,5 hPa 0,0 l/m 5,7 km/h (2 Bft) O-NO 62 0 min 0,000 mm 0,0 UV-I 18 W/m -0,9 C 3,7 C 8,0 km/h (2 Bft)
20.02.2018 23:58 3,7 C 3,7 C 3,7 C 72 % 1017,5 hPa 0,0 l/m 4,3 km/h (1 Bft) O-NO 78 0 min 0,000 mm 0,0 UV-I 18 W/m -0,9 C 3,7 C 6,4 km/h (2 Bft)
20.02.2018 23:56 3,7 C 3,7 C 3,7 C 72 % 1017,5 hPa 0,0 l/m 4,0 km/h (1 Bft) O 82 0 min 0,000 mm 0,0 UV-I 18 W/m -0,9 C 3,7 C 8,0 km/h (2 Bft)
20.02.2018 23:54 3,7 C 3,7 C 3,7 C 72 % 1017,4 hPa 0,0 l/m 2,9 km/h (1 Bft) O 83 0 min 0,000 mm 0,0 UV-I 18 W/m -0,9 C 3,7 C 6,4 km/h (2 Bft)
20.02.2018 23:52 3,7 C 3,7 C 3,7 C 72 % 1017,5 hPa 0,0 l/m 1,9 km/h (1 Bft) O 90 0 min 0,000 mm 0,0 UV-I 18 W/m -0,9 C 3,7 C 6,4 km/h (2 Bft)
20.02.2018 23:50 3,7 C 3,7 C 3,7 C 72 % 1017,4 hPa 0,0 l/m 3,9 km/h (1 Bft) O 90 0 min 0,000 mm 0,0 UV-I 18 W/m -0,9 C 3,7 C 6,4 km/h (2 Bft)
20.02.2018 23:48 3,7 C 3,7 C 3,7 C 72 % 1017,4 hPa 0,0 l/m 2,5 km/h (1 Bft) O 86 0 min 0,000 mm 0,0 UV-I 18 W/m -0,9 C 3,7 C 6,4 km/h (2 Bft)
20.02.2018 23:46 3,7 C 3,7 C 3,7 C 72 % 1017,4 hPa 0,0 l/m 2,3 km/h (1 Bft) O 80 0 min 0,000 mm 0,0 UV-I 18 W/m -0,9 C 3,7 C 4,8 km/h (1 Bft)
20.02.2018 23:44 3,7 C 3,7 C 3,7 C 72 % 1017,3 hPa 0,0 l/m 2,7 km/h (1 Bft) O 82 0 min 0,000 mm 0,0 UV-I 18 W/m -0,9 C 3,7 C 8,0 km/h (2 Bft)
20.02.2018 23:42 3,7 C 3,7 C 3,7 C 72 % 1017,4 hPa 0,0 l/m 5,7 km/h (2 Bft) O 83 0 min 0,000 mm 0,0 UV-I 18 W/m -0,9 C 3,7 C 11,3 km/h (2 Bft)
20.02.2018 23:40 3,7 C 3,7 C 3,7 C 72 % 1017,3 hPa 0,0 l/m 4,7 km/h (1 Bft) O-NO 70 0 min 0,000 mm 0,0 UV-I 18 W/m -0,9 C 3,7 C 6,4 km/h (2 Bft)
20.02.2018 23:38 3,7 C 3,7 C 3,7 C 72 % 1017,3 hPa 0,0 l/m 4,3 km/h (1 Bft) O-NO 71 0 min 0,000 mm 0,0 UV-I 18 W/m -0,9 C 3,7 C 8,0 km/h (2 Bft)
20.02.2018 23:36 3,7 C 3,7 C 3,7 C 72 % 1017,3 hPa 0,0 l/m 5,4 km/h (2 Bft) O 96 0 min 0,000 mm 0,0 UV-I 18 W/m -0,9 C 3,7 C 9,7 km/h (2 Bft)
20.02.2018 23:34 3,7 C 3,7 C 3,7 C 72 % 1017,4 hPa 0,0 l/m 1,7 km/h (1 Bft) O-NO 65 0 min 0,000 mm 0,0 UV-I 18 W/m -0,9 C 3,7 C 6,4 km/h (2 Bft)
20.02.2018 23:32 3,7 C 3,7 C 3,7 C 72 % 1017,3 hPa 0,0 l/m 3,0 km/h (1 Bft) O-NO 57 0 min 0,000 mm 0,0 UV-I 18 W/m -0,9 C 3,7 C 8,0 km/h (2 Bft)
20.02.2018 23:30 3,7 C 3,7 C 3,7 C 72 % 1017,3 hPa 0,0 l/m 2,8 km/h (1 Bft) O 82 0 min 0,000 mm 0,0 UV-I 18 W/m -0,9 C 3,7 C 4,8 km/h (1 Bft)
20.02.2018 23:28 3,7 C 3,7 C 3,7 C 72 % 1017,3 hPa 0,0 l/m 3,1 km/h (1 Bft) O 81 0 min 0,000 mm 0,0 UV-I 18 W/m -0,9 C 3,7 C 6,4 km/h (2 Bft)
20.02.2018 23:26 3,7 C 3,7 C 3,7 C 72 % 1017,3 hPa 0,0 l/m 2,5 km/h (1 Bft) O 82 0 min 0,000 mm 0,0 UV-I 18 W/m -0,9 C 3,7 C 8,0 km/h (2 Bft)
20.02.2018 23:24 3,7 C 3,7 C 3,7 C 72 % 1017,3 hPa 0,0 l/m 1,6 km/h (1 Bft) O-NO 62 0 min 0,000 mm 0,0 UV-I 18 W/m -0,9 C 3,7 C 4,8 km/h (1 Bft)
20.02.2018 23:22 3,7 C 3,7 C 3,7 C 72 % 1017,3 hPa 0,0 l/m 3,5 km/h (1 Bft) O-NO 62 0 min 0,000 mm 0,0 UV-I 18 W/m -0,9 C 3,7 C 6,4 km/h (2 Bft)
20.02.2018 23:20 3,7 C 3,7 C 3,7 C 72 % 1017,3 hPa 0,0 l/m 2,6 km/h (1 Bft) O-NO 57 0 min 0,000 mm 0,0 UV-I 18 W/m -0,9 C 3,7 C 6,4 km/h (2 Bft)
20.02.2018 23:18 3,7 C 3,7 C 3,7 C 72 % 1017,2 hPa 0,0 l/m 3,1 km/h (1 Bft) O-NO 57 0 min 0,000 mm 0,0 UV-I 18 W/m -0,9 C 3,7 C 8,0 km/h (2 Bft)
20.02.2018 23:16 3,7 C 3,7 C 3,7 C 72 % 1017,3 hPa 0,0 l/m 2,8 km/h (1 Bft) O-NO 75 0 min 0,000 mm 0,0 UV-I 18 W/m -0,9 C 3,7 C 6,4 km/h (2 Bft)
20.02.2018 23:14 3,7 C 3,7 C 3,7 C 72 % 1017,2 hPa 0,0 l/m 2,7 km/h (1 Bft) O 92 0 min 0,000 mm 0,0 UV-I 18 W/m -0,9 C 3,7 C 4,8 km/h (1 Bft)
20.02.2018 23:12 3,7 C 3,7 C 3,7 C 72 % 1017,2 hPa 0,0 l/m 6,0 km/h (2 Bft) O 93 0 min 0,000 mm 0,0 UV-I 18 W/m -0,9 C 3,7 C 9,7 km/h (2 Bft)
20.02.2018 23:10 3,7 C 3,7 C 3,7 C 72 % 1017,3 hPa 0,0 l/m 4,4 km/h (1 Bft) O 82 0 min 0,000 mm 0,0 UV-I 18 W/m -0,9 C 3,7 C 9,7 km/h (2 Bft)
20.02.2018 23:08 3,7 C 3,7 C 3,7 C 72 % 1017,2 hPa 0,0 l/m 5,3 km/h (1 Bft) NO 55 0 min 0,000 mm 0,0 UV-I 18 W/m -0,9 C 3,7 C 8,0 km/h (2 Bft)
20.02.2018 23:06 3,7 C 3,7 C 3,7 C 72 % 1017,2 hPa 0,0 l/m 3,8 km/h (1 Bft) O-NO 74 0 min 0,000 mm 0,0 UV-I 18 W/m -0,9 C 3,7 C 4,8 km/h (1 Bft)
20.02.2018 23:04 3,7 C 3,7 C 3,7 C 72 % 1017,2 hPa 0,0 l/m 2,2 km/h (1 Bft) O-NO 74 0 min 0,000 mm 0,0 UV-I 18 W/m -0,9 C 3,7 C 4,8 km/h (1 Bft)
20.02.2018 23:02 3,7 C 3,7 C 3,7 C 72 % 1017,1 hPa 0,0 l/m 3,7 km/h (1 Bft) O-NO 74 0 min 0,000 mm 0,0 UV-I 18 W/m -0,9 C 3,7 C 8,0 km/h (2 Bft)
20.02.2018 23:00 3,7 C 3,7 C 3,7 C 72 % 1017,1 hPa 0,0 l/m 3,5 km/h (1 Bft) NO 35 0 min 0,000 mm 0,0 UV-I 18 W/m -0,9 C 3,7 C 6,4 km/h (2 Bft)
20.02.2018 22:58 3,7 C 3,7 C 3,7 C 72 % 1017,1 hPa 0,0 l/m 4,0 km/h (1 Bft) N-NO 31 0 min 0,000 mm 0,0 UV-I 18 W/m -0,9 C 3,7 C 11,3 km/h (2 Bft)
20.02.2018 22:56 3,7 C 3,7 C 3,7 C 72 % 1017,1 hPa 0,0 l/m 7,2 km/h (2 Bft) O 97 0 min 0,000 mm 0,0 UV-I 18 W/m -0,9 C 3,0 C 11,3 km/h (2 Bft)
20.02.2018 22:54 3,7 C 3,7 C 3,7 C 72 % 1017,1 hPa 0,0 l/m 2,8 km/h (1 Bft) O-NO 71 0 min 0,000 mm 0,0 UV-I 18 W/m -0,9 C 3,7 C 4,8 km/h (1 Bft)
20.02.2018 22:52 3,7 C 3,7 C 3,7 C 72 % 1017,1 hPa 0,0 l/m 5,8 km/h (2 Bft) O-NO 58 0 min 0,000 mm 0,0 UV-I 18 W/m -0,9 C 3,7 C 12,9 km/h (3 Bft)
20.02.2018 22:50 3,7 C 3,7 C 3,7 C 72 % 1017,1 hPa 0,0 l/m 4,8 km/h (1 Bft) O 91 0 min 0,000 mm 0,0 UV-I 18 W/m -0,9 C 3,7 C 11,3 km/h (2 Bft)
20.02.2018 22:48 3,7 C 3,7 C 3,7 C 72 % 1017,1 hPa 0,0 l/m 5,1 km/h (1 Bft) NO 53 0 min 0,000 mm 0,0 UV-I 18 W/m -0,9 C 3,7 C 9,7 km/h (2 Bft)
20.02.2018 22:46 3,7 C 3,7 C 3,7 C 72 % 1017,1 hPa 0,0 l/m 6,1 km/h (2 Bft) NO 54 0 min 0,000 mm 0,0 UV-I 18 W/m -0,9 C 3,7 C 14,5 km/h (3 Bft)
20.02.2018 22:44 3,7 C 3,7 C 3,7 C 72 % 1017,1 hPa 0,0 l/m 5,3 km/h (1 Bft) O 96 0 min 0,000 mm 0,0 UV-I 18 W/m -0,9 C 3,7 C 11,3 km/h (2 Bft)
20.02.2018 22:42 3,7 C 3,7 C 3,7 C 72 % 1017,1 hPa 0,0 l/m 4,0 km/h (1 Bft) O-NO 61 0 min 0,000 mm 0,0 UV-I 18 W/m -0,9 C 3,7 C 6,4 km/h (2 Bft)
20.02.2018 22:40 3,7 C 3,7 C 3,7 C 72 % 1017,0 hPa 0,0 l/m 5,3 km/h (1 Bft) O-NO 76 0 min 0,000 mm 0,0 UV-I 18 W/m -0,9 C 3,7 C 11,3 km/h (2 Bft)
20.02.2018 22:38 3,7 C 3,7 C 3,7 C 72 % 1017,1 hPa 0,0 l/m 2,5 km/h (1 Bft) O 92 0 min 0,000 mm 0,0 UV-I 18 W/m -0,9 C 3,7 C 8,0 km/h (2 Bft)
20.02.2018 22:36 3,7 C 3,7 C 3,7 C 72 % 1017,0 hPa 0,0 l/m 4,9 km/h (1 Bft) O 91 0 min 0,000 mm 0,0 UV-I 18 W/m -0,9 C 3,7 C 8,0 km/h (2 Bft)
20.02.2018 22:34 3,7 C 3,7 C 3,7 C 72 % 1017,0 hPa 0,0 l/m 5,8 km/h (2 Bft) O 86 0 min 0,000 mm 0,0 UV-I 18 W/m -0,9 C 3,7 C 11,3 km/h (2 Bft)
20.02.2018 22:32 3,7 C 3,7 C 3,7 C 72 % 1017,0 hPa 0,0 l/m 5,8 km/h (2 Bft) O-NO 65 0 min 0,000 mm 0,0 UV-I 18 W/m -0,9 C 3,7 C 8,0 km/h (2 Bft)
20.02.2018 22:30 3,7 C 3,7 C 3,7 C 72 % 1017,0 hPa 0,0 l/m 8,0 km/h (2 Bft) O-NO 61 0 min 0,000 mm 0,0 UV-I 18 W/m -0,9 C 2,2 C 14,5 km/h (3 Bft)
20.02.2018 22:28 3,7 C 3,7 C 3,7 C 72 % 1017,0 hPa 0,0 l/m 6,7 km/h (2 Bft) O 85 0 min 0,000 mm 0,0 UV-I 18 W/m -0,9 C 3,4 C 9,7 km/h (2 Bft)
20.02.2018 22:26 3,7 C 3,7 C 3,7 C 72 % 1017,0 hPa 0,0 l/m 5,5 km/h (2 Bft) O-NO 70 0 min 0,000 mm 0,0 UV-I 18 W/m -0,9 C 3,7 C 8,0 km/h (2 Bft)
20.02.2018 22:24 3,7 C 3,7 C 3,7 C 72 % 1017,0 hPa 0,0 l/m 4,2 km/h (1 Bft) O-NO 64 0 min 0,000 mm 0,0 UV-I 18 W/m -0,9 C 3,7 C 6,4 km/h (2 Bft)
20.02.2018 22:22 3,7 C 3,7 C 3,7 C 72 % 1017,0 hPa 0,0 l/m 3,9 km/h (1 Bft) NO 56 0 min 0,000 mm 0,0 UV-I 18 W/m -0,9 C 3,7 C 6,4 km/h (2 Bft)
20.02.2018 22:20 3,7 C 3,7 C 3,7 C 72 % 1016,9 hPa 0,0 l/m 5,1 km/h (1 Bft) NO 43 0 min 0,000 mm 0,0 UV-I 18 W/m -0,9 C 3,7 C 9,7 km/h (2 Bft)
20.02.2018 22:18 3,7 C 3,7 C 3,7 C 72 % 1017,0 hPa 0,0 l/m 3,6 km/h (1 Bft) NO 52 0 min 0,000 mm 0,0 UV-I 18 W/m -0,9 C 3,7 C 9,7 km/h (2 Bft)
20.02.2018 22:16 3,7 C 3,7 C 3,7 C 72 % 1017,0 hPa 0,0 l/m 3,1 km/h (1 Bft) O-NO 65 0 min 0,000 mm 0,0 UV-I 18 W/m -0,9 C 3,7 C 6,4 km/h (2 Bft)
20.02.2018 22:14 3,7 C 3,7 C 3,7 C 72 % 1017,0 hPa 0,0 l/m 3,3 km/h (1 Bft) O-NO 65 0 min 0,000 mm 0,0 UV-I 18 W/m -0,9 C 3,7 C 6,4 km/h (2 Bft)
20.02.2018 22:12 3,7 C 3,7 C 3,7 C 72 % 1017,0 hPa 0,0 l/m 6,2 km/h (2 Bft) NO 49 0 min 0,000 mm 0,0 UV-I 18 W/m -0,9 C 3,7 C 14,5 km/h (3 Bft)
20.02.2018 22:10 3,7 C 3,7 C 3,7 C 72 % 1017,0 hPa 0,0 l/m 3,4 km/h (1 Bft) O-NO 62 0 min 0,000 mm 0,0 UV-I 18 W/m -0,9 C 3,7 C 14,5 km/h (3 Bft)
20.02.2018 22:08 3,7 C 3,7 C 3,7 C 72 % 1017,0 hPa 0,0 l/m 6,0 km/h (2 Bft) O 90 0 min 0,000 mm 0,0 UV-I 18 W/m -0,9 C 3,7 C 11,3 km/h (2 Bft)
20.02.2018 22:06 3,7 C 3,7 C 3,7 C 72 % 1017,1 hPa 0,0 l/m 4,5 km/h (1 Bft) O-NO 68 0 min 0,000 mm 0,0 UV-I 18 W/m -0,9 C 3,7 C 8,0 km/h (2 Bft)
20.02.2018 22:04 3,7 C 3,7 C 3,7 C 72 % 1016,8 hPa 0,0 l/m 3,4 km/h (1 Bft) O 82 0 min 0,000 mm 0,0 UV-I 18 W/m -0,9 C 3,7 C 6,4 km/h (2 Bft)
20.02.2018 22:02 3,7 C 3,7 C 3,7 C 72 % 1016,8 hPa 0,0 l/m 2,3 km/h (1 Bft) O-NO 71 0 min 0,000 mm 0,0 UV-I 18 W/m -0,9 C 3,7 C 6,4 km/h (2 Bft)
20.02.2018 22:00 3,7 C 3,7 C 3,7 C 72 % 1016,9 hPa 0,0 l/m 3,3 km/h (1 Bft) O-NO 71 0 min 0,000 mm 0,0 UV-I 18 W/m -0,9 C 3,7 C 8,0 km/h (2 Bft)
20.02.2018 21:58 3,7 C 3,7 C 3,7 C 72 % 1017,0 hPa 0,0 l/m 5,8 km/h (2 Bft) O-NO 71 0 min 0,000 mm 0,0 UV-I 18 W/m -0,9 C 3,7 C 8,0 km/h (2 Bft)
20.02.2018 21:56 3,7 C 3,7 C 3,7 C 72 % 1016,9 hPa 0,0 l/m 4,0 km/h (1 Bft) O 86 0 min 0,000 mm 0,0 UV-I 18 W/m -0,9 C 3,7 C 9,7 km/h (2 Bft)
20.02.2018 21:54 3,7 C 3,7 C 3,7 C 72 % 1016,8 hPa 0,0 l/m 3,3 km/h (1 Bft) O-NO 65 0 min 0,000 mm 0,0 UV-I 18 W/m -0,9 C 3,7 C 8,0 km/h (2 Bft)
20.02.2018 21:52 3,7 C 3,7 C 3,7 C 72 % 1016,8 hPa 0,0 l/m 6,0 km/h (2 Bft) O-NO 69 0 min 0,000 mm 0,0 UV-I 18 W/m -0,9 C 3,7 C 11,3 km/h (2 Bft)
20.02.2018 21:50 3,7 C 3,7 C 3,7 C 72 % 1016,8 hPa 0,0 l/m 7,3 km/h (2 Bft) O-NO 63 0 min 0,000 mm 0,0 UV-I 18 W/m -0,9 C 2,9 C 11,3 km/h (2 Bft)
20.02.2018 21:48 3,7 C 3,7 C 3,7 C 72 % 1016,8 hPa 0,0 l/m 5,3 km/h (1 Bft) O-SO 105 0 min 0,000 mm 0,0 UV-I 18 W/m -0,9 C 3,7 C 11,3 km/h (2 Bft)
20.02.2018 21:46 3,7 C 3,7 C 3,7 C 72 % 1016,8 hPa 0,0 l/m 5,4 km/h (2 Bft) NO 56 0 min 0,000 mm 0,0 UV-I 18 W/m -0,9 C 3,7 C 9,7 km/h (2 Bft)
20.02.2018 21:44 3,7 C 3,7 C 3,7 C 72 % 1016,8 hPa 0,0 l/m 5,5 km/h (2 Bft) O-NO 66 0 min 0,000 mm 0,0 UV-I 18 W/m -0,9 C 3,7 C 8,0 km/h (2 Bft)
20.02.2018 21:42 3,7 C 3,7 C 3,7 C 72 % 1016,8 hPa 0,0 l/m 3,9 km/h (1 Bft) NO 41 0 min 0,000 mm 0,0 UV-I 18 W/m -0,9 C 3,7 C 8,0 km/h (2 Bft)
20.02.2018 21:40 3,7 C 3,7 C 3,7 C 72 % 1016,8 hPa 0,0 l/m 4,7 km/h (1 Bft) NO 55 0 min 0,000 mm 0,0 UV-I 18 W/m -0,9 C 3,7 C 8,0 km/h (2 Bft)
20.02.2018 21:38 3,7 C 3,7 C 3,7 C 72 % 1016,7 hPa 0,0 l/m 5,8 km/h (2 Bft) O-NO 69 0 min 0,000 mm 0,0 UV-I 18 W/m -0,9 C 3,7 C 9,7 km/h (2 Bft)
20.02.2018 21:36 3,7 C 3,7 C 3,7 C 72 % 1016,7 hPa 0,0 l/m 5,8 km/h (2 Bft) O-NO 61 0 min 0,000 mm 0,0 UV-I 18 W/m -0,9 C 3,7 C 9,7 km/h (2 Bft)
20.02.2018 21:34 3,7 C 3,7 C 3,7 C 72 % 1016,7 hPa 0,0 l/m 4,9 km/h (1 Bft) O-NO 70 0 min 0,000 mm 0,0 UV-I 18 W/m -0,9 C 3,7 C 11,3 km/h (2 Bft)
20.02.2018 21:32 3,7 C 3,7 C 3,7 C 72 % 1016,7 hPa 0,0 l/m 3,6 km/h (1 Bft) O-NO 71 0 min 0,000 mm 0,0 UV-I 18 W/m -0,9 C 3,7 C 8,0 km/h (2 Bft)
20.02.2018 21:30 3,7 C 3,7 C 3,7 C 72 % 1016,7 hPa 0,0 l/m 3,9 km/h (1 Bft) O-NO 58 0 min 0,000 mm 0,0 UV-I 18 W/m -0,9 C 3,7 C 6,4 km/h (2 Bft)
20.02.2018 21:28 3,7 C 3,7 C 3,7 C 72 % 1016,7 hPa 0,0 l/m 3,4 km/h (1 Bft) NO 54 0 min 0,000 mm 0,0 UV-I 18 W/m -0,9 C 3,7 C 6,4 km/h (2 Bft)
20.02.2018 21:26 3,7 C 3,7 C 3,7 C 72 % 1016,7 hPa 0,0 l/m 5,4 km/h (2 Bft) O-NO 61 0 min 0,000 mm 0,0 UV-I 18 W/m -0,9 C 3,7 C 8,0 km/h (2 Bft)
20.02.2018 21:24 3,7 C 3,7 C 3,7 C 72 % 1016,6 hPa 0,0 l/m 7,1 km/h (2 Bft) NO 50 0 min 0,000 mm 0,0 UV-I 18 W/m -0,9 C 3,1 C 11,3 km/h (2 Bft)
20.02.2018 21:22 3,7 C 3,7 C 3,7 C 72 % 1016,6 hPa 0,0 l/m 4,3 km/h (1 Bft) O-NO 62 0 min 0,000 mm 0,0 UV-I 18 W/m -0,9 C 3,7 C 6,4 km/h (2 Bft)
20.02.2018 21:20 3,7 C 3,7 C 3,7 C 72 % 1016,6 hPa 0,0 l/m 4,7 km/h (1 Bft) O-NO 59 0 min 0,000 mm 0,0 UV-I 18 W/m -0,9 C 3,7 C 14,5 km/h (3 Bft)
20.02.2018 21:18 3,7 C 3,7 C 3,7 C 72 % 1016,7 hPa 0,0 l/m 4,9 km/h (1 Bft) NO 49 0 min 0,000 mm 0,0 UV-I 18 W/m -0,9 C 3,7 C 9,7 km/h (2 Bft)
20.02.2018 21:16 3,7 C 3,7 C 3,7 C 72 % 1016,7 hPa 0,0 l/m 5,1 km/h (1 Bft) O-NO 63 0 min 0,000 mm 0,0 UV-I 18 W/m -0,9 C 3,7 C 8,0 km/h (2 Bft)
20.02.2018 21:14 3,7 C 3,7 C 3,7 C 72 % 1016,7 hPa 0,0 l/m 5,8 km/h (2 Bft) O-NO 59 0 min 0,000 mm 0,0 UV-I 18 W/m -0,9 C 3,7 C 11,3 km/h (2 Bft)
20.02.2018 21:12 3,7 C 3,7 C 3,7 C 72 % 1016,7 hPa 0,0 l/m 2,5 km/h (1 Bft) O-NO 57 0 min 0,000 mm 0,0 UV-I 18 W/m -0,9 C 3,7 C 8,0 km/h (2 Bft)
20.02.2018 21:10 3,7 C 3,7 C 3,7 C 72 % 1016,7 hPa 0,0 l/m 0,1 km/h (0 Bft) NO 48 0 min 0,000 mm 0,0 UV-I 18 W/m -0,9 C 3,7 C 1,6 km/h (1 Bft)
20.02.2018 21:08 3,7 C 3,7 C 3,7 C 72 % 1016,6 hPa 0,0 l/m 0,5 km/h (0 Bft) NO 48 0 min 0,000 mm 0,0 UV-I 18 W/m -0,9 C 3,7 C 3,2 km/h (1 Bft)
20.02.2018 21:06 3,7 C 3,7 C 3,7 C 72 % 1016,7 hPa 0,0 l/m 2,2 km/h (1 Bft) NO 48 0 min 0,000 mm 0,0 UV-I 18 W/m -0,9 C 3,7 C 6,4 km/h (2 Bft)
20.02.2018 21:04 3,7 C 3,7 C 3,7 C 72 % 1016,7 hPa 0,0 l/m 2,8 km/h (1 Bft) NO 49 0 min 0,000 mm 0,0 UV-I 18 W/m -0,9 C 3,7 C 6,4 km/h (2 Bft)
20.02.2018 21:02 3,7 C 3,7 C 3,7 C 72 % 1016,7 hPa 0,0 l/m 3,7 km/h (1 Bft) NO 49 0 min 0,000 mm 0,0 UV-I 18 W/m -0,9 C 3,7 C 6,4 km/h (2 Bft)
20.02.2018 21:00 3,7 C 3,7 C 3,7 C 72 % 1016,6 hPa 0,0 l/m 0,9 km/h (0 Bft) O-NO 61 0 min 0,000 mm 0,0 UV-I 18 W/m -0,9 C 3,7 C 6,4 km/h (2 Bft)
20.02.2018 20:58 3,7 C 3,7 C 3,7 C 72 % 1016,6 hPa 0,0 l/m 2,2 km/h (1 Bft) O-NO 62 0 min 0,000 mm 0,0 UV-I 18 W/m -0,9 C 3,7 C 4,8 km/h (1 Bft)
20.02.2018 20:56 3,7 C 3,7 C 3,7 C 72 % 1016,7 hPa 0,0 l/m 1,5 km/h (1 Bft) O-NO 63 0 min 0,000 mm 0,0 UV-I 18 W/m -0,9 C 3,7 C 4,8 km/h (1 Bft)
20.02.2018 20:54 3,7 C 3,7 C 3,7 C 72 % 1016,7 hPa 0,0 l/m 3,2 km/h (1 Bft) O-NO 61 0 min 0,000 mm 0,0 UV-I 18 W/m -0,9 C 3,7 C 4,8 km/h (1 Bft)
20.02.2018 20:52 3,7 C 3,7 C 3,7 C 72 % 1016,6 hPa 0,0 l/m 3,5 km/h (1 Bft) O-NO 60 0 min 0,000 mm 0,0 UV-I 18 W/m -0,9 C 3,7 C 4,8 km/h (1 Bft)
20.02.2018 20:50 3,7 C 3,7 C 3,7 C 72 % 1016,6 hPa 0,0 l/m 2,9 km/h (1 Bft) O-NO 61 0 min 0,000 mm 0,0 UV-I 18 W/m -0,9 C 3,7 C 6,4 km/h (2 Bft)
20.02.2018 20:48 3,7 C 3,7 C 3,7 C 72 % 1016,6 hPa 0,0 l/m 2,2 km/h (1 Bft) O-NO 59 0 min 0,000 mm 0,0 UV-I 18 W/m -0,9 C 3,7 C 6,4 km/h (2 Bft)
20.02.2018 20:46 3,7 C 3,7 C 3,7 C 72 % 1016,6 hPa 0,0 l/m 2,2 km/h (1 Bft) O-NO 59 0 min 0,000 mm 0,0 UV-I 18 W/m -0,9 C 3,7 C 6,4 km/h (2 Bft)
20.02.2018 20:44 3,7 C 3,7 C 3,7 C 72 % 1016,6 hPa 0,0 l/m 4,0 km/h (1 Bft) O-NO 63 0 min 0,000 mm 0,0 UV-I 18 W/m -0,9 C 3,7 C 6,4 km/h (2 Bft)
20.02.2018 20:42 3,7 C 3,7 C 3,7 C 72 % 1016,6 hPa 0,0 l/m 4,0 km/h (1 Bft) O-NO 63 0 min 0,000 mm 0,0 UV-I 18 W/m -0,9 C 3,7 C 8,0 km/h (2 Bft)
20.02.2018 20:40 3,7 C 3,7 C 3,7 C 72 % 1016,6 hPa 0,0 l/m 3,6 km/h (1 Bft) O-NO 65 0 min 0,000 mm 0,0 UV-I 18 W/m -0,9 C 3,7 C 6,4 km/h (2 Bft)
20.02.2018 20:38 3,7 C 3,7 C 3,7 C 72 % 1016,6 hPa 0,0 l/m 2,6 km/h (1 Bft) O-NO 61 0 min 0,000 mm 0,0 UV-I 18 W/m -0,9 C 3,7 C 6,4 km/h (2 Bft)
20.02.2018 20:36 3,7 C 3,7 C 3,7 C 72 % 1016,6 hPa 0,0 l/m 1,8 km/h (1 Bft) O-NO 65 0 min 0,000 mm 0,0 UV-I 18 W/m -0,9 C 3,7 C 4,8 km/h (1 Bft)
20.02.2018 20:34 3,7 C 3,7 C 3,7 C 72 % 1016,6 hPa 0,0 l/m 3,6 km/h (1 Bft) O-NO 65 0 min 0,000 mm 0,0 UV-I 18 W/m -0,9 C 3,7 C 8,0 km/h (2 Bft)
20.02.2018 20:32 3,7 C 3,7 C 3,7 C 72 % 1016,6 hPa 0,0 l/m 4,6 km/h (1 Bft) O-NO 63 0 min 0,000 mm 0,0 UV-I 18 W/m -0,9 C 3,7 C 9,7 km/h (2 Bft)
20.02.2018 20:30 3,7 C 3,7 C 3,7 C 72 % 1016,6 hPa 0,0 l/m 2,8 km/h (1 Bft) O-NO 61 0 min 0,000 mm 0,0 UV-I 18 W/m -0,9 C 3,7 C 6,4 km/h (2 Bft)
20.02.2018 20:28 3,7 C 3,7 C 3,7 C 72 % 1016,6 hPa 0,0 l/m 3,8 km/h (1 Bft) O-NO 61 0 min 0,000 mm 0,0 UV-I 18 W/m -0,9 C 3,7 C 8,0 km/h (2 Bft)
20.02.2018 20:26 3,7 C 3,7 C 3,7 C 72 % 1016,6 hPa 0,0 l/m 3,8 km/h (1 Bft) O-NO 65 0 min 0,000 mm 0,0 UV-I 18 W/m -0,9 C 3,7 C 6,4 km/h (2 Bft)
20.02.2018 20:24 3,7 C 3,7 C 3,7 C 72 % 1016,6 hPa 0,0 l/m 3,6 km/h (1 Bft) O 80 0 min 0,000 mm 0,0 UV-I 18 W/m -0,9 C 3,7 C 6,4 km/h (2 Bft)
20.02.2018 20:22 3,7 C 3,7 C 3,7 C 72 % 1016,6 hPa 0,0 l/m 4,8 km/h (1 Bft) O-NO 75 0 min 0,000 mm 0,0 UV-I 18 W/m -0,9 C 3,7 C 8,0 km/h (2 Bft)
20.02.2018 20:20 3,7 C 3,7 C 3,7 C 72 % 1016,6 hPa 0,0 l/m 6,3 km/h (2 Bft) O 89 0 min 0,000 mm 0,0 UV-I 18 W/m -0,9 C 3,7 C 9,7 km/h (2 Bft)
20.02.2018 20:18 3,7 C 3,7 C 3,7 C 72 % 1016,5 hPa 0,0 l/m 1,6 km/h (1 Bft) O-NO 66 0 min 0,000 mm 0,0 UV-I 18 W/m -0,9 C 3,7 C 4,8 km/h (1 Bft)
20.02.2018 20:16 3,7 C 3,7 C 3,7 C 72 % 1016,5 hPa 0,0 l/m 5,4 km/h (2 Bft) O-NO 66 0 min 0,000 mm 0,0 UV-I 18 W/m -0,9 C 3,7 C 8,0 km/h (2 Bft)
20.02.2018 20:14 3,7 C 3,7 C 3,7 C 72 % 1016,5 hPa 0,0 l/m 4,9 km/h (1 Bft) O-NO 72 0 min 0,000 mm 0,0 UV-I 18 W/m -0,9 C 3,7 C 11,3 km/h (2 Bft)
20.02.2018 20:12 3,7 C 3,7 C 3,7 C 72 % 1016,5 hPa 0,0 l/m 4,9 km/h (1 Bft) NO 47 0 min 0,000 mm 0,0 UV-I 18 W/m -0,9 C 3,7 C 8,0 km/h (2 Bft)
20.02.2018 20:10 3,7 C 3,7 C 3,7 C 72 % 1016,5 hPa 0,0 l/m 3,8 km/h (1 Bft) O-NO 69 0 min 0,000 mm 0,0 UV-I 18 W/m -0,9 C 3,7 C 6,4 km/h (2 Bft)
20.02.2018 20:08 3,7 C 3,7 C 3,7 C 72 % 1016,5 hPa 0,0 l/m 2,3 km/h (1 Bft) O-NO 68 0 min 0,000 mm 0,0 UV-I 18 W/m -0,9 C 3,7 C 4,8 km/h (1 Bft)
20.02.2018 20:06 3,7 C 3,7 C 3,7 C 72 % 1016,5 hPa 0,0 l/m 4,7 km/h (1 Bft) O-NO 68 0 min 0,000 mm 0,0 UV-I 18 W/m -0,9 C 3,7 C 9,7 km/h (2 Bft)
20.02.2018 20:04 3,7 C 3,7 C 3,7 C 72 % 1016,5 hPa 0,0 l/m 3,9 km/h (1 Bft) O-NO 64 0 min 0,000 mm 0,0 UV-I 18 W/m -0,9 C 3,7 C 6,4 km/h (2 Bft)
20.02.2018 20:02 3,7 C 3,7 C 3,7 C 72 % 1016,6 hPa 0,0 l/m 3,5 km/h (1 Bft) O-NO 74 0 min 0,000 mm 0,0 UV-I 18 W/m -0,9 C 3,7 C 6,4 km/h (2 Bft)
20.02.2018 20:00 3,7 C 3,7 C 3,7 C 72 % 1016,5 hPa 0,0 l/m 3,7 km/h (1 Bft) O 88 0 min 0,000 mm 0,0 UV-I 18 W/m -0,9 C 3,7 C 8,0 km/h (2 Bft)
_ Min-Zeit 09:20 09:20 09:22 14:40 20:00 - 06:14 - - - - - - 17:42 09:54 06:14
Minimum _ 0,3 C 0,3 C 0,4 C 56 % 1016,5 hPa - 0,0 km/h (0 Bft) - - - - - - -3,1 C -2,9 C 0,0 km/h (0 Bft)
_ Max-Zeit 14:52 14:42 14:52 09:20 10:34 09:52 12:10 - - 07:38 12:50 12:10 12:56 14:56 14:50 11:42
Maximum _ 6,5 C 6,4 C 6,5 C 86 % 1020,4 hPa 0,1 l/m 14,0 km/h
O-NO (3 Bft)
- - 2 min 0,229 mm 1,7 UV-I 508 W/m -0,6 C 6,4 C 24,1 km/h
NO (4 Bft)
Durchschnitt _ 3,9 C 3,9 C 4,0 C 69 % 1018,5 hPa #0,2 l/m 5,2 km/h (1 Bft) O-NO - #7:50 h #1,372 mm 1,2 UV-I 149 W/m -1,3 C 3,4 C 10,2 km/h (2 Bft)